GFSWCAN_prec_radar_030.txt.gz
Reflectivity
15 12 11 7 9 9 9 1 -2 -20 -6 -15 -20 -20 -20 -15 19 -18 14 31 20 15 -5 13 -20 -20 -20 -20 -20 -20 5 -20 17 -20 -20 -20 -20 -20 -20 -20 -20 -20 -20 -20 -20 -20 -20 -20 -20 -20 -20 -20 -20 -20
-11 15 19 16 2 10 8 -20 -19 -8 10 2 11 -16 -11 13 23 -18 -5 22 14 35 36 -9 -11 -20 -20 -20 -20 -20 -20 -20 -20 9 -20 -20 -20 -20 -20 -20 -20 -20 -20 -20 -20 -20 -20 -20 -20 -20 -20 -20 -20 -20
12 10 4 -19 -1 5 16 16 25 18 -14 12 -20 -14 14 16 20 -20 12 28 -2 19 38 -14 -20 -20 -20 -20 -20 -20 -16 -20 10 17 -20 -12 -20 -20 -20 -20 -20 -20 -20 -20 -20 -20 -20 -20 -20 -20 -20 -20 -20 -20
-20 -12 10 -6 -20 -20 9 16 22 14 18 15 7 30 23 25 -5 -10 1 16 30 23 -7 10 7 -5 -20 -20 -18 -20 -2 -20 -20 -20 -0 1 -20 -20 -20 -20 -20 -20 -20 -20 -20 -20 -20 -20 -20 -20 -20 -20 -20 -20
-20 -10 -18 -20 -15 13 13 -5 16 13 14 -9 21 -17 -14 -20 -9 0 27 34 29 16 7 -7 -17 25 -20 -20 -20 -20 -20 -20 -20 -20 -14 -14 -20 -20 -20 -20 -20 -20 -20 -20 -20 -20 -20 -20 -20 -20 -20 -20 -20 -20
-20 -20 -20 -6 -19 4 15 -20 -19 -19 20 19 2 -20 -20 -20 -2 19 35 32 22 27 23 40 12 -18 19 3 -20 -6 -17 -20 -20 13 -8 -20 -20 -20 -20 -20 -20 -20 -20 -20 -20 -20 -20 -20 -20 -20 -20 -20 -20 -20
-20 -20 -20 -16 -20 -20 -20 -20 -20 -20 11 1 -20 -20 -20 -18 10 15 13 4 5 14 39 34 13 16 20 27 46 43 20 0 12 -19 -20 -20 -20 -20 -20 -20 -20 -20 -20 -20 -20 -20 -20 -20 -20 -20 -20 -20 -20 -20
10 7 -18 -5 -20 -20 -20 -20 -20 -20 -20 -20 -20 -20 0 19 24 24 13 34 21 31 33 37 43 31 16 12 21 26 29 25 22 5 1 -20 -20 -20 -20 -20 -20 -20 -20 -20 -20 -20 -20 -20 -20 -20 -20 -20 -20 -20
13 7 -4 -20 -20 -16 -20 -20 -20 -20 -20 -20 -12 17 18 22 17 -12 10 27 15 18 33 33 31 29 6 -19 -20 -20 -1 -2 16 20 23 20 -11 -20 -20 -20 -20 -20 -20 -20 -20 -20 -20 -20 -20 -20 -20 -20 -20 -20
28 29 21 -18 -20 -20 -20 -20 -20 -20 -6 20 27 22 14 -15 40 42 43 44 42 36 24 23 24 -2 -19 -20 -20 -18 -19 -20 -20 -20 -7 -20 -20 -20 -20 -20 -20 -20 -20 -19 -20 -20 -20 -20 -20 -20 -20 -20 -20 -20
26 32 21 -1 3 -8 -20 -20 10 33 33 22 29 37 40 35 36 40 39 29 21 13 6 5 10 14 3 4 5 7 -2 -20 -20 -20 -20 -20 -20 -20 -20 -3 -14 -19 -6 16 -20 -20 -20 -20 -20 -20 -20 -20 -20 -20
25 15 8 5 12 15 15 18 18 26 30 33 35 29 37 39 30 6 3 -11 -17 -3 -20 -20 -20 -20 -20 -20 -20 -20 -9 -20 -20 -20 -20 -20 -20 -20 10 9 -20 16 -6 -20 -20 -20 -20 -20 -20 -20 -20 -20 -20 -20
11 18 7 8 -19 8 23 18 37 38 38 43 40 38 26 -7 -7 -20 -20 -20 -19 -5 -19 -20 -20 -10 -10 10 14 -18 -15 -20 -20 -20 -20 -20 -3 -20 12 16 10 -20 -20 -20 -20 -20 -11 -11 -20 -20 -20 -20 -9 -9
21 16 18 27 21 21 27 24 10 13 -3 -7 -9 -6 1 -12 5 -18 -20 -20 -11 -17 -20 -20 6 19 9 -6 24 11 -4 -14 -20 -20 -20 -20 -20 -18 -17 -7 8 1 -20 -20 -20 -18 -4 -19 -20 -19 -19 -20 -16 2
18 21 24 32 23 20 12 -0 -20 -20 -12 7 -9 12 -2 5 -2 -8 -0 -20 -12 9 -5 -20 -9 24 35 34 23 -20 -15 -20 -20 -20 -16 12 18 13 9 -5 -20 -20 -20 -15 -20 -20 -20 -17 -4 -1 1 -4 -20 -20
24 27 25 13 19 19 21 1 -12 -10 -19 -3 -17 2 6 3 1 2 7 11 6 9 -20 -20 -20 -16 -15 -13 1 -14 -20 -13 -18 -14 -6 -19 -18 -20 -20 -11 5 1 -20 -20 -20 -13 -8 -2 -2 -16 -20 -20 -20 -20
0 22 13 4 -7 5 1 -19 -20 -20 -20 -20 9 21 3 -2 6 6 8 20 16 10 -1 14 11 12 18 9 -8 -15 -13 -9 -11 -12 18 7 12 18 22 15 -9 -8 -20 -20 -20 -20 -20 -20 -20 -20 -20 -20 -20 -20
-20 -20 -11 -2 -14 -20 -20 4 14 -19 -20 -8 -5 -2 18 20 6 17 28 29 30 27 32 17 16 10 4 -11 -12 12 17 17 15 12 21 10 20 25 12 2 20 8 -7 -20 -20 -20 -20 -20 -20 -20 -20 -20 -20 -20
-20 -20 -20 -20 -20 -20 -20 8 3 -12 7 9 15 1 12 16 16 12 9 -2 -10 -12 -4 -2 -4 4 11 15 18 19 17 16 15 10 18 23 28 26 26 20 13 3 -11 -19 -20 -20 -20 -20 -20 -20 -20 -20 -20 -20
-20 -20 -20 -20 -20 -20 -20 -1 2 7 7 15 16 5 2 4 -11 -15 -20 -20 -20 -18 -3 3 11 15 14 15 16 15 16 15 8 -19 1 11 24 26 21 9 -6 6 -1 -4 -10 -17 -20 -18 -16 -16 -17 -20 -20 -20
-20 -20 -20 -20 -20 -20 -20 -20 -14 1 -2 -14 -19 -16 -20 -20 -20 -20 -20 -20 -20 -20 1 7 8 9 7 5 1 -0 -14 -16 -12 -14 -16 -11 2 -11 -6 6 6 9 5 -1 3 12 13 11 9 8 2 -8 -20 -20
-20 -20 -20 -20 -20 -20 -20 -20 -20 -20 -20 -20 -20 -16 -20 -20 -20 -20 -20 -20 -10 6 8 -3 -5 -20 -20 -11 -20 -20 -17 -20 -12 0 7 7 6 9 14 17 18 16 10 7 9 4 -5 -10 -10 -4 3 -6 -20 -20
-20 -20 -20 -20 -20 -20 -20 -20 -20 -20 -20 -20 -20 -20 -20 -20 -19 -20 -19 -0 1 6 5 -20 -20 -20 -20 -20 -20 -20 -20 -20 -20 -17 -6 4 8 10 8 7 4 0 -8 2 4 1 -5 -18 -20 -20 -20 -20 -20 -20
-20 -20 -20 -20 -20 -20 -20 -20 -20 -20 -20 -20 -20 -20 -20 -16 -18 -20 -18 -7 7 -11 -20 -12 -19 -20 -20 -20 -20 -20 -20 -20 -20 -20 -19 -20 -20 -17 -18 -18 -18 -16 -17 -18 -19 -20 -20 -20 -20 -20 -20 -20 -20 -20
-20 -20 -20 -20 -20 -20 -20 -20 -20 -20 -20 -20 -20 -20 -20 -20 -20 -20 -20 -20 -20 -20 -20 -20 -20 -20 -20 -20 -20 -20 -20 -20 -20 -20 -20 -20 -20 -20 -20 -20 -20 -20 -20 -20 -20 -20 -20 -20 -20 -20 -20 -20 -20 -20
-20 -14 -19 -20 -20 -16 -20 -20 -20 -20 -20 -20 -20 -20 -20 -20 -20 -20 -20 -20 -20 -20 -20 -20 -20 -20 -20 -20 -20 -20 -20 -20 -20 -20 -20 -20 -20 -20 -20 -20 -20 -20 -20 -20 -20 -20 -20 -20 -20 -20 -20 -20 -20 -20
-17 -20 -20 -20 -20 -18 -20 -20 -20 -20 -20 -20 -20 -20 -16 -20 -20 -10 -20 -20 -20 -20 -20 -20 -20 -20 -20 -20 -20 -20 -20 -20 -20 -20 -20 -20 -20 -20 -20 -20 -20 -20 -20 -20 -20 -20 -20 -20 -20 -20 -20 -20 -20 -20
-19 -10 -20 -20 -20 -20 -20 -20 -20 -20 -20 -20 -20 -20 -20 -20 -20 -18 -19 0 -20 -20 -20 -20 -20 -20 -20 -20 -20 -20 -20 -20 -20 -20 -20 -20 -20 -20 -20 -20 -20 -20 -20 -20 -20 -20 -20 -20 -20 -20 -20 -20 -20 -20
-20 -20 -20 -20 -20 -20 -20 -19 -20 -20 -20 -20 -20 -20 -20 -15 -10 -20 -5 -3 -16 -20 -20 -20 -20 -20 -20 -20 -20 -20 -20 -20 -20 -20 -20 -20 -20 -20 -20 -20 -20 -20 -20 -20 -20 -20 -16 -20 -20 -20 -20 -20 -20 -20
-20 -20 -20 -20 -20 -20 -10 -20 -20 -20 -20 -20 -20 -18 -20 -15 -9 -13 -20 -20 -20 -20 -20 -20 -20 -20 -20 -20 -20 -20 -20 -20 -20 -20 -20 -20 -20 -20 -20 -20 -20 -20 -20 -20 -20 -20 -20 -20 -20 -20 -20 -20 -20 -20
-20 -20 -20 -20 -20 -20 -18 -20 -16 -20 -20 -20 -20 -20 -20 -20 -20 -20 -20 -20 -20 -20 -20 -20 -20 -20 -20 -20 -20 -20 -20 -20 -20 -20 -20 -20 -20 -20 -20 -20 -20 -20 -20 -20 -20 -20 -20 -20 -20 -20 -20 -20 -20 -20
-20 -20 -20 -20 -20 -20 -5 -9 -15 -20 -20 -20 -20 -20 -20 -20 -20 -20 -20 -20 -20 -20 -20 -20 -20 -20 -20 -20 -20 -20 -20 -20 -20 -20 -20 -20 -20 -20 -20 -20 -20 -20 -20 -20 -20 -20 -20 -20 -20 -20 -20 -20 -20 -20
-20 -20 -20 -20 -19 -20 -20 -20 -19 -20 -20 -20 -20 -20 -20 -20 -20 -20 -20 -20 -20 -20 -20 -20 -20 -20 -20 -20 -20 -20 -20 -20 -20 -20 -20 -20 -20 -20 -20 -20 -20 -20 -20 -20 -20 -20 -20 -20 -20 -20 -20 -20 -20 -20

GFSWCAN_prec_radar_033.txt.gz
Reflectivity
28 25 28 32 35 33 32 26 27 17 5 0 -17 -17 -20 -14 19 9 26 31 -5 -8 8 -18 2 -20 -20 -20 -20 -20 -20 -20 -20 -20 -20 -20 -20 -20 -20 -20 -20 -20 -20 -20 -20 -20 -20 -20 -20 -20 -20 -20 -20 -20
30 32 35 37 32 27 26 23 5 -0 10 5 16 -13 7 -20 13 9 29 37 15 2 18 -20 -20 -20 -20 -20 -20 -20 -20 -20 -20 -20 -20 -20 -20 -20 -20 -20 -20 -20 -20 -20 -20 -20 -20 -20 -20 -20 -20 -20 -20 -20
17 18 16 15 13 9 3 5 -7 -9 17 11 -20 -18 -1 -5 14 32 25 25 8 17 -17 -20 -20 -20 -20 -20 -20 -20 -20 -20 -20 -19 20 -7 -20 -20 -20 -20 -20 -20 -20 -20 -20 -20 -20 -20 -20 -20 -20 -20 -20 -20
20 19 15 18 13 -0 10 13 13 16 0 -20 -20 -16 -20 -20 22 37 9 22 17 2 -2 -20 -15 -20 15 -20 -20 -20 -20 -20 25 -3 13 -1 -20 -20 -20 -20 -20 -20 -20 -20 -20 -20 -20 -20 -20 -20 -20 -20 -20 -20
-20 -9 13 -19 14 16 17 16 -4 -9 -20 -20 -20 -18 -20 7 22 14 10 14 23 9 13 18 37 24 26 -20 -20 -20 -7 -20 -20 -3 -6 -8 12 -20 -20 -20 -20 -20 -20 -20 -20 -20 -20 -20 -20 -20 -20 -20 -20 -20
-20 -19 -15 -18 -15 9 26 20 -7 -11 -20 -20 -20 -13 27 24 20 30 33 23 11 10 37 33 4 -20 26 -3 -20 -20 -20 -20 -20 18 12 2 -19 9 -20 -20 -20 -20 -20 -20 -20 -20 -20 -20 -20 -20 -20 -20 -20 -20
-20 -10 9 12 13 12 22 26 30 24 21 18 24 26 -20 -17 -3 3 -3 -17 1 23 35 31 23 1 -10 22 19 20 -20 20 27 -10 -20 -20 -20 -20 -20 -20 -20 -20 -20 -20 -20 -20 -20 -20 -20 -20 -20 -20 -20 -20
-20 -20 -18 -20 -20 -20 -20 -17 8 11 27 32 33 21 -12 -20 -20 8 28 15 11 17 16 4 -20 3 -3 16 23 22 3 -6 11 -5 7 -18 -20 -20 -20 -20 -20 -20 -20 -20 -20 -20 -20 -20 -20 -20 -20 -20 -20 -20
-20 -20 -20 -20 -20 -20 -20 -20 -20 -15 -20 -20 0 -20 18 8 20 8 28 19 0 29 31 14 -5 29 28 -20 -14 16 16 24 34 23 5 10 -4 -20 -20 -20 -20 -20 -20 -20 -20 -20 -20 -20 -20 -20 -20 -20 -20 -20
-20 -20 -20 -20 -20 -20 -20 -20 8 -20 -20 16 13 13 38 20 -19 5 30 30 33 24 -0 -15 6 10 43 -16 -17 6 15 26 49 22 15 23 11 9 0 -20 -19 -9 -17 -20 -20 -4 -19 -17 -20 -20 -20 -20 -20 -20
-4 -20 -20 -20 -20 -20 -20 -20 -20 -20 -9 -5 28 11 16 22 19 24 35 36 26 25 3 -12 8 32 37 19 38 28 22 38 38 26 16 24 18 -2 -10 -13 -20 2 -6 -20 4 7 -2 8 -20 -20 -20 -20 -20 -20
-20 -20 -20 -20 -20 -20 -20 -18 -1 8 20 32 26 25 12 2 5 32 34 21 25 13 20 10 -6 33 39 27 6 -11 -12 -9 -11 -20 -20 -20 -20 -20 -20 -20 -20 -20 -20 -9 -20 4 5 -8 -20 -20 -20 -20 -20 -19
-16 -20 -20 -20 5 14 15 24 25 27 35 25 19 27 29 40 25 15 7 9 6 -8 -8 10 15 23 33 32 22 17 21 8 -20 -20 -20 -20 -20 -20 -20 -20 -20 -20 -18 -15 -20 15 -1 -20 -20 -20 -20 -20 -20 -20
12 8 10 -3 9 19 30 21 29 38 25 9 14 29 20 22 23 18 16 6 -6 6 3 12 8 -20 -20 12 8 -20 -20 -19 -20 -20 -20 -20 -20 -20 -20 -20 -18 3 28 36 17 -5 5 -14 -19 1 -5 -20 -20 -12
-3 -1 9 13 33 17 26 29 34 41 30 29 28 9 2 4 9 7 6 -19 -9 8 -12 -20 -4 -4 -7 -20 -20 -10 -13 -17 -17 -20 -20 -13 -10 -11 -17 -6 9 1 -7 -16 -15 -5 6 13 3 -20 -20 -8 -5 -17
28 29 23 32 32 30 28 31 23 9 -15 -14 -13 -16 -18 -6 7 15 14 4 5 -0 -3 -4 -0 -15 12 12 -14 -6 -20 -19 -15 -14 -14 -15 -17 0 -6 -12 -15 -5 -10 5 11 14 12 -0 -19 -20 -20 -20 -20 -20
25 7 27 25 22 20 25 32 8 -20 -20 -20 -1 11 -13 -15 -13 -5 13 21 12 16 -19 -3 -11 9 7 -14 -9 8 5 3 2 9 17 1 2 1 11 13 11 10 7 -11 -12 8 -8 -13 -20 -20 -20 -20 -20 -20
35 35 28 23 26 26 17 22 20 -5 4 12 9 13 2 -8 -16 -18 -15 11 14 12 -5 -12 -18 -18 -17 -18 -10 3 13 18 20 20 19 26 29 28 28 17 19 -13 -16 7 7 -8 -20 -20 -20 -20 -20 -20 -20 -20
-20 -20 -20 -5 1 16 20 16 2 -16 -8 -9 -10 -1 -6 -4 6 8 5 6 3 9 1 9 9 9 12 14 15 13 14 12 16 16 13 21 29 29 29 24 14 14 10 -2 -2 -6 -15 -20 -20 -20 -20 -20 -20 -20
-20 -20 -20 -20 -18 5 -14 4 -20 -1 2 18 6 -16 -18 -20 -20 -20 -17 -17 -5 -10 10 12 12 14 14 15 16 16 16 17 15 10 9 8 11 11 12 11 6 8 2 1 1 -7 -6 -3 2 5 5 4 4 -4
-20 -20 -20 -20 -20 -20 -12 7 3 10 3 6 2 -10 -15 -20 -20 -20 -20 -20 -17 4 9 12 12 12 11 11 11 12 11 12 14 5 -3 -16 1 -6 2 5 4 8 8 10 7 9 8 7 -1 -2 2 3 -0 -2
-20 -20 -20 -20 -20 -20 -20 -20 -20 -12 -20 -20 -20 -20 -20 -20 -20 -20 -20 -20 -5 2 3 -4 -4 -5 -10 -18 -20 -20 -10 -19 -17 -9 -10 -5 -3 0 2 9 7 10 12 14 12 9 6 6 1 -15 -17 -11 -12 -20
-20 -20 -20 -20 -20 -20 -20 -20 -20 -20 -20 -20 -20 -20 -20 -20 -20 -20 -20 -5 -4 8 -9 -20 -20 -20 -20 -20 -20 -20 -20 -20 -20 -20 -18 -17 -16 -9 -7 1 5 2 -0 -2 -13 -20 -20 -20 -20 -20 -20 -20 -20 -20
-20 -20 -20 -20 -20 -20 -20 -20 -20 -20 -20 -20 -20 -20 -20 -20 -20 -20 -19 -20 6 4 -19 -20 -20 -20 -20 -20 -20 -20 -20 -20 -20 -20 -20 -20 -20 -20 -20 -20 -20 -20 -20 -20 -20 -20 -20 -20 -20 -20 -20 -20 -20 -20
-20 -20 -20 -20 -20 -20 -20 -20 -20 -20 -20 -20 -20 -20 -19 -20 -20 -20 -20 -20 -20 -20 -20 -20 -20 -20 -20 -20 -20 -20 -20 -20 -20 -20 -20 -20 -20 -20 -20 -20 -20 -20 -20 -20 -20 -20 -20 -20 -20 -20 -20 -20 -20 -20
-20 -18 -20 -20 -20 -20 -20 -20 -20 -20 -20 -20 -20 -20 -20 -20 -20 -20 -20 -20 -20 -20 -20 -20 -20 -20 -20 -20 -20 -20 -20 -20 -20 -20 -20 -20 -20 -20 -20 -20 -20 -20 -20 -20 -20 -20 -20 -20 -20 -20 -20 -20 -20 -20
-20 -20 -20 -20 -20 -20 -20 -20 -20 -20 -20 -20 -20 -20 -20 -20 -20 -11 -20 -20 -20 -20 -20 -20 -20 -20 -20 -20 -20 -20 -20 -20 -20 -20 -20 -20 -20 -20 -20 -20 -20 -20 -20 -20 -20 -20 -20 -20 -20 -20 -20 -20 -20 -20
-20 -20 -20 -20 -20 -20 -20 -20 -20 -20 -20 -20 -20 -20 -20 -20 -20 -20 -20 -12 -20 -20 -20 -20 -20 -20 -20 -20 -20 -20 -20 -20 -20 -20 -20 -20 -20 -20 -20 -20 -20 -20 -20 -20 -20 -20 -20 -20 -20 -20 -20 -20 -20 -20
-20 -20 -20 -20 -20 -20 -20 -20 -20 -20 -20 -20 -20 -20 -20 -20 -20 -20 -9 -20 -20 -20 -20 -20 -20 -20 -20 -20 -20 -20 -20 -20 -20 -20 -20 -20 -20 -20 -20 -20 -20 -20 -20 -20 -20 -20 -20 -20 -20 -20 -20 -20 -20 -20
-20 -20 -20 -20 -20 -20 -20 -20 -20 -20 -20 -20 -20 -17 -20 -20 -12 -17 -20 -20 -20 -20 -20 -20 -20 -20 -20 -20 -20 -20 -20 -20 -20 -20 -20 -20 -20 -20 -20 -20 -20 -20 -20 -20 -20 -20 -20 -20 -20 -20 -20 -20 -20 -20
-20 -20 -20 -20 -14 -18 -20 -20 -20 -20 -20 -20 -20 -20 -20 -20 -20 -20 -20 -20 -20 -20 -20 -20 -20 -20 -20 -20 -20 -20 -20 -20 -20 -20 -20 -20 -20 -20 -20 -20 -20 -20 -20 -20 -20 -20 -20 -20 -20 -20 -20 -20 -20 -20
-20 -20 -20 -20 -18 -3 -20 -20 -20 -20 -20 -20 -20 -20 -20 -20 -20 -20 -20 -20 -20 -20 -20 -20 -20 -20 -20 -20 -20 -20 -20 -20 -20 -20 -20 -20 -20 -20 -20 -20 -20 -20 -20 -20 -20 -20 -20 -20 -20 -20 -20 -20 -20 -20
-20 -20 -20 -20 -20 -20 -20 -16 -17 -20 -20 -20 -20 -20 -20 -20 -20 -20 -20 -20 -20 -20 -20 -20 -20 -20 -20 -20 -20 -20 -20 -20 -20 -20 -20 -20 -20 -20 -20 -20 -20 -20 -20 -20 -20 -20 -20 -20 -20 -20 -20 -20 -20 -20

GFSWCAN_prec_radar_036.txt.gz
Reflectivity
2 -6 -17 -20 -5 12 8 19 30 34 30 21 18 7 -15 4 19 -20 -20 -10 16 30 3 18 21 -20 -20 -20 -20 -20 -8 12 -13 -20 -20 -20 -19 -20 -7 -20 -20 -20 -20 -20 -20 -20 -20 -20 -20 -20 -20 -20 -20 -20
-3 7 12 16 22 27 31 31 35 29 27 16 9 7 8 11 12 -20 -20 -20 2 42 -4 17 18 -20 -20 -20 -20 -20 -18 3 -20 -20 -20 13 -20 -13 -20 -20 -20 -20 -20 -20 -20 -20 -20 -20 -20 -20 -20 -20 -20 -20
31 27 30 26 29 35 34 35 28 23 23 23 25 18 9 14 14 -20 -20 -19 16 25 1 29 -9 -20 -20 -20 -20 -20 -20 -20 -20 -20 -20 11 12 -13 -20 -20 -20 -20 -20 -20 -20 -20 -20 -20 -20 -20 -20 -20 -20 -20
19 25 30 29 30 29 26 25 24 25 25 24 1 -2 23 9 -1 -20 -3 18 22 26 16 20 -20 -3 -20 -20 -20 -20 -20 -20 -20 10 -8 -20 7 -16 -20 -20 -20 -20 -20 -20 -20 -20 -20 -20 -20 -20 -20 -20 -20 -20
10 17 14 14 15 17 17 13 12 -7 -14 13 -10 -20 4 2 21 -20 -18 36 33 30 21 10 -15 26 -10 -20 -20 -20 -20 -20 -20 8 -13 -16 -8 16 -20 18 -20 -20 -20 -20 -20 -20 -20 -20 -20 -20 -20 -20 -20 -20
-9 19 8 12 -20 -20 -20 -20 -20 -20 14 19 20 21 -18 -20 8 12 17 29 14 27 9 38 -3 21 -20 -20 -0 -20 -20 -20 -20 -20 17 15 -20 9 -20 -20 -20 -1 -20 8 -20 -20 -20 -20 -20 -20 -20 -20 -20 -20
-20 8 -3 -14 -6 -16 -20 -20 -10 -0 -20 -20 -20 -14 -20 -20 20 3 23 7 -4 12 28 13 -20 -20 -8 22 16 6 -20 -1 -12 -16 20 10 13 7 10 -15 -20 -19 6 -19 -1 -19 -20 -20 -20 -20 -20 -20 -20 -20
-20 -20 -18 -7 -11 -19 -15 -17 1 -16 -20 -20 -20 -13 14 36 6 -6 1 23 18 12 10 -4 -11 -0 6 -4 17 15 -20 -20 1 -3 -14 13 15 -20 -19 -20 -20 -16 -11 -11 -12 -20 -16 -20 -20 -20 -20 -20 -20 -20
-20 -20 -13 9 11 27 -15 20 18 -20 -20 17 35 39 22 27 -12 -20 9 9 5 -18 -18 5 -9 26 28 23 23 24 -9 -5 -20 14 -17 13 -20 -14 -20 -20 -18 -20 -20 -19 -4 6 -20 -20 -20 -20 -20 -20 -20 -20
-20 -20 -20 -20 -16 14 11 26 29 21 36 21 -12 -20 -20 -20 -9 -20 26 21 15 12 7 35 20 12 -8 18 28 21 20 -2 -20 -20 -19 19 -20 -20 -20 6 -13 -20 -5 -19 6 -13 -19 -20 -20 -20 -20 -20 -20 -20
-20 -20 -20 -20 -20 -15 -20 -20 -20 -15 -18 -13 -15 -8 -14 -2 24 39 43 36 27 -6 -0 12 2 12 8 0 17 32 18 -15 -20 -20 -20 -20 -18 2 -15 -2 6 -6 5 -4 -20 -1 11 -4 -20 -20 -20 -20 -20 -20
-20 -20 -20 -20 -20 -20 -20 1 13 13 1 7 35 19 23 6 21 29 -0 23 11 -4 10 -18 -5 -20 7 19 25 40 0 25 17 5 -10 7 38 32 25 18 30 32 27 16 8 -12 -20 -20 -20 -20 -20 -14 14 18
-20 -20 -20 -20 -18 -4 5 21 22 0 28 22 32 25 -10 -20 -15 -1 5 20 20 -18 9 26 31 23 13 20 43 31 20 18 21 36 21 4 40 29 34 27 10 -18 -20 -20 -20 -20 -20 -20 12 7 23 30 21 -11
-17 -18 0 -13 -19 -12 9 19 36 38 27 12 21 -20 -3 1 15 14 18 16 18 17 25 26 22 6 20 33 35 32 28 22 20 14 -20 -13 5 14 15 8 -18 -20 -20 -19 -16 -3 21 21 27 27 22 18 -0 -13
-4 -16 -17 8 18 24 23 31 36 36 24 3 33 9 21 21 21 24 19 18 6 -1 14 16 11 -10 -6 8 24 10 -0 -5 -1 -8 13 17 15 16 14 23 18 -2 13 21 14 5 -0 7 10 8 8 5 8 -0
7 15 0 -4 12 18 28 36 39 -3 -16 15 21 19 18 20 16 16 13 5 18 23 15 4 22 10 7 -20 -18 2 15 -0 -5 6 11 23 15 14 13 8 6 13 10 -1 7 8 4 -9 -13 0 -6 -7 -11 -12
-20 -7 20 31 34 34 37 30 22 5 14 14 9 7 -5 -8 -6 -8 -13 10 19 9 5 -15 -9 -8 -18 -20 -20 -13 -6 7 15 16 16 20 19 17 13 8 6 -5 -4 6 1 2 4 7 10 8 0 -9 -10 -10
6 19 25 26 20 27 29 -1 -20 -20 -6 6 -2 3 -19 -18 -15 -16 1 5 -6 3 1 2 -16 -20 -20 -20 -17 -0 10 16 21 17 15 16 16 18 29 18 15 8 10 9 3 8 6 0 -3 -1 -9 -13 -19 -20
35 21 26 32 29 29 12 18 18 -8 9 1 3 -7 -17 -20 -20 -20 -20 -20 -18 -12 -18 -19 -19 -10 5 8 12 15 17 18 20 21 18 18 19 19 16 13 7 5 3 1 -3 -8 4 6 5 -1 -11 -13 -14 -20
13 13 21 30 24 24 16 19 3 -13 6 4 -4 -6 -20 -20 -20 -20 -20 -20 -18 -11 -10 -4 1 7 7 10 14 14 14 15 14 3 1 6 10 2 4 -2 -4 -5 -7 1 4 6 4 4 8 8 3 -9 -15 -10
-20 -7 -16 17 28 19 11 1 -16 -11 -20 3 -10 -20 -20 -20 -20 -20 -20 -20 -20 -20 1 10 9 9 9 10 11 13 10 10 1 -12 4 6 11 6 1 5 6 8 6 7 3 4 -10 -13 -10 -16 -15 -7 -10 -17
-20 -20 -20 -20 -20 -20 -20 -20 -20 -20 -20 -20 -20 -20 -20 -20 -20 -20 -20 -20 -8 3 4 1 5 9 9 0 2 -4 5 -12 -13 -17 -16 -13 -20 -20 -19 -7 -17 -15 -17 -15 -18 -18 -18 -17 -19 -20 -20 -20 -20 -20
-20 -20 -20 -20 -20 -20 -20 -20 -20 -20 -20 -20 -20 -20 -20 -20 -20 -20 -20 -15 -5 4 1 -0 -17 -20 -20 -20 -20 -20 -20 -20 -20 -20 -20 -20 -20 -20 -20 -20 -20 -20 -20 -20 -20 -20 -20 -20 -20 -20 -20 -20 -20 -20
-20 -20 -20 -20 -20 -20 -20 -20 -20 -20 -20 -20 -20 -20 -20 -20 -20 -20 -20 -20 -2 -12 -20 -20 -20 -20 -20 -20 -20 -20 -20 -20 -20 -20 -20 -20 -20 -20 -20 -20 -20 -20 -20 -20 -20 -20 -20 -20 -20 -20 -20 -20 -20 -20
-20 -20 -20 -20 -20 -20 -20 -20 -20 -20 -20 -20 -20 -20 -20 -20 -20 -20 -20 -20 -20 -20 -20 -20 -20 -20 -20 -20 -20 -20 -20 -20 -20 -20 -20 -20 -20 -20 -20 -20 -20 -20 -20 -20 -20 -20 -20 -20 -20 -20 -20 -20 -20 -20
-20 -20 -20 -20 -20 -20 -20 -20 -20 -20 -20 -20 -20 -20 -20 -20 -20 -20 -20 -20 -20 -20 -20 -20 -20 -20 -20 -20 -20 -20 -20 -20 -20 -20 -20 -20 -20 -20 -20 -20 -20 -20 -20 -20 -20 -20 -20 -20 -20 -20 -20 -20 -20 -20
-20 -20 -20 -20 -20 -20 -20 -20 -20 -20 -20 -20 -20 -20 -20 -20 -20 -20 -20 -20 -20 -20 -20 -20 -20 -20 -20 -20 -20 -20 -20 -20 -20 -20 -20 -20 -20 -20 -20 -20 -20 -20 -20 -20 -20 -20 -20 -20 -20 -20 -20 -20 -20 -20
-20 -20 -20 -20 -20 -20 -20 -20 -20 -20 -20 -20 -20 -20 -20 -20 -20 -20 -20 -20 -20 -20 -20 -20 -20 -20 -20 -20 -20 -20 -20 -20 -20 -20 -20 -20 -20 -20 -20 -20 -20 -20 -20 -20 -20 -20 -20 -20 -20 -20 -20 -20 -20 -20
-20 -20 -20 -20 -20 -20 -20 -20 -20 -20 -20 -20 -20 -20 -20 -20 -20 -20 -20 -20 -20 -20 -20 -20 -20 -20 -20 -20 -20 -20 -20 -20 -20 -20 -20 -20 -20 -20 -20 -20 -20 -20 -20 -20 -20 -20 -13 -20 -20 -20 -20 -20 -20 -20
-20 -20 -20 -20 -20 -20 -20 -20 -20 -20 -20 -20 -15 -18 -20 -20 -18 -19 -20 -20 -20 -20 -20 -20 -20 -20 -20 -20 -20 -20 -20 -20 -20 -20 -20 -20 -20 -20 -20 -20 -20 -20 -20 -20 -20 -20 -20 -20 -20 -20 -20 -20 -20 -20
-20 -20 -20 -20 -20 -20 -20 -20 -20 -20 -20 -20 -20 -20 -20 -20 -20 -20 -20 -20 -20 -20 -20 -20 -20 -20 -20 -20 -20 -20 -20 -20 -20 -20 -20 -20 -20 -20 -20 -20 -20 -20 -20 -20 -20 -20 -20 -20 -20 -20 -20 -20 -20 -20
-20 -20 -20 -20 -20 -20 -20 -20 -20 -20 -20 -20 -20 -20 -20 -20 -20 -20 -20 -20 -20 -20 -20 -20 -20 -20 -20 -20 -20 -20 -20 -20 -20 -20 -20 -20 -20 -20 -20 -20 -20 -20 -20 -20 -20 -20 -20 -20 -20 -20 -20 -20 -20 -20
-20 -20 -20 -20 -20 -20 -20 -20 -20 -20 -20 -20 -20 -20 -20 -20 -20 -20 -20 -20 -20 -20 -20 -20 -20 -20 -20 -20 -20 -20 -20 -20 -20 -20 -20 -20 -20 -20 -20 -20 -20 -20 -20 -20 -20 -20 -20 -20 -20 -20 -20 -20 -20 -20

GFSWCAN_prec_radar_039.txt.gz
Reflectivity
-10 -13 -7 -20 16 21 19 13 9 4 5 23 34 31 13 12 22 -14 -11 -8 5 29 -2 11 -5 18 -13 -20 -20 -20 -20 -18 9 -4 -20 -20 -20 -20 -20 -20 -20 -20 -20 -20 -20 -20 -20 -20 -20 -20 -20 -20 -20 -20
17 2 15 -4 10 11 10 10 -3 13 14 25 30 31 18 11 28 -2 20 -20 -20 -19 30 11 22 14 13 -11 -20 -20 -20 -20 -19 -18 -20 -20 -20 -20 -20 -20 -20 -20 -20 -20 -20 -20 -20 -20 -20 -20 -20 -20 -20 -20
25 27 20 4 -4 17 -18 7 10 16 19 33 33 25 20 23 29 12 12 -13 -20 -5 -1 -15 -20 -20 17 -20 -20 -20 -20 -20 -20 -20 -20 -20 -20 -20 -20 -20 -20 5 4 -19 -20 -20 -20 -20 -20 -20 -20 -20 -20 -20
27 28 29 22 8 8 7 12 22 13 26 30 19 9 19 26 23 18 6 -20 -20 4 4 8 32 23 -3 -11 -20 -20 -20 -20 -20 -20 -20 -20 -20 -20 -20 -20 -11 2 9 -20 -20 -20 -20 -20 -20 -20 -20 -20 -20 -20
16 22 32 30 28 28 24 27 32 34 30 31 25 30 27 28 32 17 -13 -20 -20 5 24 -0 -2 34 22 17 -16 -20 -20 -20 -20 -20 -20 -20 -20 -20 -20 -20 -20 -20 -20 -18 -20 -3 -20 -20 -20 -20 -20 -20 -20 -20
-9 13 16 13 19 28 18 18 22 20 20 27 28 24 9 12 -13 -20 13 -19 21 18 30 24 -18 -16 -8 -18 -5 14 -20 -20 -20 -20 -20 -20 -20 -20 -20 -20 -20 -20 9 4 7 9 -4 -20 -20 -20 -20 -20 -20 -20
-10 -14 -16 -2 1 -4 5 15 16 14 17 12 -6 -0 -20 -2 -20 20 7 -17 5 24 17 -20 -20 -20 -20 24 22 23 8 -20 -20 -20 -20 -20 -20 -20 -20 -20 -20 -20 -20 15 3 -4 1 -19 -20 -20 -20 -20 -20 -20
-20 -13 -20 -20 -20 -15 -20 -20 -20 -20 -20 -20 -20 -20 -20 -0 5 10 22 1 9 30 8 7 7 36 20 25 26 5 -10 -20 -20 -20 -20 -20 -20 -20 -20 -20 -20 -20 -20 -10 -11 -9 -14 21 6 -20 -13 -20 -20 -20
-9 14 15 -20 -20 -12 -20 -20 -20 -20 -20 -20 -18 9 23 21 22 -19 13 -17 -19 13 7 18 31 29 12 24 21 25 23 18 -20 -20 -20 -4 -19 -20 -20 -20 -20 -20 6 5 20 6 -15 -15 -20 -20 -20 -20 -20 -20
-20 -3 -3 7 -20 -20 -20 -20 -20 -20 -20 16 -2 27 28 1 2 -19 -19 24 23 18 17 18 20 23 -20 -20 -0 14 34 6 -19 -20 -20 -20 -20 -20 -20 -20 -20 -20 -14 11 -2 7 -4 1 -20 -20 -20 -20 -20 -20
-4 0 15 13 1 -20 -20 -20 -20 -17 9 17 27 3 -13 -16 15 -20 25 31 15 2 -20 -20 -1 30 -0 -6 -20 15 40 19 3 2 -11 -20 -20 -20 -20 -20 -20 -20 -20 -20 -20 -20 -20 -9 1 -18 2 -14 5 1
-9 3 -9 17 18 16 -12 -3 18 21 20 -20 -20 2 22 14 1 -1 15 1 -3 -1 -20 -17 -14 -10 -6 -20 -20 -15 -13 18 -6 -20 -20 -20 -20 -20 -20 -20 -4 1 -20 -20 -20 -20 -5 28 28 13 13 -15 -3 13
-20 -20 -20 12 13 12 23 31 29 -1 15 23 -13 20 -20 0 6 18 30 25 18 4 1 -6 -4 7 -1 -20 -20 -20 5 21 24 -16 -18 -6 -13 -20 -20 -20 -13 20 36 22 24 10 29 28 19 8 10 11 15 21
-20 -20 -20 -20 4 14 29 30 -13 18 39 23 29 16 16 28 21 23 20 24 20 11 15 23 21 5 17 23 29 30 27 30 23 -9 9 18 30 30 28 34 35 29 34 34 38 35 27 18 18 15 14 15 15 19
-5 -5 -18 -20 -15 14 26 25 23 32 39 27 9 13 17 8 11 19 22 23 25 25 29 37 33 20 24 17 20 25 21 19 16 16 18 19 26 28 22 16 16 20 21 20 15 15 15 11 8 15 17 17 14 8
12 21 9 -16 -20 -19 0 23 17 9 34 3 -5 5 16 21 20 20 13 5 20 19 16 21 23 -10 -4 -1 7 14 14 20 24 21 17 19 16 19 17 12 14 17 14 11 11 10 10 14 14 12 1 0 5 -8
8 22 17 11 2 -20 -19 8 18 11 21 13 18 14 17 17 16 17 18 11 -9 -9 -20 -20 -18 -18 0 -10 -20 -14 4 12 19 22 20 15 12 12 16 16 12 2 1 13 16 15 6 4 0 1 -11 -15 -11 -16
-2 -2 5 28 24 27 30 14 -20 -20 9 10 3 15 5 -2 -3 -17 -18 -20 -20 -12 -15 -18 -20 -17 -20 -20 -19 -6 4 13 16 17 17 14 13 14 14 6 2 3 9 12 10 11 12 13 12 8 2 1 2 1
31 26 30 29 27 6 3 22 4 -10 -11 5 9 -15 -20 -20 -20 -18 -20 -20 -20 -20 -20 -20 -20 -20 -17 -10 -2 4 9 11 13 17 15 15 15 16 15 12 12 10 6 3 1 2 1 2 5 7 8 5 6 6
37 34 32 30 23 29 19 4 -2 -17 -15 -20 -20 -20 -20 -20 -20 -20 -20 -20 -20 -20 -20 -20 -2 6 3 7 11 12 12 11 13 11 7 5 8 3 7 8 10 11 8 7 6 6 6 6 7 7 7 6 6 4
33 33 30 27 20 18 -11 -9 -20 -20 -20 -20 -20 -20 -20 -20 -20 -20 -20 -20 -20 -20 -3 2 -1 5 8 10 10 11 10 11 -7 -19 -1 -14 3 -13 -13 -1 -5 -9 -15 -11 -16 -7 -18 -15 -10 -18 -19 -20 -20 -20
8 7 7 -11 -16 -20 -20 -20 -20 -20 -20 -20 -20 -20 -20 -20 -20 -20 -20 -20 -15 5 5 -4 1 2 -0 -7 -2 -8 4 -17 -17 -15 -10 -10 -12 -13 -15 -7 -20 -20 -20 -18 -19 -19 -18 -19 -20 -20 -20 -20 -20 -20
-20 -20 -20 -20 -20 -20 -20 -20 -20 -20 -20 -20 -20 -20 -20 -20 -20 -20 -20 -16 -4 -0 2 -1 -4 -14 -20 -17 -20 -20 -20 -20 -20 -20 -20 -20 -20 -20 -20 -20 -20 -20 -20 -20 -20 -20 -20 -20 -20 -20 -20 -20 -20 -20
-20 -20 -20 -20 -20 -20 -20 -20 -20 -20 -20 -20 -20 -20 -20 -20 -20 -20 -20 -20 -2 -3 -20 -20 -20 -20 -20 -20 -20 -20 -20 -20 -20 -20 -20 -20 -20 -20 -20 -20 -20 -20 -20 -20 -20 -20 -20 -20 -20 -20 -20 -20 -20 -20
-20 -20 -20 -20 -20 -20 -20 -20 -20 -20 -20 -20 -20 -20 -20 -20 -20 -20 -20 -20 -20 -20 -20 -20 -20 -20 -20 -20 -20 -20 -20 -20 -20 -20 -20 -20 -20 -20 -20 -20 -20 -20 -20 -20 -20 -20 -20 -20 -20 -20 -20 -20 -20 -20
-20 -20 -20 -20 -20 -20 -20 -20 -20 -20 -20 -20 -20 -20 -20 -20 -20 -20 -20 -20 -20 -20 -20 -20 -20 -20 -20 -20 -20 -20 -20 -20 -20 -20 -20 -20 -20 -20 -20 -20 -20 -20 -20 -20 -20 -20 -20 -20 -20 -20 -20 -20 -20 -20
-20 -20 -20 -20 -20 -20 -20 -20 -20 -20 -20 -20 -20 -20 -20 -20 -20 -20 -20 -20 -20 -20 -20 -20 -20 -20 -20 -20 -20 -20 -20 -20 -20 -20 -20 -20 -20 -20 -20 -20 -20 -20 -20 -20 -20 -20 -20 -20 -20 -20 -20 -20 -20 -20
-20 -20 -20 -20 -20 -20 -20 -20 -20 -20 -20 -20 -20 -20 -20 -20 -20 -20 -20 -20 -20 -20 -20 -20 -20 -20 -20 -20 -20 -20 -20 -20 -20 -20 -20 -20 -20 -20 -20 -20 -20 -20 -20 -20 -20 -20 -20 -20 -20 -20 -20 -20 -20 -20
-20 -20 -20 -20 -20 -20 -20 -20 -20 -20 -20 -20 -20 -20 -20 -20 -20 -20 -20 -20 -20 -20 -20 -20 -20 -20 -20 -20 -20 -20 -20 -20 -20 -20 -20 -20 -20 -20 -20 -20 -20 -20 -20 -20 -20 -20 -11 -20 -20 -20 -20 -20 -20 -20
-20 -20 -20 -20 -20 -20 -20 -20 -20 -20 -20 -20 -15 -18 -20 -20 -20 -20 -20 -20 -20 -20 -20 -20 -20 -20 -20 -20 -20 -20 -20 -20 -20 -20 -20 -20 -20 -20 -20 -20 -20 -20 -20 -20 -20 -20 -20 -20 -20 -20 -20 -20 -20 -20
-20 -20 -20 -20 -20 -20 -20 -20 -20 -20 -20 -20 -20 -20 -20 -20 -20 -20 -20 -20 -20 -20 -20 -20 -20 -20 -20 -20 -20 -20 -20 -20 -20 -20 -20 -20 -20 -20 -20 -20 -20 -20 -20 -20 -20 -20 -20 -20 -20 -20 -20 -20 -20 -20
-20 -20 -20 -20 -20 -20 -20 -20 -20 -20 -20 -20 -20 -20 -20 -20 -20 -20 -20 -20 -20 -20 -20 -20 -20 -20 -20 -20 -20 -20 -20 -20 -20 -20 -20 -20 -20 -20 -20 -20 -20 -20 -20 -20 -20 -20 -20 -20 -20 -20 -20 -20 -20 -20
-20 -20 -20 -20 -20 -20 -20 -20 -20 -20 -20 -20 -20 -20 -20 -20 -20 -20 -20 -20 -20 -20 -20 -20 -20 -20 -20 -20 -20 -20 -20 -20 -20 -20 -20 -20 -20 -20 -20 -20 -20 -20 -20 -20 -20 -20 -20 -20 -20 -20 -20 -20 -20 -20

GFSWCAN_prec_radar_042.txt.gz
Reflectivity
24 5 -20 -20 10 -8 -20 22 23 22 15 19 -6 -17 21 36 30 6 5 -14 -11 23 23 -2 -20 23 19 18 21 -20 5 13 -20 -20 -20 -20 -20 -20 -18 -18 -20 -20 -20 -20 -20 -20 -20 -11 -20 -20 -20 -20 -20 -20
10 -20 -20 -16 12 13 32 14 9 14 12 -17 4 0 29 35 34 14 1 5 21 19 5 -7 -16 2 29 -12 -20 22 -20 -20 -20 -20 -20 -20 -16 -20 -18 -20 -20 -16 -18 -20 -20 -20 -20 -20 -20 -20 -20 -20 -20 -20
9 -4 12 7 12 6 13 13 -5 7 -20 1 -16 10 31 34 28 7 9 9 -20 -18 -19 3 5 27 12 6 -20 -14 -20 -20 -20 -20 -20 -18 -20 -20 -20 -20 0 -20 -1 -12 -17 -20 -20 -20 -20 -20 -20 -20 -20 -20
18 -2 12 0 18 20 17 12 -13 -16 -2 9 13 28 33 35 33 6 -3 -20 1 -20 1 -3 -20 -10 30 20 -20 -20 -20 -20 -18 -20 -20 -6 -19 -20 -13 -20 -18 -12 -3 -20 -20 -20 -20 -20 -20 -20 -20 -20 -20 -20
27 1 -19 7 19 22 10 13 4 9 19 12 27 32 35 30 13 -6 -15 10 1 -10 5 -20 -20 5 18 4 -12 -7 -20 -5 -20 -17 -20 -20 -20 -20 -20 -20 -20 -20 -20 -20 -20 -13 11 -2 -20 -20 -20 -20 -20 -20
27 26 18 -8 3 19 14 15 24 21 18 31 31 33 30 22 2 -19 27 -4 -17 -20 -18 14 20 -12 -11 -20 -20 -20 -20 -20 -7 1 11 -20 -20 -20 -20 -20 -20 -20 -20 -20 -20 -16 -2 -15 -2 -20 -20 -20 -20 -20
18 27 32 22 25 23 20 23 23 18 25 23 22 26 21 5 -6 21 -2 -5 -20 -20 -15 1 5 16 21 16 28 20 10 -12 -19 14 17 -1 -3 -19 -20 -20 -20 -18 -20 -20 -20 -20 -20 -18 6 -2 1 -20 -20 -20
-20 7 17 18 12 21 19 7 11 12 12 24 23 27 27 20 5 -5 -2 -20 -20 -20 -3 21 4 24 22 26 26 25 26 26 21 3 -20 4 -3 -17 8 -20 -14 -3 -20 -15 -20 -20 -20 -6 -6 -20 -20 -14 -16 -20
-20 -20 -15 8 23 22 1 20 28 30 27 12 18 12 5 -7 -0 18 -3 -2 -20 18 24 4 -2 8 18 -16 20 21 19 15 9 -11 19 18 13 9 -5 -20 -20 -20 -20 2 1 -13 -20 -20 -20 -20 -20 -17 -4 -7
-20 -20 -20 -17 6 7 -17 3 -3 -20 -20 -20 -20 -7 -19 -4 27 28 23 24 17 19 20 -19 -19 31 28 24 19 16 21 23 11 8 -4 -16 11 -20 -20 -20 -20 -20 -20 -20 -20 -20 -20 -20 9 17 -0 -12 -20 -20
-20 -20 -20 -20 -0 -20 -20 -20 -20 -20 -20 -10 0 -6 6 -20 22 20 -8 33 26 -8 6 -0 16 22 35 5 -7 19 27 6 18 5 2 -9 -11 -20 -20 -20 -20 -20 -20 -20 -20 -20 -20 -20 -20 -20 -20 -20 -20 -20
8 -20 -20 -20 -20 -20 -20 -20 -20 -4 14 28 22 8 20 -9 9 -8 -15 27 18 -11 2 25 28 17 38 19 -8 -19 -1 27 35 -4 8 5 3 -18 -20 -2 -20 -20 -20 -20 -20 -20 -20 -20 -20 -20 -20 -20 -14 17
10 -20 -20 -20 -20 -20 -20 6 22 13 23 28 26 -13 11 -9 18 -1 15 5 2 -1 -2 7 24 8 -16 -20 -20 -20 6 12 17 5 8 11 9 -9 -20 -20 -17 -20 -20 -20 -20 -20 -20 -20 -6 -19 -17 2 20 20
-13 12 6 10 25 29 22 28 -3 10 -20 -20 12 -13 15 -17 7 5 1 -2 6 6 -9 3 4 -10 -2 -19 7 23 24 24 21 15 11 9 14 5 23 23 1 4 8 9 4 16 16 22 30 31 28 25 23 24
-20 5 24 30 33 11 -20 -20 -20 -20 -2 19 10 -1 9 19 16 16 21 13 9 6 9 0 -1 14 19 28 18 29 13 7 1 0 1 -2 16 17 20 23 24 23 21 17 9 18 24 26 26 24 19 20 18 16
-14 -20 -7 -13 -13 7 -6 22 28 21 27 8 5 17 15 19 23 24 25 23 25 25 36 36 31 27 20 17 11 7 1 -11 -1 5 14 16 18 20 20 19 20 20 15 16 19 19 12 -1 2 12 14 13 15 14
-20 -20 12 -20 -20 -13 6 21 30 23 7 5 18 21 24 25 25 25 25 22 23 27 18 18 6 -2 -0 2 -11 -5 4 10 14 15 18 21 21 20 18 10 1 -8 -3 -3 -0 1 3 8 7 8 9 13 11 6
11 -13 -20 -20 -13 0 7 24 17 17 10 17 13 18 16 13 15 10 10 7 -16 -7 -6 -18 -20 -20 -17 -18 -14 4 8 13 15 18 19 19 20 20 20 16 10 8 11 13 10 8 7 8 7 8 7 3 -7 -11
17 24 26 25 13 -5 10 10 -4 -3 3 3 -10 -11 -13 -2 -15 -20 -20 -20 -20 -20 -20 -20 -20 -20 -2 -2 -1 0 1 5 5 11 11 14 14 13 12 9 8 5 -2 4 3 -2 -3 -8 -1 -1 -1 -5 -9 -0
30 29 27 27 13 17 9 12 10 -10 -12 -20 -20 -20 -16 -20 -20 -20 -20 -20 -20 -20 -20 -20 -0 4 3 5 3 -1 -12 -4 2 1 1 1 7 5 3 0 0 3 -13 -17 -20 -19 -20 -20 -20 -20 -17 -15 -20 -6
25 23 21 16 12 19 16 -6 -2 -17 -20 -6 -20 -20 -20 -20 -20 -20 -20 -20 -20 -20 2 7 4 4 2 4 3 3 2 6 -2 -13 -0 -10 1 -13 -18 -3 -3 -6 -18 -10 -20 -20 -20 -20 -20 -20 -3 -1 -1 -1
22 12 11 14 14 11 8 -19 -12 -20 -20 -20 -18 -20 -20 -20 -20 -20 -20 -20 -4 9 8 4 4 -2 -16 -15 -6 -4 -9 -20 -20 -20 -20 -18 -19 -20 -20 -20 -20 -20 -20 -20 -20 -20 -20 -20 -20 -20 -20 -20 -20 -20
-16 -15 -20 -20 -20 -20 -20 -20 -20 -20 -20 -20 -20 -20 -20 -20 -20 -20 -20 -4 1 5 7 2 -3 -12 -4 -12 -20 -20 -20 -20 -20 -20 -20 -20 -20 -20 -20 -20 -20 -20 -20 -20 -20 -20 -20 -20 -20 -20 -20 -20 -20 -20
-20 -20 -20 -20 -20 -20 -20 -20 -20 -20 -20 -20 -20 -17 -20 -20 -20 -20 -6 -1 4 0 -9 -17 -3 -20 -20 -20 -20 -20 -20 -20 -20 -20 -20 -20 -20 -20 -20 -20 -20 -20 -20 -20 -20 -20 -20 -20 -20 -20 -20 -20 -20 -20
-20 -20 -20 -20 -20 -20 -20 -20 -20 -20 -20 -20 -20 -3 -20 -20 -20 -20 -17 -0 -2 -2 -2 -11 -20 -20 -20 -20 -20 -20 -20 -20 -20 -20 -20 -20 -20 -20 -20 -20 -20 -20 -20 -20 -20 -20 -20 -20 -20 -20 -20 -20 -20 -20
-20 -20 -20 -20 -20 -20 -20 -20 -20 -20 -20 -20 -20 -20 -20 -20 -20 -14 -3 2 -1 -3 -7 -1 -1 -20 -20 -20 -20 -20 -20 -20 -20 -20 -20 -20 -20 -20 -20 -20 -20 -20 -11 -6 -7 -20 -20 -20 -20 -20 -8 -3 -15 -8
-20 -20 -20 -20 -20 -20 -20 -20 -20 -20 -20 -20 -20 -20 -20 -20 -20 -0 1 -12 -20 -20 -20 -20 -11 -20 -20 -20 -20 -20 -20 -20 -20 -20 -20 -20 -20 -20 -20 -20 -20 -9 -2 -20 -10 -9 -8 -19 -20 -20 -4 -4 -4 -4
-20 -20 -20 -20 -20 -20 -20 -20 -20 -20 -20 -20 -20 -20 -20 -20 -9 1 -1 -20 -20 -20 -20 -20 -20 -20 -20 -20 -6 -6 -20 -20 -20 -20 -20 -20 -20 -18 -19 -3 -20 -18 -19 -20 -1 -1 -0 -4 -20 -20 -20 -20 -20 -20
-20 -20 -20 -20 -20 -20 -20 -20 -20 -20 -20 -20 -20 -20 -4 -4 -2 1 -0 -3 -20 -20 -20 -20 -20 -20 -20 -20 -20 -20 -20 -20 -20 -20 -20 -20 -20 -18 -3 -9 -5 -20 -20 -20 -19 -15 -2 -1 -3 -20 -20 -20 -20 -20
-20 -20 -20 -20 -20 -20 -20 -4 -20 -20 -20 -8 -20 -18 -20 -10 -3 -10 -0 -1 -20 -20 -20 -20 -20 -20 -20 -20 -20 -20 -20 -20 -20 -20 -20 -20 -14 -18 -20 -20 -20 -20 -20 -20 -20 -20 -20 -20 -20 -20 -20 -20 -20 -20
-20 -20 -20 -20 -20 -20 -20 -20 -20 -20 -20 -20 -20 -20 -9 -6 -20 -20 -20 -20 -20 -20 -20 -20 -20 -20 -20 -20 -20 -20 -20 -20 -20 -20 -20 -20 -20 -4 -8 -20 -20 -20 -20 -20 -20 -20 -20 -20 -20 -20 -20 -20 -20 -20
-20 -20 -20 -20 -20 -20 -20 -20 -20 -20 -20 -20 -20 -20 -20 -20 -19 -17 -20 -20 -20 -20 -20 -20 -20 -20 -20 -20 -20 -20 -20 -20 -20 -20 -20 -20 -3 -2 -10 -20 -20 -20 -20 -20 -20 -20 -20 -20 -20 -20 -20 -20 -20 -20
-20 -20 -20 -20 -20 -20 -20 -20 -20 -20 -20 -20 -20 -20 -20 -20 -20 -20 -20 -20 -20 -20 -20 -20 -20 -20 -20 -20 -20 -20 -20 -20 -20 -20 -20 -20 -20 -20 -20 -20 -20 -20 -20 -20 -20 -20 -20 -20 -20 -20 -20 -20 -20 -20

GFSWCAN_prec_radar_045.txt.gz
Reflectivity
20 1 -9 -20 -7 -16 -20 11 6 9 21 18 17 21 15 -9 12 34 38 21 -8 16 -11 12 22 -9 -14 -16 18 -8 21 18 21 24 -12 -20 -20 -20 -20 -20 -8 6 -5 -17 6 2 -14 -19 -4 -17 -20 -20 -20 -20
2 11 -20 -20 -20 0 -20 23 5 24 23 14 15 26 9 -20 26 37 26 -2 14 23 17 31 -4 21 10 -1 -20 -20 29 5 -20 9 -5 -20 -20 4 -20 -20 3 13 17 23 -20 -20 -20 -3 -5 -20 -20 -20 -20 -20
11 -20 -20 -20 -8 10 17 -11 18 6 3 20 32 13 10 -17 27 15 36 16 22 24 30 20 3 -20 12 11 -9 26 3 -8 -20 -20 -20 -20 -18 -20 -6 -17 1 -9 12 12 14 -13 -20 -2 4 -20 -20 -20 -20 -20
-14 -20 -20 -20 -2 12 18 13 13 18 17 15 12 -3 6 13 25 32 13 19 18 23 24 20 -20 -20 -20 21 24 7 33 -3 2 -20 1 -5 -20 -20 4 -20 -5 12 -16 -20 -20 -20 -20 -20 -15 6 -18 -20 -20 -20
-20 -2 -11 10 -20 1 1 2 -8 -20 7 -16 -0 3 16 29 34 19 9 12 24 8 15 -6 -20 -20 10 -11 25 -8 14 16 21 7 15 18 -20 -20 -20 -20 -20 -20 -20 -20 -20 -20 8 -8 20 15 -19 -20 -20 -20
9 -20 19 6 -20 -19 -20 -2 -20 -20 -20 -13 8 33 29 30 20 22 34 29 22 24 -20 7 16 1 -6 -0 21 -18 20 20 20 -20 17 -20 -20 -20 -20 -20 -20 -20 -20 -20 -20 -7 8 -2 -10 7 5 -4 -20 -20
20 -2 -1 -16 5 13 -11 12 16 17 26 31 27 25 18 12 12 22 23 7 -4 -20 -20 -20 8 -13 -18 12 11 -11 4 -8 20 22 0 16 -20 -20 -20 -20 -20 -20 -20 -20 -3 -2 -17 -20 -20 -6 -17 -20 -18 -12
0 20 23 17 16 13 21 18 22 24 25 19 17 21 27 31 25 15 2 -20 -20 -11 -20 -16 15 -2 -3 4 18 20 24 22 19 18 -2 11 -7 13 10 -20 -20 -20 -20 -14 -7 -20 -20 -20 -20 -20 -5 -9 -19 4
15 15 15 13 15 18 -0 7 16 13 16 19 24 27 17 23 24 9 -6 -20 -20 13 3 -14 18 15 -0 6 15 18 30 21 18 5 15 11 3 16 10 -20 -20 -20 -20 -20 -20 -14 -20 -20 -20 -17 0 3 3 -20
19 13 15 18 -16 -19 12 16 11 14 8 7 9 17 -3 7 -17 -20 -20 17 9 -20 -10 20 5 15 35 42 30 28 28 23 5 -1 14 21 5 -20 -20 -20 -20 -20 -20 -20 -20 -20 -20 -20 -20 -20 -20 -19 -20 -20
2 8 7 -2 2 -6 -16 -13 -20 -20 -20 -15 -4 11 18 23 21 32 18 13 23 20 -15 -5 20 31 25 30 36 5 -7 20 19 12 28 20 5 1 -3 0 -9 -20 -20 -20 -20 -20 -20 -20 -20 -20 -20 -20 -20 -20
-8 -20 -8 -20 -20 -20 -20 -20 -20 5 -8 -20 2 -14 16 22 21 -15 -1 -5 -1 -1 17 8 17 3 -13 30 29 5 38 23 2 5 18 -3 2 1 -2 -11 -20 -20 -20 -20 -10 0 -18 -20 -20 -20 -20 -20 -20 -20
-20 -20 -20 11 4 -14 -3 -15 10 15 -20 -4 -10 -13 22 -7 -10 -20 0 19 24 -1 14 23 30 24 27 37 28 -7 8 17 38 28 19 13 3 0 3 -3 -20 -20 -20 -20 -20 -20 -20 -20 -20 -20 -20 -20 -20 -17
-20 -20 -20 -20 -20 -20 -20 15 38 16 14 -13 9 -15 14 6 5 -2 0 15 28 19 12 25 32 45 32 18 33 30 16 11 8 10 10 6 9 6 2 1 -12 -9 0 5 5 8 4 -7 2 3 9 20 24 26
-20 -6 11 5 21 19 -3 -20 -7 -17 -20 -11 -20 -0 4 15 -1 2 4 2 5 4 21 16 30 25 1 4 -3 8 -6 1 2 7 6 4 13 10 13 13 13 13 15 18 20 21 19 21 21 19 18 18 17 17
-20 6 17 16 9 -16 -20 -20 -20 -20 1 5 4 1 4 15 9 -2 -1 -15 -3 -5 29 27 22 16 12 -2 -14 0 -7 0 7 8 11 15 16 16 14 13 16 16 15 18 21 20 17 15 14 16 15 13 15 14
-20 8 -20 -20 -20 -12 7 -0 -14 -5 5 9 11 17 11 4 10 6 5 2 22 24 11 15 2 1 8 12 15 11 15 13 10 10 13 16 17 16 15 13 14 13 13 15 16 17 18 18 16 14 12 12 9 9
-6 -14 -20 -20 -20 -12 5 -19 -2 8 10 15 13 14 17 18 18 20 20 18 20 23 26 25 20 15 11 16 15 12 13 12 13 14 15 15 15 16 17 17 16 16 14 14 15 17 18 17 14 11 7 8 4 3
1 -2 -19 -1 -5 -7 13 24 -1 6 15 14 17 20 18 18 20 18 16 15 17 16 11 2 5 4 3 4 10 9 12 9 10 11 9 9 9 12 13 11 8 3 5 9 10 8 7 5 2 5 5 -1 -1 8
15 11 15 16 7 2 3 15 9 -15 4 -1 -5 -5 1 2 -2 -1 -15 -6 -8 -12 -17 -8 3 7 6 5 3 1 4 12 3 -2 1 5 7 1 2 -0 2 -2 -18 -20 -15 -20 -20 -20 -8 -2 -2 -1 -1 0
28 23 18 -14 -20 4 2 12 4 -14 -20 7 9 -20 -3 -20 -20 -20 -20 -20 -20 -20 5 9 7 8 6 7 5 -2 -3 -15 -2 -1 0 -2 3 -2 -4 -4 -20 -20 -20 -20 -20 -20 -20 -20 -20 -20 -20 -20 -20 -9
19 14 -1 10 -4 3 -15 -20 -1 3 -20 -15 -20 -20 -20 -20 -20 -20 -20 -20 2 6 8 3 5 -2 -2 -0 -0 -7 -15 -20 -18 -20 -20 -20 -20 -20 -20 -20 -20 -20 -20 -20 -20 -20 -20 -20 -20 -20 -20 -4 -20 -20
-14 -16 -15 -14 -13 -19 -20 -20 -20 -15 -2 -12 -20 -20 -19 -17 -20 -20 -18 -0 6 11 3 0 -1 -3 -4 -20 -20 -20 -20 -20 -20 -20 -20 -20 -20 -20 -20 -20 -20 -20 -20 -20 -20 -20 -20 -20 -20 -20 -15 -20 -12 -2
-20 -20 -20 -20 -20 -20 -20 -20 -20 -20 -1 -7 -20 -19 -4 -17 -20 -20 -1 3 7 5 0 3 4 -20 -20 -20 -20 -20 -20 -20 -20 -20 -20 -20 -20 -20 -20 -20 -20 -20 -20 -20 -19 -10 -8 0 -18 -6 -4 -4 -20 -2
-20 -20 -20 -20 -20 -20 -20 -20 -2 -20 -3 -8 -7 -2 1 -20 -20 -4 -1 4 6 6 5 0 -3 -1 1 1 -20 -20 -20 -20 -20 -20 -20 -20 -1 -19 -20 -20 -20 -20 -20 -4 -2 -1 -3 -3 -3 -14 -20 -6 -20 -13
-20 -5 -15 -20 -17 -20 -20 -20 -20 -4 -4 -3 -1 -20 -1 -20 -20 -1 1 7 5 4 5 6 4 1 -8 -15 -18 -20 -20 -20 -20 -20 -20 -20 -20 -20 -20 -20 -20 -20 -20 -3 -2 -4 -20 -20 -20 -20 -15 -4 -16 -18
-20 -4 -9 -20 -10 -20 -20 -7 -20 -18 -4 -3 -2 -18 -20 -20 -10 2 3 6 1 2 0 3 -2 -3 -20 -20 -20 -20 -20 -20 -20 -20 -20 -20 -20 -20 -20 -20 -20 -16 -3 -5 -1 -2 -2 -4 -3 -4 -4 -3 -2 -4
-19 -20 -20 -20 -20 -20 -20 -20 -20 -6 -2 -11 -20 -20 -20 -12 -1 7 4 3 2 0 -1 -2 -4 -4 -4 -7 -3 -3 -20 -20 -20 -20 -20 -20 -20 -20 -20 -5 -20 -20 -9 -6 -2 -0 -0 -1 -1 -1 -2 -3 -4 -2
-20 -20 -20 -20 -20 -20 -18 -6 -2 -3 -5 -13 -20 -20 -2 -0 6 4 4 -0 2 1 0 -1 -0 -4 -18 -20 -8 -8 -20 -20 -20 -20 -20 -20 -20 -2 -2 -1 0 -0 -0 1 -17 -16 -4 -1 -3 -3 -18 -1 -0 0
-20 -8 -20 -20 -20 -16 -1 2 1 1 -4 -9 -20 -18 0 2 1 6 2 2 3 3 1 1 1 3 2 2 1 -9 -20 -20 -20 -20 -16 -16 -3 -3 -1 1 1 1 0 -0 -1 -2 -17 -6 -5 -2 -3 -11 -2 -20
-7 -20 -20 -20 -13 5 4 0 0 -2 -3 0 -6 -10 -0 2 1 -0 1 0 -2 -2 -0 -1 -3 1 -0 -9 -4 -20 -11 -2 -20 -20 -20 -6 -3 1 1 0 1 1 2 0 -2 -2 -13 -20 -2 -4 -12 -20 -20 -20
-20 -20 -20 -20 -3 -0 -18 3 -0 -1 -1 -0 1 -2 2 2 -1 1 -0 2 2 2 -19 0 1 0 -5 -20 -20 -20 -20 -20 -5 -8 -20 -4 0 0 1 0 0 0 0 -3 -2 -2 -14 -20 -20 -20 -20 -20 -20 -20
-20 -20 -20 -20 -20 -3 -1 -6 -17 -4 -2 -4 -0 -1 -4 -0 -3 -3 -17 -6 -5 0 -0 -3 -2 -3 -20 -20 -20 -9 -20 -13 -20 -19 -20 -20 -20 -20 -20 -2 0 -3 -3 -4 -4 -3 -19 -20 -20 -20 -20 -20 -20 -20

GFSWCAN_prec_radar_051.txt.gz
Reflectivity
-14 17 27 4 -20 -19 14 17 -8 -1 12 18 18 25 15 11 11 22 38 25 33 42 22 -4 5 -20 -20 -20 -20 -20 -20 -20 -20 -20 -20 -20 -19 -20 -20 11 15 38 10 20 -11 10 -20 -20 -20 4 19 4 10 9
23 31 16 14 -19 12 10 6 -20 -19 6 8 -15 27 19 -12 15 22 29 24 31 34 31 12 13 -20 -20 -20 -20 -20 -20 -20 -20 -20 -20 -11 5 -20 -20 0 15 27 21 -4 -20 -19 -20 -20 -20 -10 -2 15 -0 -8
14 13 14 2 -20 -20 17 12 -6 2 16 -14 12 14 25 25 21 22 18 15 5 30 38 17 -20 -20 -20 -20 -20 -16 -20 -20 10 -20 -18 -13 26 18 7 -5 4 -1 -1 2 -20 -20 -20 4 -12 4 8 -6 -9 -20
17 14 -8 -19 1 13 12 -4 -5 16 13 17 14 17 15 28 29 22 12 5 -11 29 38 -6 31 -5 -20 -20 -12 -20 -20 -8 2 -20 24 -2 38 -7 -20 -20 -20 -20 -20 -20 -20 -20 12 8 6 -1 5 -5 3 -20
20 13 -12 7 8 -2 4 8 8 5 -14 26 23 14 15 14 26 17 -10 -11 16 31 18 11 16 -20 -20 -20 -16 -0 -20 19 -15 24 -8 20 6 14 -13 -17 -20 -20 -20 -20 -20 -20 3 -0 5 -20 -9 7 12 -10
15 -20 -20 -15 14 24 30 15 13 12 14 9 8 11 16 33 35 20 33 29 38 14 -20 -20 -20 -20 -8 9 25 -4 17 22 -19 2 13 -20 -1 -20 16 18 -20 -20 -20 -20 -20 -8 -19 -20 -20 -15 -1 10 26 20
-8 2 -20 -19 20 12 28 23 9 -2 -6 5 17 31 28 29 24 20 24 28 34 29 18 -9 -20 0 1 -16 7 -20 -20 -20 -20 -20 16 20 21 30 -20 10 17 -20 -20 -20 -12 1 -13 -20 -20 -20 -20 -18 1 7
-10 0 -20 -20 -13 14 12 12 13 24 20 24 29 29 36 37 28 22 8 15 13 -20 -16 -20 -20 -20 -13 -20 -20 -20 -20 -20 -20 -19 3 23 12 26 28 -15 -20 -20 -20 -20 -20 -20 -20 -20 -20 -20 -20 -20 -20 -20
-19 -20 -8 -15 -13 -9 6 16 20 24 28 33 35 18 10 15 9 14 19 -10 -20 -20 -20 -20 -20 -20 -20 -20 -20 -10 13 -16 -1 -20 -17 7 -2 17 25 -2 -20 -20 -20 -20 -20 -20 -20 -20 -20 -20 -20 -20 -20 -20
-2 12 24 1 7 9 10 14 8 11 17 20 21 15 17 24 2 1 1 27 23 -17 -20 -20 -20 -20 -20 -20 21 34 25 18 -18 -20 -17 33 36 27 12 6 26 1 10 -20 -20 -20 -20 -20 -20 -20 -20 -20 -20 -20
4 22 19 22 21 26 27 26 20 3 -20 -16 -5 22 26 19 -8 -20 -20 -20 -20 -20 -20 -20 -20 -20 -20 -20 -20 8 27 -10 -19 -7 -14 24 25 21 5 -10 15 21 -6 -17 -20 -20 -20 -20 -20 -20 -20 -20 -20 -20
12 18 14 22 25 28 28 29 19 5 -20 -20 8 7 -18 -20 -15 -20 -20 -20 -20 -20 -20 -13 -20 -20 -14 -20 -20 -20 21 10 6 1 25 25 11 -0 -14 -4 -16 -13 -6 6 23 15 15 -1 -20 -20 -20 -20 -20 -20
2 3 15 16 15 14 20 8 -20 -20 -20 -2 9 28 18 -20 -19 -20 -16 5 8 -2 8 -17 -20 -20 -20 -20 -20 -18 -19 14 13 23 14 13 1 0 1 -3 -4 -5 -17 -15 -18 -18 -12 2 -10 -20 -19 -8 3 4
-20 -20 -20 -20 -20 -20 -20 -20 -20 -20 -20 -20 -20 -20 -20 -20 -12 -18 8 1 -20 -18 -9 4 4 26 -4 -20 -20 -15 17 12 0 4 -1 4 4 4 5 1 -17 -3 5 5 -2 -12 -4 6 10 9 11 9 2 1
-20 -20 -20 -19 -12 -20 -20 -20 -20 -20 -20 -20 -20 -19 -20 11 -5 -8 10 5 -12 17 17 23 17 22 20 14 14 19 17 15 19 19 20 14 14 10 9 9 10 10 8 3 -0 -3 8 9 4 6 -1 -16 -18 -17
-20 -20 -20 -20 -20 -20 -20 -20 -20 -20 -20 -20 -20 -20 -20 -20 -20 -20 -17 -16 -13 11 4 -4 15 19 20 21 19 19 19 17 7 9 16 18 16 14 14 15 15 14 11 9 11 12 11 7 3 8 3 4 8 3
-20 -20 -20 -20 -20 -20 -16 -20 -20 -20 -20 -20 -20 -19 -20 -18 -19 -3 -10 -20 -14 -19 -20 -20 -12 0 -3 -20 -19 -20 -17 -1 -3 7 13 11 8 11 13 12 13 11 6 2 4 -1 2 1 -14 -18 -13 -4 -14 -12
-9 0 13 18 15 -20 -20 -20 -20 -20 -20 -8 -16 -1 6 -13 -19 0 -5 -16 -20 -20 -20 1 -17 -6 -2 -17 -19 -5 -14 -10 -8 2 2 3 1 0 -2 -2 3 -3 -14 -11 -12 -15 -14 -9 -10 -4 -3 1 -9 -10
8 5 22 25 -14 -20 -20 -20 -20 -20 -2 10 -0 -8 7 1 -0 -12 -13 1 -6 -7 2 12 10 13 14 17 16 15 14 12 14 17 16 15 15 13 10 6 -0 -10 -14 -12 -16 -16 -17 -20 -20 -20 -20 -20 -20 1
-6 -15 -2 16 -11 -20 -20 -20 -20 -20 7 6 3 7 11 11 4 3 10 6 9 -2 -20 -3 5 6 3 6 7 2 1 6 -4 -11 -4 -3 -4 -10 -11 -12 -4 -14 -17 -19 -19 -20 -20 -20 -20 -20 -20 -20 -20 -20
6 -17 -20 -16 12 8 -10 3 -9 -20 3 12 0 9 -6 -14 -11 -7 -8 -19 -20 -20 6 2 -7 0 -17 -0 -5 -20 -20 -20 -20 -20 -4 -4 0 -9 -20 -20 -20 -20 -20 -20 -20 -20 -20 -20 -20 -20 -20 -20 -20 -20
-20 -20 -20 -20 -16 -19 -20 -20 -10 -0 2 -0 -20 -6 -20 -20 -20 -20 -20 -20 -9 -16 -11 -20 -19 -20 -5 -6 -1 -20 -7 -20 -20 -20 -20 -20 -20 -20 -20 -17 -20 -20 -20 -20 -20 -20 -20 -20 -20 -20 -20 -20 -20 -20
-20 -20 -20 -20 -20 -20 -20 -20 -20 -2 -20 -6 -20 -20 -19 -20 -11 -20 -19 -7 9 -2 -1 -15 -1 -10 -20 -20 -20 -20 -20 -20 -20 -20 -20 -20 -20 -20 -20 -20 -20 -20 -20 -20 -20 -20 -20 -15 -20 -20 -20 -20 -20 -20
-20 -20 -20 -20 -20 -20 -20 -20 -20 -20 -20 -20 -20 -20 -20 -10 -20 -20 3 8 8 10 -0 -4 -20 -20 -20 -20 -20 -20 -20 -20 -20 -20 -20 -20 -20 -20 -20 -20 -20 -20 -20 -19 -20 -20 -20 -20 -20 -20 -20 -20 -20 -20
-20 -20 -20 -20 -20 -20 -20 -20 -20 -20 -20 -20 -20 -8 -20 -20 -19 -2 1 7 6 -18 -16 0 -19 -20 -20 -20 -20 -20 -20 -20 -20 -20 -20 -20 -20 -20 -20 -20 -20 -20 -20 -20 -20 -20 -20 -20 -20 -20 -20 -20 -20 -20
-20 -20 -20 -20 -20 -20 -20 -20 -20 -20 -20 -20 -20 -9 -20 -20 -20 -17 4 -15 -20 -20 -10 -7 -20 -20 -20 -20 -20 -20 -20 -20 -20 -20 -20 -20 -20 -20 -20 -20 -20 -19 -20 -20 -20 -20 -20 -20 -20 -20 -20 -20 -20 -20
-20 -20 -8 -20 -20 -20 -20 -20 -20 -20 -20 -5 -13 -18 -20 -20 -20 -1 -9 -20 -20 -20 -20 -20 -20 -20 -20 -20 -20 -20 -20 -20 -20 -20 -20 -20 -20 -20 -20 -20 -20 -20 -20 -20 -20 -20 -20 -20 -20 -20 -20 -20 -20 -20
-20 -20 -20 -20 -20 -20 -20 -20 -20 -20 -20 -20 -20 -20 -20 -20 -17 -13 -18 -20 -20 -20 -20 -20 -20 -20 -20 -20 -20 -20 -20 -20 -20 -20 -20 -20 -20 -20 -20 -20 -20 -7 -20 -20 -20 -20 -20 -20 -20 -20 -20 -20 -20 -20
-20 -20 -20 -20 -20 -20 -20 -20 -20 -20 -20 -20 -20 -20 -4 -9 -20 -20 -20 -20 -20 -20 -20 -20 -20 -20 -20 -20 -20 -20 -20 -20 -20 -20 -20 -20 -20 -20 -20 -20 -20 -20 -20 -20 -19 -18 -17 -20 -20 -20 -20 -20 -20 -20
-15 -20 -20 -20 -20 -20 -0 -20 5 -20 -20 -20 -20 -18 -20 -19 -9 -20 2 2 -14 -14 -20 -20 -18 -20 -20 -20 -20 -20 -20 -20 -20 -20 -20 -20 -20 -20 -20 -20 -20 -20 -20 -20 -20 -20 -20 -20 -20 -20 -20 -20 -20 -20
-20 -20 -20 -20 -17 -18 -20 -20 -20 -20 -20 -20 -20 -20 -20 -20 -20 -20 -20 -20 -20 -20 -20 -20 -20 -20 -20 -20 -20 -20 -20 -20 -20 -20 -20 -20 -20 -20 -20 -20 -20 -20 -20 -20 -20 -20 -20 -20 -20 -20 -20 -20 -20 -20
-20 -20 -20 -20 -11 -20 -6 -8 -19 -20 -20 -20 -20 -20 -20 -20 -20 -20 -20 -20 -20 -20 -20 -20 -20 -20 -20 -20 -20 -20 -20 -20 -20 -20 -20 -20 -20 -20 -20 -20 -20 -20 -20 -20 -20 -20 -20 -20 -20 -20 -20 -20 -20 -20
-20 -20 -20 -20 -20 -20 -20 -20 -20 1 -20 -20 -20 -20 -20 -20 -20 -20 -20 -20 -18 -20 -20 -20 -20 -20 -20 -20 -20 -20 -20 -20 -20 -20 -20 -20 -20 -20 -20 -20 -20 -20 -20 -20 -20 -20 -20 -20 -20 -20 -20 -20 -20 -20

GFSWCAN_prec_radar_054.txt.gz
Reflectivity
-2 -11 11 10 16 12 6 7 9 11 12 17 17 1 -20 0 13 27 39 32 24 31 -20 -20 -5 -20 -20 -20 -20 -20 -20 -20 -20 -20 -20 -20 -20 -20 -20 -20 -20 -11 22 -1 24 28 14 -20 -19 -19 -20 -20 -20 10
-20 4 27 13 12 6 6 4 8 15 -19 -14 9 17 6 8 15 20 36 34 28 35 26 -8 -20 20 9 -20 -20 -20 -20 -20 -20 -20 -20 -20 -20 -20 -20 -20 -20 -20 -20 -14 20 36 12 -6 16 17 -20 -20 -20 -20
25 14 12 13 -11 -20 -20 -20 -8 -20 6 14 4 -17 20 9 16 17 33 29 24 29 12 16 6 -11 15 -12 -20 -20 -20 -20 -10 -20 -20 -20 -20 -20 -20 -20 -20 -20 -19 11 19 16 14 16 7 -4 -20 -20 -20 -19
8 17 -18 -14 -20 -20 -4 12 4 11 10 7 9 6 3 26 21 23 4 4 -20 -19 -13 -19 8 20 24 26 -20 -20 -20 0 -20 3 -3 -20 -20 -20 -20 -20 -20 -20 -6 -6 11 3 -9 -16 -12 -7 -10 -7 -13 6
17 -20 -20 -6 11 14 -8 17 15 17 18 20 20 11 14 25 38 35 17 -9 -20 -11 -15 11 30 35 9 -4 11 -20 -3 -6 -20 14 25 11 -20 -20 -20 -20 -20 16 18 -12 -18 -20 -20 -20 -20 -20 -20 -17 -7 -0
-8 5 -20 18 19 2 6 -19 -19 -20 24 15 17 -1 14 27 34 37 31 20 -20 8 29 7 39 -12 -20 -20 -20 -20 -20 -20 10 14 19 16 -18 -20 -20 -20 -19 17 18 10 19 -20 -20 18 -20 -20 -20 -15 -6 -20
-20 -20 -7 18 4 -16 15 6 -20 9 26 24 17 28 34 36 36 18 12 -14 -20 -20 35 30 23 23 27 22 -12 -20 -20 -20 -20 22 2 18 9 17 18 13 -17 1 -5 20 -20 -20 -20 -20 -20 -20 -20 -7 -2 -19
-9 -20 -12 -14 -20 -5 -8 -14 6 10 7 18 20 10 19 27 9 -14 -20 -14 0 41 19 -11 12 18 -6 -20 -8 -20 -9 -7 -18 -20 -3 4 5 20 25 -14 -20 -20 -16 17 0 -20 -20 -20 -20 -20 -5 -2 2 -18
-20 -20 -5 13 6 7 -13 -11 13 14 15 17 21 33 37 24 10 17 24 28 33 14 -20 -20 -20 -13 -20 -20 4 21 6 -18 -20 -20 -20 10 -9 10 14 4 31 -6 -9 -20 -20 -20 -20 -20 -20 -20 -20 -19 -17 -20
-20 -3 -4 6 -7 9 12 11 7 17 36 33 33 34 39 42 32 31 41 40 38 7 -20 -20 -20 -20 -20 -20 -20 -20 -20 -20 -18 -9 -20 -20 -19 7 -2 -5 -12 23 6 -20 -20 -20 -20 -20 -20 -20 -20 -20 -20 -20
10 -4 -20 -19 3 15 16 13 6 -4 10 -3 -2 34 31 28 28 29 22 4 -10 -20 -20 -20 -20 -20 -20 -20 -20 -20 22 22 2 6 -20 -12 -20 2 -12 -20 -18 -2 -1 -4 -16 -18 -14 -18 -20 -20 -20 -20 -20 -20
16 13 5 6 9 -10 -20 -20 -20 -20 -20 -20 -14 7 -8 -20 -20 -20 -20 -20 -20 -18 -20 -8 -20 -20 -20 -20 -20 -20 11 29 4 16 -20 -20 6 -7 -17 -6 -9 2 -13 -13 -20 -5 11 16 -4 5 -1 -16 -20 -20
16 16 10 2 7 -18 -20 -20 -20 -19 -20 -20 -20 -20 -20 -20 -20 -20 -20 -20 -19 -10 -20 -20 -20 -20 -20 -20 -20 -4 -20 11 21 24 8 4 -3 -5 -11 -14 -10 -6 -15 -16 6 -13 -13 -14 0 12 14 3 3 11
4 10 -20 -18 19 -20 -20 9 -20 -17 -20 -20 -20 -20 -20 -20 -20 -16 -18 -18 -20 -18 -7 -20 -15 -13 -9 -20 -20 -20 6 3 -20 -20 -12 -9 4 2 3 1 -20 -17 -17 -11 5 -3 -6 -14 1 -1 -8 3 5 10
-20 -20 -20 -20 -12 -18 -20 -20 -20 -20 -20 -20 -20 -20 -20 -16 -20 -20 -20 -20 -19 -18 -9 11 15 23 -0 1 -20 -8 -13 -20 -20 -20 -18 -9 -18 -12 -15 -20 -17 -6 1 -1 6 10 13 11 9 -1 -2 -4 -4 1
-20 -19 -20 -20 -20 -20 -20 -7 -19 -20 -20 -20 -20 -20 -20 -20 -20 -5 -18 -20 -20 3 18 16 16 -1 -6 -20 -20 -20 -20 -20 -20 -19 5 12 8 6 11 14 16 17 14 13 12 11 10 6 1 5 -3 -6 -6 -10
-19 -20 -20 -20 -20 -20 -20 -20 -20 -20 -20 -20 -20 -20 -20 -20 -20 -20 -20 -19 -4 -20 -18 -20 -19 -2 -14 3 5 2 13 15 20 17 13 19 20 20 20 19 20 19 15 16 16 16 15 10 9 7 1 -10 -19 -18
-17 -9 -10 -20 -20 -20 -20 -20 -20 -20 -20 -20 -11 -0 -20 -20 -20 -20 -18 -16 -20 -20 -20 -3 -18 -4 -0 -16 -19 -20 -6 1 2 5 9 6 -1 4 10 6 -6 -18 -14 -12 -15 -15 -15 -5 -3 -5 -9 -19 -20 -20
18 17 6 2 -20 -20 -20 -20 -20 -20 2 -1 -18 -20 1 -11 -8 -10 -14 -18 -14 -11 -18 -20 -20 -20 -20 -4 -17 -19 -20 -20 -20 -20 -19 -12 -10 -17 -20 -20 -20 -20 -20 -20 -20 -20 -20 -20 -20 -20 -20 -20 -20 -20
-1 2 -20 -20 -20 -20 -20 -20 -17 -20 8 3 -10 -14 -12 3 -1 7 -0 -1 0 3 9 -1 -19 -17 -18 -17 -19 -20 -16 -16 -20 -20 -20 -19 -17 -20 -19 -19 -19 -20 -20 -20 -20 -20 -20 -20 -20 -20 -20 -20 -20 -20
-20 -20 -20 -20 -20 -20 -20 -17 -17 -20 -0 11 -2 -8 3 -10 -20 -20 -20 -20 -20 -20 -3 -15 -14 3 -19 -19 -20 -20 -20 -20 -20 -20 -20 -20 -7 -20 -20 -20 -20 -20 -20 -20 -20 -20 -20 -20 -20 -20 -20 -20 -20 -20
-20 -20 -3 12 8 -20 -20 -20 -20 1 -20 -17 -17 -20 -20 -20 -20 -20 -20 -20 -15 -19 -9 -20 -19 -20 -20 -20 -20 -20 -20 -20 -20 -20 -20 -20 -20 -20 -20 -20 -20 -20 -20 -20 -20 -20 -20 -20 -20 -20 -20 -20 -20 -20
-20 -20 -20 -20 -20 -20 -20 -20 -20 -20 -20 -20 -20 -20 -20 -20 -20 -20 -20 7 4 -9 -18 -20 -20 -20 -20 -20 -20 -20 -20 -20 -20 -20 -20 -20 -20 -20 -20 -20 -20 -20 -20 -20 -20 -20 -20 -20 -20 -20 -20 -20 -20 -20
-20 -20 -20 -20 -20 -20 -20 -20 -20 -20 -20 -20 -20 -20 -20 -20 -20 -20 -20 -10 3 -20 -20 -20 -20 -20 -20 -20 -20 -20 -20 -20 -20 -20 -20 -20 -20 -20 -20 -20 -20 -20 -20 -20 -20 -20 -20 -20 -20 -20 -20 -20 -20 -20
-20 -20 -20 -20 -20 -20 -20 -20 -20 -20 -20 -20 -20 -20 -20 -20 -20 -20 -20 -15 -17 -20 -20 -20 -20 -20 -20 -20 -20 -20 -20 -20 -20 -20 -20 -20 -20 -20 -20 -20 -20 -20 -20 -20 -20 -20 -20 -20 -20 -20 -20 -20 -20 -20
-20 -20 -20 -20 -20 -20 -20 -20 -20 -20 -20 -20 -20 -17 -20 -20 -20 -20 -20 -20 -20 -20 -20 -20 -20 -20 -20 -20 -20 -20 -20 -20 -20 -20 -20 -20 -20 -20 -20 -20 -20 -20 -20 -20 -20 -20 -20 -20 -20 -20 -20 -20 -20 -20
-20 -20 -20 -20 -20 -20 -20 -20 -20 -20 -20 -20 -20 -20 -20 -20 -20 -19 -20 -20 -20 -20 -20 -20 -20 -20 -20 -20 -20 -20 -20 -20 -20 -20 -20 -20 -20 -20 -20 -20 -20 -20 -20 -20 -20 -20 -20 -20 -20 -20 -20 -20 -20 -20
-20 -20 -20 -20 -20 -20 -20 -20 -20 -20 -20 -20 -20 -20 -20 -20 -17 -20 -20 -20 -20 -20 -20 -20 -20 -20 -20 -20 -20 -20 -20 -20 -20 -20 -20 -20 -20 -20 -20 -20 -20 -20 -20 -20 -20 -20 -20 -20 -20 -20 -20 -20 -20 -20
-20 -20 -20 -20 -20 -20 -20 -20 -20 -20 -20 -20 -20 -20 -5 -20 -20 -20 -20 -20 -20 -20 -20 -20 -20 -20 -20 -20 -20 -20 -20 -20 -20 -20 -20 -20 -20 -20 -20 -20 -20 -20 -20 -20 -19 -20 -20 -20 -20 -20 -20 -20 -20 -20
-20 -20 -20 -20 -20 -20 -12 -20 -20 -20 -20 -20 -20 -17 -20 -13 -1 -20 -20 -20 -20 -20 -20 -20 -20 -20 -20 -20 -20 -20 -20 -20 -20 -20 -20 -20 -20 -20 -20 -20 -20 -20 -20 -20 -20 -20 -20 -20 -20 -20 -20 -20 -20 -20
-20 -20 -20 -20 -20 -20 -20 -20 -20 -20 -20 -20 -20 -20 -20 -19 -20 -19 -19 -20 -20 -20 -20 -20 -20 -20 -20 -20 -20 -20 -20 -20 -20 -20 -20 -20 -20 -20 -20 -20 -20 -20 -20 -20 -20 -20 -20 -20 -20 -20 -20 -20 -20 -20
-20 -20 -20 -20 -20 -20 -20 -20 -20 -20 -20 -20 -20 -20 -20 -20 -20 -20 -20 -20 -20 -20 -20 -20 -20 -20 -20 -20 -20 -20 -20 -20 -20 -20 -20 -20 -20 -20 -20 -20 -20 -20 -20 -20 -20 -20 -20 -20 -20 -20 -20 -20 -20 -20
-20 -20 -20 -20 -20 -20 -20 -20 -20 -20 -20 -20 -20 -20 -20 -20 -20 -20 -20 -20 -20 -20 -20 -20 -20 -20 -20 -20 -20 -20 -20 -20 -20 -20 -20 -20 -20 -20 -20 -20 -20 -20 -20 -20 -20 -20 -20 -20 -20 -20 -20 -20 -20 -20

GFSWCAN_prec_radar_060.txt.gz
Reflectivity
-11 -6 11 -16 20 23 17 -4 -8 -10 -20 -12 -18 16 28 28 28 31 32 18 25 33 26 -20 -3 11 -12 -16 -15 12 22 -20 -20 -20 -16 2 -20 -20 -20 -20 -8 -5 -3 -9 -0 -8 -20 -20 -20 -20 -17 -20 -20 -20
-12 -18 19 18 13 17 14 11 23 1 6 9 -20 -10 12 20 32 33 38 27 22 31 25 11 -20 0 -0 -20 6 15 3 -20 -20 -20 -20 -20 -20 -20 -20 -20 -20 -20 -20 -20 -20 -20 -20 -20 -20 -20 -20 -20 -20 5
-13 17 18 1 4 15 11 13 14 17 -3 13 14 -10 14 13 21 30 33 32 33 36 27 -2 21 15 -20 -14 -12 -5 -19 -20 -20 -20 -20 -20 -20 -20 -20 -20 -20 -20 -20 -20 -20 -20 -20 -20 -20 -20 -20 -20 -20 -20
24 26 -4 20 4 -20 -19 -20 5 10 12 17 6 17 -17 12 11 22 32 22 33 29 21 27 -20 -12 -16 -20 -20 -20 -11 4 -17 -20 -20 -20 -20 -20 -20 -20 -20 -20 -20 -20 -20 -20 -20 -20 -20 -20 -20 -20 -20 -20
7 -6 -20 -2 16 9 18 31 11 17 13 14 -5 3 21 10 7 13 19 -5 16 22 21 -15 -20 -20 -20 -11 -3 -20 -18 -18 -7 3 -20 -1 -20 -16 -20 -20 -20 -20 -20 -20 -20 -20 -20 -20 -20 -20 -20 -20 -20 -20
10 -20 8 -13 8 -20 -19 -19 8 14 6 -19 15 15 14 30 31 33 33 29 31 30 34 -6 -20 -20 -1 -17 -20 -20 -19 14 5 -20 -20 -20 -20 -16 9 -20 -20 -20 -20 -20 -10 -20 -20 -20 -20 -20 -20 -20 -12 19
-1 21 21 -5 10 19 9 15 14 -5 8 15 7 18 16 31 35 22 5 -2 2 27 29 -9 -20 -10 -17 -16 -19 6 -10 23 25 6 -2 -20 -20 12 -13 -18 -20 -20 -20 -20 -20 -20 -20 -20 -20 -20 -20 8 9 1
18 14 -4 14 1 -15 11 18 21 0 16 10 20 25 30 23 24 30 -11 -20 -20 13 15 2 -6 20 -3 10 -9 -9 -3 10 38 29 35 10 2 14 -1 -20 -14 22 19 -8 -20 -20 -20 -20 -20 -18 13 33 25 22
20 -11 16 13 16 26 15 13 17 17 18 26 38 33 27 26 38 23 -8 -20 -20 -17 -15 -20 10 -13 11 -9 5 -18 -19 5 35 9 -20 8 -20 -17 -13 -20 -20 -10 -3 -5 -20 -20 -20 -20 -20 -20 -16 -7 20 10
14 23 17 10 -6 -10 -0 23 23 23 27 26 10 30 20 37 13 9 26 7 30 20 -20 -20 20 20 40 19 26 27 20 -20 -12 -2 -5 -20 -20 -19 -20 -20 -20 -15 -19 -8 -19 -20 -20 -20 -1 -6 -10 -10 7 6
-6 -4 18 23 19 33 12 8 15 21 -17 14 34 39 31 26 17 25 9 -20 -20 -1 -3 30 30 -12 8 -13 -3 -20 -20 -20 -20 -16 -20 -20 -20 -15 -20 -20 -20 -20 -20 -20 -17 -10 -14 -18 -12 10 8 -1 -11 1
-18 -17 -6 34 22 22 25 25 23 16 -5 2 23 20 3 11 3 -6 -2 14 6 20 15 -5 -10 29 11 -20 -11 -20 -18 -18 -9 -8 -16 -20 3 -20 -18 -20 -20 -11 -20 -20 -20 -18 0 -12 -10 12 8 -9 -15 -13
-20 -20 -19 9 25 20 12 35 11 -18 -17 -20 -20 5 3 -16 -14 -10 -18 -18 -20 -20 -7 -5 11 1 -14 -20 -20 -12 -4 -3 -8 9 6 -15 -20 -20 -1 -17 -20 -18 -18 -16 8 4 1 5 10 11 7 9 -2 3
-20 -20 -20 -20 -20 -6 19 5 -15 -20 -11 -20 -20 -20 -12 -20 -20 -20 -20 -18 -18 -15 -14 -19 -20 -20 -20 -20 -3 -20 -18 -20 -20 -20 -20 -12 -1 -14 -20 -5 -20 -18 -17 -16 -19 -14 -11 -16 -17 -17 -9 3 4 2
-19 -20 -20 -20 -20 -20 -20 -20 -20 -20 -20 -20 -20 -20 -20 -13 -19 -18 -11 -11 -6 9 -10 -20 -20 -20 -20 -20 -20 -20 -20 -20 -20 -20 -20 -20 -18 -20 -14 -1 4 6 5 0 3 0 4 8 2 -4 6 9 9 10
-20 -20 -20 -20 -20 -20 -17 -20 -20 -20 -20 -20 -20 -20 -20 -19 -13 -7 -8 -10 -8 -18 -20 -20 -20 -20 -20 -20 -20 -20 -20 -20 -20 -20 -20 -20 -20 -7 2 -5 -6 -2 -2 5 8 -1 -14 -8 -3 7 8 7 7 4
-20 1 -20 -20 -20 -20 -20 -20 -20 -20 -20 -20 -20 -20 -20 -20 -20 -20 -19 -20 -20 -20 -20 -20 -20 -20 -20 -20 -20 -20 -20 -20 -20 -20 -20 -18 -12 8 12 8 -2 4 9 9 5 2 6 9 9 7 -3 3 2 2
-20 -18 -20 -20 -20 -20 -20 -20 -20 -20 -20 -20 -20 -20 -20 -20 -20 -20 -20 -20 -20 -20 -18 -4 -19 -17 -16 -15 6 5 2 9 11 8 5 3 3 -10 -8 -3 6 5 1 -5 -3 3 4 3 -1 -6 -8 -14 -20 -20
-20 -20 -20 -20 -20 -20 -20 -20 -20 -20 -20 -20 -20 -20 -20 -20 -11 -16 -18 4 6 -12 -20 -8 -3 -8 -2 -2 -5 2 -2 -5 -12 -0 3 4 2 -3 -7 -9 -16 -19 -20 -15 -16 -18 -20 -20 -20 -20 -20 -20 -20 -20
-20 -20 -20 -20 -20 -20 -20 -20 -20 -20 -20 -18 -15 -20 -20 -7 -11 -20 -4 -1 -9 -11 -4 -4 6 5 -6 -16 -20 -20 -20 -20 -20 -20 -19 -16 -17 -17 -17 -19 -20 -20 -20 -20 -20 -20 -20 -20 -20 -20 -20 -20 -20 -20
-20 -20 -20 -20 -20 -20 -20 -20 -20 -20 -20 -20 -20 -20 -11 -15 -20 -20 -20 -20 -20 -20 -20 -20 -20 -20 -20 -20 -20 -20 -20 -20 -20 -20 -20 -20 -20 -20 -20 -20 -20 -20 -20 -20 -20 -20 -20 -20 -20 -20 -20 -20 -20 -20
-20 -20 -20 -20 -20 -20 -20 -20 -20 -20 4 -20 -17 -20 -14 -7 -12 -19 -20 -20 -20 -20 -20 -20 -20 -20 -20 -20 -20 -20 -20 -20 -20 -20 -20 -20 -20 -20 -20 -20 -20 -20 -20 -20 -20 -20 -20 -20 -20 -20 -20 -20 -20 -20
-20 -20 -20 -20 -20 -20 -12 -12 -20 -20 -20 -20 -20 -20 -20 -20 -20 -20 -20 -16 -5 2 -20 -20 -20 -20 -20 -20 -20 -20 -20 -20 -20 -20 -20 -20 -20 -20 -20 -20 -20 -20 -20 -20 -20 -20 -20 -20 -20 -20 -20 -20 -20 -20
-20 -20 -20 -20 -20 -20 -20 -20 -20 -20 -20 -20 -20 -20 -20 -20 -20 -20 -18 -20 -4 -17 -20 -19 -20 -20 -20 -20 -20 -20 -20 -20 -20 -20 -20 -20 -20 -20 -20 -20 -20 -20 -20 -20 -20 -20 -20 -20 -20 -20 -20 -20 -20 -20
-20 -20 -20 -20 -20 -20 -20 -20 -20 -20 -20 -20 -20 -20 -20 -20 -20 -20 -20 -20 -20 -20 -20 -20 -20 -20 -20 -20 -20 -20 -20 -20 -20 -20 -20 -20 -20 -20 -20 -20 -20 -20 -20 -20 -20 -20 -20 -20 -20 -20 -20 -20 -20 -20
-20 -20 -20 -20 -20 -20 -20 -20 -20 -20 -20 -20 -20 -20 -20 -20 -20 -20 -20 -20 -20 -20 -20 -20 -20 -20 -20 -20 -20 -20 -20 -20 -20 -20 -20 -20 -20 -20 -20 -20 -20 -20 -20 -20 -20 -20 -20 -20 -20 -20 -20 -20 -20 -20
-20 -20 -20 -20 -20 -20 -20 -20 -20 -20 -20 -20 -20 -20 -20 -20 -20 -20 -20 -20 -20 -20 -20 -20 -20 -20 -20 -20 -20 -20 -20 -20 -20 -20 -20 -20 -20 -20 -20 -20 -20 -20 -20 -20 -20 -20 -20 -20 -20 -20 -20 -20 -20 -20
-20 -20 -20 -20 -20 -20 -20 -20 -20 -20 -20 -20 -20 -20 -20 -20 -20 -20 -20 -20 -20 -20 -20 -20 -20 -20 -20 -20 -20 -20 -20 -20 -20 -20 -20 -20 -20 -20 -20 -20 -20 -20 -20 -20 -20 -20 -20 -20 -20 -20 -20 -20 -20 -20
-20 -20 -20 -20 -20 -20 -20 -20 -20 -20 -20 -20 -20 -20 -20 -20 -20 -20 -20 -20 -20 -20 -20 -20 -20 -20 -20 -20 -20 -20 -20 -20 -20 -20 -20 -20 -20 -20 -20 -20 -20 -20 -20 -20 -20 -20 -20 -20 -20 -20 -20 -20 -20 -20
-20 -20 -20 -20 -20 -20 -20 -20 -20 -20 -20 -20 -20 -20 -20 -20 -5 -19 -20 -20 -20 -20 -20 -20 -20 -20 -20 -20 -20 -20 -20 -20 -20 -20 -20 -20 -20 -20 -20 -20 -20 -20 -20 -20 -20 -20 -20 -20 -20 -20 -20 -20 -20 -20
-20 -20 -20 -20 -20 -20 -20 -20 -20 -20 -20 -20 -20 -20 -20 -20 -20 -20 -20 -20 -20 -20 -20 -20 -20 -20 -20 -20 -20 -20 -20 -20 -20 -20 -20 -20 -20 -20 -20 -20 -20 -20 -20 -20 -20 -20 -20 -20 -20 -20 -20 -20 -20 -20
-20 -20 -20 -20 -20 -20 -20 -20 -20 -20 -20 -20 -20 -20 -20 -20 -20 -20 -20 -20 -20 -20 -20 -20 -20 -20 -20 -20 -20 -20 -20 -20 -20 -20 -20 -20 -20 -20 -20 -20 -20 -20 -20 -20 -20 -20 -20 -20 -20 -20 -20 -20 -20 -20
-20 -20 -20 -20 -20 -20 -20 -20 -20 -20 -20 -20 -20 -20 -20 -20 -20 -20 -20 -20 -20 -20 -20 -20 -20 -20 -20 -20 -20 -20 -20 -20 -20 -20 -20 -20 -20 -20 -20 -20 -20 -20 -20 -20 -20 -20 -20 -20 -20 -20 -20 -20 -20 -20

GFSWCAN_prec_radar_066.txt.gz
Reflectivity
14 11 10 2 14 14 18 17 14 19 18 19 17 20 25 19 17 27 33 23 21 22 4 4 11 6 10 19 23 5 24 31 25 17 12 11 -2 -20 -20 4 -3 -13 -0 -0 -2 9 14 -20 -20 -20 -17 -20 -20 -20
17 -16 -20 2 12 8 10 12 -1 15 19 29 22 12 24 20 23 27 31 21 10 17 18 -18 -20 16 -16 14 25 24 -1 20 13 11 9 11 -19 -20 -20 -13 -20 18 -6 22 7 5 -3 -20 -20 -20 -20 -20 -20 -20
5 11 6 8 -3 0 0 3 0 8 10 13 16 -10 16 28 22 28 29 15 12 28 11 0 -18 -20 -7 16 -14 14 13 26 16 10 19 16 12 -15 9 -20 4 -20 -20 -3 -19 -20 -20 -20 -20 -20 -20 -20 -20 -20
18 -19 -5 5 -7 -8 -4 -20 -15 -5 8 11 16 30 -20 17 26 27 33 18 17 26 14 11 -4 26 8 20 7 7 24 21 23 10 13 15 10 -17 10 -6 -20 -20 -20 -20 -20 -20 -20 -20 -20 -20 -20 -20 -20 -20
12 7 7 1 -3 5 13 5 -20 7 13 9 -19 17 -17 -5 25 32 24 17 4 10 15 4 -12 14 5 -14 17 15 14 24 22 20 20 19 16 -18 -9 3 -10 -20 -20 -11 -1 -20 -20 -11 -20 -20 -20 -20 -20 -20
12 11 13 15 15 16 8 12 -3 12 -20 10 16 -13 25 27 13 30 37 32 11 27 20 14 -12 -3 -19 -16 7 13 20 20 29 17 17 21 -17 20 19 12 -19 -20 -20 -20 -20 -20 -20 -20 -20 -20 -20 -20 -20 -20
14 15 -4 -1 -13 10 -3 6 12 -15 14 -14 7 7 29 22 2 8 14 15 29 5 27 21 15 -7 2 5 20 20 23 28 17 25 16 13 11 17 11 11 -19 -20 -20 -20 -20 -20 -20 -20 -4 -20 -20 -20 -20 -20
10 -20 -17 -20 -9 -14 10 11 12 12 12 10 -11 18 31 15 15 19 -8 -19 8 25 16 16 21 12 13 16 11 15 20 22 29 15 -14 14 8 16 10 -20 -20 -20 -20 -20 -20 -20 -20 -20 -20 -20 -20 -20 -20 -20
-10 7 21 8 -12 -4 17 11 4 7 18 18 26 35 34 29 21 23 10 13 24 18 4 3 8 12 14 16 3 20 23 20 -1 3 11 -17 7 19 3 -20 -20 -20 -20 -20 -20 -20 -20 -20 -20 -20 -20 -20 -20 -20
4 8 25 -6 17 4 8 16 24 37 34 40 33 34 23 12 6 25 29 31 32 31 19 11 3 14 13 13 9 15 9 9 16 -6 -20 -4 -5 0 -17 -20 -20 -20 -20 -20 -19 -20 -20 -20 -20 -20 -20 -20 -20 -20
11 15 28 20 4 4 4 21 20 20 17 3 36 36 20 25 12 29 28 28 4 3 -17 -5 -17 -1 -16 9 -0 -1 2 -13 13 -0 5 0 -2 1 -12 -16 -16 -11 -14 -20 -16 -15 -10 -19 -20 -19 -20 -20 -20 -15
20 19 21 21 28 16 17 29 12 7 -3 10 29 25 27 31 21 -17 3 -9 -20 -8 -10 -11 -20 0 -20 -20 -11 -3 14 0 18 -20 -3 -10 -1 -5 -3 -2 -3 -6 -4 -10 -20 -11 -17 -20 -12 -19 -18 -17 -12 -14
30 22 1 -17 2 14 26 27 25 8 5 -20 -13 3 -2 -16 -20 -20 1 -2 3 -20 -10 -7 -12 -18 17 28 31 18 21 -5 -17 -13 -20 -2 -2 -4 -2 -5 -7 -4 -3 -4 -3 -5 -4 -3 -3 -6 -14 -3 -13 -17
6 16 -5 -20 -20 -1 -20 -20 -6 7 -3 -17 -20 -20 -20 -20 -19 -16 -2 -2 -4 -18 -11 14 3 40 20 -20 -17 -20 -6 -20 -20 -20 -11 1 1 3 1 -0 -4 -2 -2 -2 -2 -14 -13 -17 -7 -4 -5 -3 -14 -15
-20 -20 6 17 -9 -20 -20 -20 -3 12 11 -2 -20 -15 -4 -2 -9 -20 -20 -11 -4 17 29 16 -13 -20 -20 -15 -20 -20 -20 -20 -20 -2 1 2 1 1 0 1 -2 -3 -10 -9 4 7 4 -2 -3 -0 2 4 -1 1
-5 -20 -20 -20 -20 -20 -20 -9 -5 -7 -20 -20 -20 -13 -20 -19 -12 -16 -17 -16 -16 -19 -17 -20 -0 5 -14 -20 -20 -20 -20 -20 -1 3 2 3 -1 -3 -3 -4 -2 -2 -3 -4 -10 -7 2 3 -0 1 6 9 7 4
-20 -20 -20 -20 -20 -20 -20 -20 -20 -20 -20 -20 -19 0 -2 -3 -4 -4 -2 -11 -19 -20 -20 -20 -20 -6 -20 -20 -20 -20 -14 2 3 2 3 1 -2 -7 -20 -20 -20 -18 -17 -20 -20 -15 -8 -3 -3 1 1 3 -17 -5
-20 -20 -20 -20 -20 -20 -20 -20 -20 -20 -20 -18 -13 -2 -1 1 -1 -4 -1 -10 -20 -20 -20 -20 -20 -20 -18 -20 -7 1 2 4 2 0 -2 -3 -20 -6 -6 -20 -20 -20 -20 -20 -20 -20 -20 -7 -20 -14 -7 -20 -20 -20
-20 -20 -20 -20 -20 -20 -20 -20 -20 -20 -12 -1 -9 -8 -1 2 -0 -6 -7 -20 -20 -20 -20 -20 -20 -20 -1 3 -0 -0 0 -11 -12 -2 -3 -3 -11 -20 -20 -20 -20 -20 -20 -20 -20 -20 -20 -20 -20 -20 -20 -20 -20 -20
-20 -20 -20 -20 -20 -20 -20 -20 -20 -20 -7 -5 -8 -6 -14 -1 -5 -0 -18 -20 -20 -20 -20 -20 -5 5 1 2 -1 -1 -1 -8 -20 -20 -11 -5 -19 -20 -20 -19 -18 -19 -20 -20 -20 -20 -20 -20 -20 -20 -20 -20 -10 -2
-20 -20 -20 -20 -20 -20 -20 -20 -20 -20 -20 -15 -1 -17 -1 -20 -20 -20 -20 -20 -20 -4 -3 3 1 1 -1 -1 -2 -20 -3 -2 -1 -20 -20 -20 -19 -20 -20 -20 -20 -20 -20 -20 -20 -20 -20 -20 -20 -20 -20 -4 -0 1
-20 -20 -20 -20 -20 -20 -20 -20 -20 -16 -20 -2 -20 -20 -20 -20 -20 -20 -18 -20 -2 3 4 1 -0 -1 -7 -9 -3 -20 -20 -20 -20 -20 -20 -20 -20 -20 -20 -20 -20 -20 -20 -20 -20 -4 -16 -20 -20 -20 -20 -3 -8 -2
-20 -20 -20 -20 -20 -20 -8 -5 4 5 -20 -20 -20 -20 -20 -20 -20 -20 -20 -16 3 4 -1 -16 -13 -20 -10 -12 -20 -20 -20 -20 -20 -20 -20 -20 -20 -20 -20 -20 -20 -20 -20 -20 -20 -12 -3 -19 -20 -20 -20 -4 -1 -2
-20 -20 -20 -20 -20 -20 -16 -20 -20 -20 -20 -20 -20 -20 -20 -20 -20 -20 -18 -2 2 1 -7 -6 -20 -20 -20 -20 -20 -20 -20 -20 -20 -20 -20 -20 -20 -20 -20 -20 -20 -20 -20 -20 -20 -20 -20 -3 -18 -5 -20 -2 -16 -4
-20 -20 -20 -20 -20 -20 -20 -20 -20 -20 -20 -20 -20 -20 -20 -20 -20 -20 -20 -2 -0 2 -2 -11 -20 -20 -20 -20 -20 -20 -20 -20 -20 -20 -20 -20 -20 -20 -20 -20 -20 -20 -20 -2 -3 -9 -20 -20 -20 -20 -20 -20 -20 -20
-20 -20 -20 -20 -20 -20 -20 -20 -20 -20 -20 -20 -20 -20 -20 -20 -20 -15 -14 -0 -9 -20 -20 -20 -20 -20 -20 -20 -20 -20 -20 -20 -20 -20 -20 -20 -20 -20 -20 -20 -20 -13 -20 -6 -2 -2 -7 -20 -20 -20 -20 -15 -20 -20
-20 -20 -20 -20 -20 -20 -20 -20 -20 -20 -20 -20 -20 -20 -20 -20 -20 -10 -13 -20 -20 -20 -20 -20 -20 -20 -20 -20 -20 -20 -20 -20 -20 -20 -20 -20 -20 -20 -20 -20 -20 -20 -20 -20 -20 -18 -16 -20 -20 -20 -20 -11 -10 -20
-20 -20 -20 -20 -20 -20 -20 -20 -20 -20 -20 -20 -20 -20 -20 -20 -10 -2 -20 -20 -20 -20 -20 -20 -20 -20 -20 -20 -20 -20 -20 -20 -20 -20 -20 -20 -20 -20 -20 -20 -20 -20 -20 -20 -3 -20 -4 -5 -5 -5 -6 -5 -18 -11
-20 -20 -20 -20 -20 -20 -18 -20 -20 -20 -20 -20 -20 -20 -3 -10 -20 -7 -18 -20 -20 -20 -20 -20 -20 -20 -20 -20 -20 -20 -20 -20 -20 -20 -20 -20 -20 -2 -20 -20 -20 -20 -20 -3 -20 -17 -7 -7 -5 -3 -2 -2 -4 -20
-20 -20 -20 -20 -20 -16 -1 -0 -13 -20 -20 -17 -11 -18 -20 -10 -5 -8 -20 -20 -20 -20 -20 -20 -20 -20 -20 -20 -20 -20 -20 -20 -20 -20 -20 -20 -20 -18 -20 -20 -14 -13 -20 -10 -10 -3 -17 -11 -19 -14 -20 -20 -10 -11
-20 -20 -20 -20 -15 2 -13 -13 -20 -20 -20 -20 -20 -20 -19 -16 -20 -20 -20 -20 -20 -20 -20 -20 -20 -20 -20 -20 -20 -20 -20 -20 -20 -20 -20 -20 -20 -20 -20 -20 -20 -20 -20 -20 -20 -20 -20 -20 -20 -20 -20 -20 -20 -20
-20 -20 -20 -20 -19 -20 -20 -20 -20 -20 -20 -20 -20 -20 -20 -20 -20 -20 -20 -20 -20 -20 -20 -20 -20 -20 -20 -20 -20 -20 -20 -20 -20 -20 -20 -20 -20 -20 -20 -20 -20 -20 -20 -20 -20 -20 -20 -20 -20 -20 -20 -20 -20 -20
-20 -20 -20 -20 -20 -20 -20 -20 -20 -20 -20 -20 -20 -20 -20 -20 -20 -20 -20 -20 -20 -20 -20 -20 -20 -20 -20 -20 -20 -20 -20 -20 -20 -20 -20 -20 -20 -20 -20 -20 -20 -20 -20 -20 -20 -20 -20 -20 -20 -20 -20 -20 -20 -20

GFSWCAN_prec_radar_072.txt.gz
Reflectivity
3 8 9 -18 -5 13 9 1 1 -3 -20 14 -8 24 12 2 3 -1 -20 15 17 15 -12 -20 -20 -2 7 25 -5 23 30 17 0 -20 -5 15 20 18 20 21 -20 -10 11 2 -4 12 11 -12 31 16 18 28 3 -2
-10 9 8 12 14 13 7 -4 11 14 6 9 8 12 29 13 -3 16 5 -19 20 15 -16 -20 -20 -20 2 11 33 1 32 -7 0 -4 12 23 23 15 21 20 0 12 -18 -18 -20 -20 24 -6 -10 -20 16 -18 -20 -20
10 9 13 23 17 17 13 7 12 6 9 10 5 7 6 18 21 30 8 -5 -14 15 -5 -20 -20 -20 -20 -20 17 36 14 5 33 27 17 14 20 23 15 22 22 13 -20 23 -9 30 9 -15 -20 -20 -20 -20 -20 -20
3 18 22 16 0 -20 0 10 -20 -20 -20 -3 3 -5 15 15 27 25 26 -1 5 -15 -3 -20 -20 -20 -20 -20 -20 6 19 25 16 23 16 34 20 19 24 11 9 8 13 -11 20 36 28 27 -11 -20 -20 -20 -20 -20
17 19 19 -10 -16 -14 6 -7 -4 -2 -16 1 3 15 23 21 24 32 24 15 -5 -8 11 -1 -20 -20 -20 -20 -3 -11 -20 3 4 24 15 14 17 10 23 8 21 24 8 18 32 24 38 24 -15 -20 -20 -20 -20 -20
14 15 -12 1 -20 -10 -0 -15 -17 -20 -20 -11 -3 3 21 33 28 33 39 34 12 -20 15 20 25 -20 -20 -20 -20 -20 8 2 29 15 5 11 21 28 20 25 24 -12 -20 13 -20 -20 -20 -20 -20 -20 -20 -20 -20 -20
15 -6 12 16 5 -4 -20 -6 -5 -15 -12 17 13 2 23 18 28 23 19 5 -9 15 37 23 -1 12 -20 -20 -20 -2 8 7 27 19 1 11 22 19 24 32 37 34 -18 -20 -20 -20 -20 -20 -20 -20 -20 -20 -20 -20
8 16 -4 -8 -13 -18 4 1 -20 12 10 18 8 21 28 26 26 18 13 -5 -1 22 21 19 20 15 11 -16 21 14 20 22 10 5 9 -17 17 20 15 -18 -18 -14 -20 -20 -20 -20 -20 -20 -20 -20 -20 -20 -20 -20
17 9 -4 -1 7 11 -12 10 -18 7 17 10 23 27 28 27 27 14 7 6 11 23 16 15 -9 17 15 18 2 12 -1 28 26 -1 2 24 28 14 0 -20 -20 -20 -20 -20 -20 -20 -20 -20 -20 -20 -20 -20 -20 -20
8 -6 -18 -17 22 10 11 10 14 17 23 35 27 28 23 6 25 31 36 36 38 28 22 28 -0 -5 6 15 2 -1 9 7 -1 1 6 -11 -6 -20 -20 -20 -20 -20 -20 -20 -20 -20 -20 -20 -2 -20 -20 -20 -20 -20
22 2 -13 -13 17 10 18 17 20 27 32 24 31 25 8 23 13 32 28 28 27 11 -19 10 33 10 23 21 4 6 1 20 19 -1 -1 5 -1 -19 -20 -20 -20 -20 -20 -20 -20 -19 -15 -15 -20 -19 -16 -16 -20 -20
24 16 24 1 18 34 19 21 20 13 12 23 17 21 31 24 11 11 7 16 17 11 0 10 22 9 16 30 15 3 12 12 17 10 -8 3 1 -20 -20 -20 -20 -7 -15 -20 -20 -4 -11 -19 -20 -20 -20 -4 -4 -2
4 26 26 36 32 33 38 35 11 6 -8 9 13 21 21 -6 12 19 -2 -5 12 -0 -4 1 10 12 4 18 8 -10 -7 15 -20 12 -13 -0 -16 -20 -20 -16 -20 -20 -20 -20 -7 -20 -20 -18 -5 -9 -4 -2 -18 -20
-20 4 20 27 18 13 19 10 23 19 9 23 2 -20 -0 -18 -19 -17 -2 -4 1 5 3 -4 -20 1 -19 -16 -19 -20 -16 -15 7 -1 -12 1 -6 -6 -8 -15 -20 1 -15 -18 -4 -1 -0 -0 2 -2 -3 -10 -20 -20
-18 -20 8 25 -13 -4 4 23 27 20 -5 -14 -19 -13 -20 -20 -13 -9 -11 5 -7 -9 25 -7 1 -14 -20 -17 -15 -20 -20 -20 -20 -4 2 3 1 6 6 2 0 2 3 3 -1 -0 -1 -4 -5 -1 -5 -14 -20 -20
-1 -13 -20 -20 -14 -2 8 5 -9 -20 -20 -20 -20 6 -12 10 9 -1 5 -1 -4 8 -12 0 -20 -20 -20 -7 -13 -17 2 -11 -1 -2 2 1 1 4 2 4 5 1 2 0 1 -13 -4 -14 -4 -3 -9 -15 -17 -17
2 -17 -11 3 10 13 6 -20 -20 -20 -20 -2 -1 -7 8 -1 4 -1 0 2 8 22 6 4 -20 -6 -19 -13 -20 -6 -3 2 7 9 5 1 -18 1 1 2 2 -2 -9 -3 1 -1 1 -5 -20 -1 -4 -1 -20 -20
-2 -20 7 23 27 18 13 18 15 -6 -3 8 4 5 3 1 6 5 12 1 11 -20 -20 -20 -20 -20 -20 1 -3 6 2 5 1 5 3 3 6 5 5 5 4 -0 -20 1 0 -1 -17 -15 -20 -20 -20 -20 -20 -20
-0 -20 -20 25 14 -15 -20 -20 -20 -7 7 9 5 8 6 9 8 3 -9 -6 -6 -18 -20 -20 -20 -4 5 7 -0 2 6 2 3 2 2 -2 -13 -14 -12 -0 -2 -13 -5 -6 -3 -20 -20 -20 -20 -20 -20 -20 -20 -20
-20 -20 -20 21 1 -20 -20 -20 -20 -12 7 3 4 0 -0 5 6 6 -20 -20 -20 -20 -20 -9 6 11 8 9 8 5 3 1 -1 1 2 4 6 -12 5 -11 0 -2 -18 -20 -20 -20 -20 -20 -20 -20 -20 -20 -15 -16
-20 -20 -20 -20 -20 -20 -20 -7 -13 -20 2 3 7 -1 3 -5 -1 -20 -20 -20 -20 -2 1 8 7 9 6 5 6 8 15 10 15 -2 -11 1 -0 -2 -3 -20 -20 -20 -20 -17 -7 -20 -20 -20 -20 -20 1 2 -16 -20
-20 -20 -20 -20 -20 -20 -15 -17 -15 -6 6 -0 -17 -2 5 2 -8 -20 -20 -20 3 12 6 3 4 3 0 -19 -20 -20 -20 -20 -20 -20 -18 -16 2 -1 -8 -20 -20 -20 -20 -20 -20 -12 -19 -20 -20 -4 3 0 -10 -15
-20 -20 -20 -20 -20 -18 -0 6 -0 5 6 -5 -17 -11 2 -3 -20 -20 -19 -7 6 6 -11 -11 -13 -20 -12 -20 -20 -20 -20 -20 -20 -20 -20 -20 -20 -20 -20 -20 -20 -20 -12 -20 -20 -13 -20 -20 -20 -6 -12 -9 4 -13
-20 -20 -20 -20 -19 -0 3 -2 -20 -9 -17 -7 -20 -3 -4 -17 -20 -20 -1 3 7 -6 -3 0 -3 -0 -6 -20 -20 -17 -20 -20 -20 -20 -20 -20 -20 -20 -20 -20 -20 -20 -20 -20 -20 -6 -12 -5 -20 -2 -20 -4 -4 -20
-20 -20 -20 -20 -19 -16 -5 -3 -19 -5 -5 -20 -12 -4 -19 -12 -2 -2 -4 2 9 6 5 6 10 7 -3 -20 -20 -20 -20 -20 -20 -20 -20 -20 -20 -19 -20 -20 -20 -20 -20 -3 7 -0 -19 -20 -3 -7 -20 -5 -20 -20
-20 -20 -20 -10 -20 -16 -20 -15 -20 -20 -20 -20 -20 -20 -20 -5 -17 0 -0 4 7 5 7 8 3 -3 -20 -20 -20 -20 -20 -20 -20 -20 -20 -20 -20 -20 -20 -20 -8 -12 -20 -15 -4 -20 -1 -20 -20 -20 -20 -4 -20 -20
-20 -18 -20 -20 -20 -20 -20 -15 -20 -20 -20 -20 -20 -20 -20 -20 -11 -0 11 3 7 11 -7 -1 4 -10 -20 -20 -20 -20 -20 -20 -20 -20 -20 -20 -20 -20 -20 -20 -20 -20 -20 -20 -5 -9 -20 -20 -7 -5 -3 -3 -0 -3
-19 -20 -20 -20 -20 -20 -20 -20 -20 -20 -20 -20 -20 -20 -20 -20 -1 9 3 -3 -19 -19 -20 -20 -20 -20 -20 -20 -20 -20 -20 -20 -20 -20 -20 -20 -20 -20 -20 -20 -20 -20 -20 -20 -20 -20 -6 -9 -8 -6 -2 -5 -18 -3
-3 -20 -20 -20 -20 -20 -20 -18 -11 -16 -20 -20 -20 -20 -7 -1 5 5 0 -12 -2 -5 -3 -3 -5 -18 -18 -18 -18 -8 -12 -20 -18 -20 -20 -20 -18 -7 -20 -13 -3 -13 -7 -3 -20 -20 -20 -20 -20 -20 -20 -20 -19 -5
-20 -20 -20 -20 -20 -16 2 5 1 -1 -20 -20 -12 6 8 10 5 -9 4 8 7 5 -0 2 4 -1 -3 -18 -20 -19 -20 -20 -20 -20 -16 -20 -12 -20 -15 -8 -5 -7 -9 -3 -14 -11 -14 -11 -18 -10 -13 -2 -0 -6
-20 -20 -20 -20 -4 4 5 -11 9 9 4 1 -5 -18 -4 -1 -6 -8 -3 -6 -3 1 -1 -1 -3 -4 -17 -20 -9 -10 -20 -20 -20 -20 -20 -20 -20 -19 -20 -20 -20 -17 -4 -6 -19 -6 -18 -20 -16 -16 -17 -20 -20 -20
-11 -20 -20 -20 -2 8 7 9 6 3 4 1 1 2 -10 0 -3 -0 -20 0 9 2 -18 3 0 -10 -20 -20 -20 -20 -20 -20 -20 -20 -20 -20 -5 -20 -13 -11 -9 -5 -13 -20 -19 -11 -20 -20 -20 -20 -20 -20 -20 -20
-0 -20 -20 -20 -6 -4 -6 -1 -18 4 -1 -1 -18 -7 -19 -5 -5 -2 -17 -9 1 0 -12 -19 -19 -20 -20 -20 -20 -20 -20 -20 -20 -20 -20 -20 -20 -20 -20 -20 -10 -11 -20 -20 -20 -20 -20 -20 -20 -20 -20 -20 -20 -20

GFSWCAN_prec_radar_075.txt.gz
Reflectivity
-9 -20 -7 -20 -20 6 -4 10 8 12 12 13 12 10 -16 0 1 13 -20 -2 -13 -6 -20 -20 -20 -17 -20 -7 26 18 17 24 -20 -20 -20 -20 -20 -18 18 38 -20 -20 3 6 3 -15 -20 19 14 31 21 29 28 28
-20 -18 -20 -7 4 0 5 -13 -16 -20 5 7 13 3 13 10 2 12 0 -20 12 10 -16 -20 -20 -20 -20 -20 -9 33 34 36 13 -19 -20 -20 14 19 17 16 31 7 -19 -20 -20 -10 10 -8 12 27 1 16 7 9
-20 -6 6 -6 -13 7 16 18 7 11 7 23 9 15 20 -3 17 19 -1 -18 -14 8 -20 -20 -20 -20 -20 -20 9 24 -1 34 -15 14 28 10 15 32 14 21 29 -1 -12 19 -12 27 -13 -14 -1 -1 4 9 0 -2
-7 -2 -10 -5 2 10 10 5 -20 11 5 -0 7 8 11 7 13 20 -4 -16 -9 -19 -20 -20 -20 -20 -20 -20 -16 -20 21 30 24 17 32 17 29 20 2 33 26 37 6 3 29 39 5 22 11 3 -18 -6 2 -10
1 -20 8 8 6 5 1 10 20 15 15 -4 6 7 15 13 15 18 25 19 -20 -20 -1 -11 -20 -20 -20 -20 -20 -2 -16 31 6 -19 15 16 16 25 37 26 28 31 29 43 29 38 35 35 24 -1 -20 -20 -20 -20
-20 -0 3 -3 7 5 10 9 9 9 -6 7 -4 14 13 -7 30 32 37 29 12 4 -20 -20 -20 -20 -20 -20 -20 -20 -20 -19 -20 13 2 -20 24 24 30 18 32 22 25 20 35 28 28 20 -9 -20 -20 -20 -20 -20
-11 4 -19 6 9 -3 -5 8 13 16 5 6 10 1 16 28 31 25 6 6 12 18 30 -12 -18 -20 -20 -14 -20 -20 -17 -16 -20 -7 -6 -20 18 30 27 16 17 11 21 -20 -8 11 -2 -19 -17 -20 -20 -20 -20 -20
-12 -3 4 5 4 6 6 -2 20 -0 -4 -4 18 15 16 34 33 31 10 -19 1 28 6 -15 -2 29 9 -20 -12 -6 13 -1 -14 -4 -18 -8 20 20 -10 -3 8 9 10 -17 -20 -20 -20 -20 -20 -20 -20 -20 -20 -20
-9 -13 -8 -20 1 10 13 13 18 -20 7 19 27 24 37 21 22 30 12 -4 7 8 -15 -13 -20 19 19 -12 28 12 18 -13 19 -8 -17 11 17 20 4 -20 -20 -20 -14 -20 -20 -20 -20 -20 -16 -20 -20 -20 -20 -20
2 -14 -19 15 9 4 10 22 11 22 30 24 13 30 19 27 24 30 31 31 32 14 18 5 1 16 11 33 7 15 -17 20 -1 -20 -3 -20 -0 -17 -19 -17 -20 -20 -20 -20 -20 -19 -20 0 -20 -20 -20 -20 -20 -20
10 -18 6 14 8 16 25 11 25 30 23 30 35 22 17 23 26 21 2 16 13 -12 -20 -5 3 31 -3 13 -20 -20 -16 -20 -18 -20 -2 -15 -10 0 -19 -20 -20 -20 -20 -20 -18 -19 -19 -18 -19 -20 -20 -20 -20 -20
-2 14 9 14 5 16 19 26 23 32 28 -14 8 20 21 33 29 11 7 16 -15 -20 -20 -14 7 26 31 19 -12 -8 5 19 17 25 15 -16 4 -18 -20 -20 -20 -20 -20 -20 -20 -20 -20 -20 -20 -20 -11 -4 -17 -17
13 3 23 34 24 30 29 26 35 23 -3 10 -1 17 15 3 -19 -20 -17 -18 -11 -5 -9 -1 28 23 6 32 18 6 -10 -5 -20 -16 -19 -19 -13 -20 -20 -20 -20 -20 -20 -20 -20 -20 -20 -20 -20 -20 -20 -20 -20 -20
21 30 30 23 24 25 22 22 31 -9 -17 4 -20 -20 -20 -20 -20 -20 -20 -20 -20 -20 -5 -20 -20 -20 -13 -19 -13 -20 -20 -20 -20 -20 3 -6 -20 -20 -20 -20 -20 -20 -20 -20 -20 -20 -20 -20 -20 -20 -20 -20 -20 -20
9 8 19 33 27 19 -19 -20 -20 -20 -20 -20 -20 -11 -20 -20 -15 -20 -20 -20 -20 19 -19 -14 -20 -20 -20 -20 -20 -20 -20 -20 -20 -20 -20 -20 -14 -20 -20 -20 -20 -20 -20 -20 -20 -20 -20 -20 -20 -20 -20 -20 -20 -20
9 5 -6 17 19 7 2 -7 -20 -9 -19 -20 -20 -5 -19 -20 -18 -17 -17 -20 -20 -4 -15 -20 -20 -20 -20 -20 -20 -20 -20 -20 -20 -20 -20 -20 -20 -20 -20 -20 -20 -20 -20 -20 -20 -20 -20 -20 -20 -20 -20 -20 -20 -20
13 -16 -19 -20 -20 -19 16 16 4 -14 -20 -20 -20 -20 -19 -20 -20 -20 -20 -20 -4 8 -18 -15 -20 -20 -20 -20 -20 -20 -20 -12 -20 -19 -20 -20 -20 -20 -20 -20 -20 -20 -20 -20 -20 -20 -20 -20 -20 -20 -20 -20 -20 -20
4 17 23 28 25 0 -20 -20 -20 -20 -20 -20 -19 -20 -20 -20 -6 -18 -16 -19 3 -20 -20 -19 -20 -20 -20 -20 -20 -20 -20 -20 -20 -20 -20 -20 -16 -15 -11 -20 -20 -20 -20 -20 -20 -19 -20 -20 -20 -20 -20 -20 -20 -20
7 0 20 28 26 4 -9 -20 -20 -20 5 -20 -3 -14 -17 -12 -11 -18 -20 -20 -20 -20 -20 -20 -20 -20 -20 -20 -20 -20 -20 -20 -20 -20 -20 -20 -20 -20 -20 -18 -20 -20 -20 -19 -20 -20 -20 -20 -20 -20 -20 -20 -20 -20
-3 -19 -5 32 11 -11 -20 -20 -20 -20 -20 4 11 -6 -6 0 7 -10 -20 -19 -20 -20 -20 -20 -19 -15 -19 -12 -20 -20 -20 -20 -20 -20 -20 -20 -20 -15 -7 -18 -20 -20 -20 -20 -20 -20 -20 -20 -20 -20 -20 -20 -20 -20
-20 -20 -20 10 -16 -20 -20 -20 -9 -20 -20 3 -4 -0 -1 -20 -20 -20 -18 -20 -20 -4 -16 -20 -19 -8 -20 -20 -20 -20 1 -4 -20 -20 -20 -20 -20 -20 -20 -20 -20 -20 -20 -20 -20 -20 -20 -20 -20 -20 -20 -20 -20 -20
-20 -20 -20 -20 -20 -20 -16 -16 -15 -20 -7 -19 -20 -4 -13 -20 -20 -20 -20 -20 -11 -3 -19 -19 -20 -20 -20 -20 -20 -20 -20 -20 -20 -20 -19 -20 -4 -20 -20 -20 -20 -20 -20 -20 -20 -20 -20 -20 -20 -20 -20 -20 -20 -20
-20 -20 -20 -20 -20 -20 -11 -18 -14 -20 -20 -19 -20 -13 -13 -20 -20 -20 -20 -16 -12 -18 -20 -20 -20 -20 -20 -20 -20 -20 -20 -20 -20 -20 -20 -20 -20 -20 -20 -20 -20 -20 -20 -20 -20 -20 -20 -20 -20 -20 -20 -20 -20 -20
-20 -20 -20 -20 -20 -11 -17 -15 -20 -20 -20 -20 -20 -17 -9 -20 -20 -20 -14 -17 -19 -20 -20 -20 -20 -20 -11 -20 -20 -20 -20 -20 -20 -20 -20 -20 -20 -20 -20 -20 -20 -20 -20 -20 -20 -20 -20 -20 -20 -20 -20 -20 -20 -20
-20 -20 -20 -20 -20 -20 -20 -20 -8 -20 -20 -20 -20 -20 -20 -20 -20 -19 -20 -9 -9 -20 -20 -20 -19 -3 -20 -20 -20 -20 -20 -20 -20 -20 -20 -20 -20 -20 -20 -20 -20 -20 -20 -20 -20 -20 -20 -20 -20 -20 -20 -20 -20 -20
-20 -20 -20 -20 -20 -20 -20 -20 -20 -20 -20 -20 -20 -20 -20 -20 -20 -20 -11 -7 -14 -20 -16 -7 -20 -20 -20 -20 -20 -20 -20 -20 -20 -20 -20 -20 -20 -20 -20 -20 -20 -20 -20 -20 -20 -20 -20 -20 -20 -20 -20 -20 -20 -20
-20 -20 -20 -20 -20 -20 -20 -20 -20 -20 -20 -20 -20 -20 -20 -20 -20 -5 -5 -20 -20 -1 -20 -20 -20 -20 -20 -20 -20 -20 -20 -20 -20 -20 -20 -20 -20 -20 -20 -20 -20 -20 -20 -20 -20 -20 -20 -20 -20 -20 -20 -20 -20 -20
-20 -20 -20 -20 -20 -20 -20 -20 -20 -20 -20 -20 -20 -20 -20 -20 -8 -17 0 0 -20 -20 -20 -20 -20 -20 -20 -20 -20 -20 -20 -20 -20 -20 -20 -20 -20 -20 -20 -20 -20 -20 -20 -20 -20 -20 -20 -20 -20 -20 -20 -20 -20 -20
-20 -20 -20 -20 -20 -20 -20 -20 -20 -20 -20 -20 -20 -20 -20 -16 -14 -6 -20 -20 -20 -20 -20 -20 -20 -20 -20 -20 -20 -20 -20 -20 -20 -20 -20 -20 -20 -20 -20 -20 -20 -20 -20 -20 -20 -20 -20 -20 -20 -20 -20 -20 -20 -20
-18 -20 -20 -20 -20 -20 -4 -8 -17 -19 -20 -20 -11 -12 -18 -11 -0 -20 -20 -18 -20 -20 -20 -20 -20 -20 -20 -20 -20 -20 -20 -20 -20 -20 -20 -20 -20 -20 -20 -20 -20 -20 -20 -20 -20 -20 -20 -20 -20 -20 -20 -20 -20 -20
-20 -20 -20 -20 -14 -19 -14 -1 -8 -20 -20 -20 -20 -20 -20 -14 -16 -12 -17 -20 -20 -20 -20 -20 -20 -20 -20 -20 -20 -20 -20 -20 -20 -20 -20 -20 -20 -20 -20 -20 -20 -20 -20 -20 -20 -20 -20 -20 -20 -20 -20 -20 -20 -20
-20 -20 -20 -18 -19 -20 -9 -20 -20 -17 -4 -20 -20 -20 -20 -10 -20 -20 -20 -20 -8 -19 -20 -20 -20 -20 -20 -20 -20 -20 -20 -20 -20 -20 -20 -20 -20 -20 -20 -20 -20 -20 -20 -20 -20 -20 -20 -20 -20 -20 -20 -20 -20 -20
-20 -20 -20 -20 -20 -20 -20 -18 -18 -4 1 -16 -17 -8 -20 -20 -20 -20 -20 -20 -20 -20 -20 -20 -20 -20 -20 -20 -20 -20 -20 -20 -20 -20 -20 -20 -20 -20 -20 -20 -20 -20 -20 -20 -20 -20 -20 -20 -20 -20 -20 -20 -20 -20

GFSWCAN_prec_radar_078.txt.gz
Reflectivity
3 9 -19 -20 -20 -20 -20 7 11 9 3 -20 -6 7 15 -9 -5 13 -20 -20 -15 -11 -20 -20 -20 -20 -20 -20 -11 -19 -20 0 -19 -20 -20 -20 -20 -20 -20 -14 -20 -20 -2 9 16 16 -16 10 18 32 34 31 31 31
7 -13 4 7 -0 -20 4 6 8 7 6 5 11 8 -15 -2 -12 16 -20 -20 -20 7 -20 -20 -20 -20 -20 -20 -20 -16 -11 28 37 -20 -20 -20 -20 -19 -17 11 26 15 -9 -12 -20 -20 -5 3 19 31 20 34 23 25
-20 -8 7 -18 10 8 -20 -15 15 22 13 -3 14 13 -15 8 9 7 -20 -20 -20 7 -20 -20 -20 -20 -20 -20 -20 -20 13 30 34 4 17 18 -16 -13 7 27 33 39 -4 19 21 36 13 6 19 0 8 17 -7 4
-6 6 6 8 -12 -20 -8 5 5 -3 15 -5 -0 12 11 6 -1 19 -7 -20 -20 -20 -20 -20 -20 -20 -20 -20 -20 -20 -17 -3 33 29 4 18 9 27 29 17 20 19 28 19 20 30 27 31 34 29 -8 9 -19 -2
5 8 -12 -19 -1 6 -10 13 10 5 19 14 18 17 16 13 -9 16 9 -17 -20 -20 -12 -20 -20 -20 -20 -20 -20 -20 5 -17 13 28 -18 13 24 25 35 23 13 30 24 28 25 33 33 34 31 17 14 7 -4 3
-5 -20 3 1 -3 -10 -17 10 7 14 17 -2 17 14 18 15 19 23 33 17 -9 -20 -20 -20 -20 -20 -20 -20 -20 -20 -5 -20 13 -20 9 -20 19 24 32 15 22 34 39 22 32 32 31 24 14 11 5 -11 -20 -20
-2 2 -15 -20 -14 8 -5 -1 -11 16 -3 -4 13 -10 23 24 15 25 13 -16 13 6 23 -20 -20 -20 9 -20 -20 -20 -20 -20 -20 3 -8 -20 18 22 25 18 20 19 24 27 25 29 16 11 3 -7 -20 -20 -20 -20
-15 4 1 4 11 9 8 8 7 13 16 -4 1 14 28 27 22 27 -2 -17 6 9 -1 -16 -19 -18 15 -19 2 -20 -6 -6 -1 10 -8 2 32 -6 -0 16 17 19 12 -8 -13 -10 -15 -10 -14 -20 -20 -20 -20 -20
4 -9 6 -18 -20 5 -8 -16 10 2 4 -7 19 24 36 24 25 24 12 14 1 -10 -19 -17 -20 -2 6 -5 -18 -10 -5 11 11 12 -20 5 -16 -12 20 -13 -6 3 -8 -20 -20 -20 -20 -20 -20 -20 -20 -20 -20 -20
6 -15 -20 -20 -5 13 11 17 7 22 19 25 23 27 27 25 27 31 32 30 34 14 -3 -13 -3 16 23 -12 6 33 14 1 4 -10 -4 -19 -3 -19 -20 -20 -20 -20 -20 -20 -20 -13 -18 -20 -20 -20 -20 -20 -20 -20
-4 -9 -20 7 -16 13 -10 21 24 19 19 14 37 22 19 28 -6 24 17 -4 -11 -3 -20 -20 -20 29 16 30 -17 15 -5 -20 2 -19 -18 -20 -8 -3 -19 -20 -20 -20 -20 -20 -20 -20 -20 -20 -20 -20 -20 -20 -20 -20
-20 9 16 -1 13 23 32 32 27 12 7 19 16 31 32 30 21 -19 -20 6 -20 -20 -20 -4 -20 -20 29 13 3 -4 -20 -19 2 22 -20 -20 -2 -20 -20 -20 -20 -20 -20 -20 -20 -20 -20 -20 -20 -20 -20 -14 -20 -20
15 20 -3 14 5 22 28 26 12 -20 -13 3 16 25 19 23 10 10 -17 -20 -8 9 3 -2 -9 -16 30 24 1 -20 -20 9 -18 -14 -13 -20 -9 -20 -20 -20 -20 -20 -20 -20 -20 -20 -19 -20 -20 -20 -20 -20 -20 -20
9 21 23 21 20 22 31 39 36 30 29 22 14 -2 -20 -20 -20 -20 -20 -20 -20 -20 -9 -20 12 6 17 -20 2 -13 -20 -20 -20 -20 -20 -20 -20 -20 -20 -20 -20 -20 -20 -20 -20 -20 -20 -20 -20 -20 -20 -20 -20 -20
18 19 16 14 17 30 16 15 14 -20 -20 -20 -20 -20 -20 -20 -20 -19 -20 -20 -20 -4 -15 -20 -20 -20 -20 -20 -20 -20 -20 -20 -20 -20 -20 -20 -20 -20 -20 -20 -20 -20 -20 -20 -20 -20 -20 -20 -20 -20 -20 -20 -20 -20
16 31 26 25 -1 28 26 4 -20 -6 -20 -20 -20 -6 -17 -20 -19 -20 -20 -15 2 -13 -17 -20 -20 -20 -20 -20 -20 -20 -20 -20 -20 -20 -20 -20 -20 -20 -20 -20 -20 -20 -20 -20 -20 -20 -20 -20 -20 -20 -20 -20 -20 -20
2 -19 8 14 3 -18 -20 -20 -20 -20 -20 -20 -20 -20 -20 -20 -18 -20 -20 -20 29 16 -20 -20 -20 -20 -20 -20 -20 -20 -20 -20 -20 -20 -20 -20 -20 -20 -20 -20 -20 -20 -20 -20 -20 -20 -20 -20 -20 -20 -20 -20 -20 -20
-17 -20 -20 -20 -20 -20 -16 -19 -20 -20 -20 -20 -20 -20 -20 -20 -20 -20 -20 -20 -20 -20 -20 -20 -20 -20 -20 -20 -20 -20 -20 -20 -20 -20 -20 -20 -20 -20 -20 -20 -20 -20 -20 -20 -20 -20 -20 -20 -20 -20 -20 -20 -20 -20
16 13 24 17 -2 -20 -9 -15 -20 -20 -20 -20 -20 -20 -20 -19 -20 -20 -20 -20 -20 -20 -20 -20 -20 -20 -20 -20 -20 -20 -20 -20 -20 -20 -20 -20 -20 -20 -20 -20 -20 -20 -20 -20 -20 -20 -20 -20 -20 -20 -20 -20 -20 -20
27 19 22 22 16 4 -20 -20 -20 -20 -20 -20 -20 -20 -20 -15 -20 -20 -20 -20 -20 -20 -20 -20 -20 -20 -20 -20 -20 -20 -20 -20 -20 -20 -20 -20 -20 -20 -20 -20 -20 -20 -20 -20 -20 -20 -20 -20 -20 -20 -20 -20 -20 -20
4 21 26 22 -6 -20 -20 -20 -20 -20 -20 -20 -20 -20 -20 -20 -20 -20 -20 -20 -20 -20 -20 -20 -20 -20 -20 -20 -20 -20 -20 -20 -20 -20 -20 -20 -20 -20 -20 -20 -20 -20 -20 -20 -20 -20 -20 -20 -20 -20 -20 -20 -20 -20
-20 -20 -18 -14 -20 -20 -20 -20 -20 -20 -4 -20 -16 -20 -20 -20 -20 -20 -20 -20 -20 -18 -20 -20 -20 -20 -20 -20 -20 -20 -20 -20 -20 -20 -20 -20 -20 -20 -20 -20 -20 -20 -20 -20 -20 -20 -20 -20 -20 -20 -20 -20 -20 -20
-20 -20 -20 -20 -20 -20 -20 -18 -20 -20 -20 -20 -20 -20 -20 -20 -20 -20 -20 -20 -20 -20 -20 -20 -20 -20 -20 -20 -20 -20 -20 -20 -20 -20 -20 -20 -20 -20 -20 -20 -20 -20 -20 -20 -20 -20 -20 -20 -20 -20 -20 -20 -20 -20
-20 -20 -20 -20 -20 -14 -20 -20 -20 -20 -20 -20 -20 -20 -20 -20 -20 -20 -20 -20 -20 -20 -20 -20 -20 -20 -20 -20 -20 -20 -20 -20 -20 -20 -20 -20 -20 -20 -20 -20 -20 -20 -20 -20 -20 -20 -20 -20 -20 -20 -20 -20 -20 -20
-20 -20 -20 -20 -20 -20 -20 -20 -20 -20 -20 -20 -20 -20 -20 -20 -20 -20 -20 -20 -20 -20 -20 -20 -20 -20 -20 -20 -20 -20 -20 -20 -20 -20 -20 -20 -20 -20 -20 -20 -20 -20 -20 -20 -20 -20 -20 -20 -20 -20 -20 -20 -20 -20
-20 -20 -20 -20 -20 -20 -20 -20 -20 -20 -20 -20 -20 -20 -20 -20 -20 -20 -20 -20 -20 -20 -20 -20 -20 -20 -20 -20 -20 -20 -20 -20 -20 -20 -20 -20 -20 -20 -20 -20 -20 -20 -20 -20 -20 -20 -20 -20 -20 -20 -20 -20 -20 -20
-20 -20 -20 -20 -20 -20 -20 -20 -20 -20 -20 -20 -20 -20 -20 -20 -20 -20 -20 -20 -20 -20 -20 -20 -20 -20 -20 -20 -20 -20 -20 -20 -20 -20 -20 -20 -20 -20 -20 -20 -20 -20 -20 -20 -20 -20 -20 -20 -20 -20 -20 -20 -20 -20
-20 -20 -20 -20 -20 -20 -20 -20 -20 -20 -20 -20 -20 -20 -20 -20 -20 -17 -20 -20 -20 -20 -20 -20 -20 -20 -20 -20 -20 -20 -20 -20 -20 -20 -20 -20 -20 -20 -20 -20 -20 -20 -20 -20 -20 -20 -20 -20 -20 -20 -20 -20 -20 -20
-20 -20 -20 -20 -20 -20 -20 -20 -20 -20 -20 -20 -20 -20 -20 -20 -20 -19 -12 -20 -20 -20 -20 -20 -20 -20 -20 -20 -20 -20 -20 -20 -20 -20 -20 -20 -20 -20 -20 -20 -20 -20 -20 -20 -20 -20 -16 -20 -20 -20 -20 -20 -20 -20
-20 -20 -20 -20 -20 -20 -20 -20 -20 -20 -20 -20 -20 -20 -20 6 12 -8 -20 -20 -20 -20 -20 -20 -20 -20 -20 -20 -20 -20 -20 -20 -20 -20 -20 -20 -20 -20 -20 -20 -20 -20 -20 -20 -20 -20 -20 -20 -20 -20 -20 -20 -20 -20
-20 -20 -20 -20 -20 -20 -20 -20 -20 -20 -20 -20 -20 -20 -20 -7 -13 -12 -20 -20 -20 -20 -20 -20 -20 -20 -20 -20 -20 -20 -20 -20 -20 -20 -20 -20 -20 -20 -20 -20 -20 -20 -20 -20 -20 -20 -20 -20 -20 -20 -20 -20 -20 -20
-20 -20 -20 -20 -19 -20 -20 -20 -20 -20 -20 -20 -20 -20 -20 -20 -20 -20 -16 -17 -20 -20 -20 -20 -20 -20 -20 -20 -20 -20 -20 -20 -20 -20 -20 -20 -20 -20 -20 -20 -20 -20 -20 -20 -20 -20 -20 -20 -20 -20 -20 -20 -20 -20
-20 -20 -20 -20 -20 -20 -20 -20 -20 -20 -20 -20 -20 -20 -20 -20 -20 -20 -20 -20 -20 -20 -20 -20 -20 -20 -20 -20 -20 -20 -20 -20 -20 -20 -20 -20 -20 -20 -20 -20 -20 -20 -20 -20 -20 -20 -20 -20 -20 -20 -20 -20 -20 -20

GFSWCAN_prec_radar_081.txt.gz
Reflectivity
1 9 -20 12 -9 -20 -20 -20 -20 -20 -9 13 8 14 -20 -13 16 33 9 -8 -17 -20 -20 -20 -20 -20 -20 -20 -20 -20 -15 -18 -20 -20 -20 -20 -20 -20 -20 -20 -20 -20 -13 -18 -19 9 -14 -18 10 31 31 34 37 41
16 -19 -20 -17 -20 -20 -20 -20 -8 3 -20 10 -9 4 9 9 -4 11 -7 4 -20 2 -20 -20 -20 -20 -20 -20 -20 -20 -20 -11 36 7 -20 -20 -20 -20 -20 -20 -20 -19 -17 -1 -20 -13 8 10 5 21 34 25 32 35
12 -20 -20 -20 -20 -20 11 -16 -20 -20 -7 16 14 9 -15 -8 13 9 -17 2 4 -7 -17 -20 -20 -20 -20 -20 -20 -20 -20 23 32 31 30 3 -12 14 -9 7 10 24 37 18 -7 16 8 6 11 30 25 29 21 22
-20 -20 -19 -20 -20 -8 -20 -20 -20 -1 -5 17 18 -19 -12 13 11 20 10 -20 -20 -20 -20 -20 -20 -20 -20 -20 -20 -20 -14 -2 -7 1 10 -8 -2 11 23 22 10 26 22 28 22 21 27 35 36 32 21 29 12 7
-20 -20 -3 -6 10 -20 -20 -1 2 1 -7 10 17 17 25 17 -0 19 3 4 -20 -20 -20 -20 -20 -20 -20 -20 -20 -20 -20 -20 -2 -19 -18 -20 6 36 35 15 -20 9 24 16 12 28 25 22 32 32 19 15 -2 -13
-20 8 6 -20 -20 -20 -9 2 -1 -11 -17 15 16 16 27 18 21 20 41 13 16 -18 -20 -20 -20 -20 -20 -20 -20 -20 -20 -20 -20 11 -20 -20 -20 29 22 13 14 17 24 34 21 36 35 33 19 15 18 2 2 -20
-3 -20 -10 -20 -20 -7 -7 5 -1 11 14 16 14 18 26 18 -6 14 -8 -20 2 -3 10 -20 -20 -20 -20 -20 -20 -20 -20 -20 -12 -16 -20 -18 23 32 9 15 14 26 26 28 34 32 19 20 6 4 -1 -12 -20 -20
-20 -20 -1 -19 2 4 6 6 9 -9 -3 17 24 17 23 31 8 -9 -20 -9 0 32 2 -20 -20 -20 12 -20 -20 -20 -17 13 3 -20 1 13 21 22 9 18 14 15 16 14 13 4 -14 -19 -9 -20 -20 -20 -20 -20
-4 -6 13 13 10 9 10 11 15 12 16 -7 21 24 33 33 23 7 6 21 11 13 -18 -20 -20 -19 -13 -1 -20 -20 -20 -8 -20 1 10 -16 -13 6 5 -19 -20 -20 -18 -16 -20 -20 -20 -20 -20 -20 -20 -20 -20 -20
1 8 4 -1 -20 1 10 18 13 22 -1 29 19 28 23 23 17 24 38 32 36 30 16 -19 -20 -9 23 14 -5 -19 -13 -4 0 7 8 -19 -8 -20 -20 -20 -20 -20 -20 -20 -20 -20 -20 -20 -20 -20 -20 -20 -20 -20
2 -7 5 -11 -20 4 15 18 2 -8 29 33 21 30 9 18 27 27 -4 -1 -18 -7 -20 -16 -9 -20 8 17 -20 22 2 -17 -18 -16 -1 -20 -20 -20 -20 -20 -20 -20 -20 -20 -20 -20 -20 -20 -20 -20 -20 -20 -20 -20
13 3 7 -20 13 -2 -1 20 11 31 29 6 19 21 28 36 31 8 -14 -6 -20 -20 -20 -5 -17 -20 -12 35 9 -8 3 8 -14 26 -8 -20 -8 -20 -20 -20 -20 -20 -20 -20 -20 -20 -20 -20 -20 -20 -20 -20 -20 -20
14 2 10 6 16 12 14 27 35 25 -8 -17 -5 28 32 14 0 -20 -20 -20 -20 -20 -20 -10 12 -20 -20 14 18 -10 -20 -20 -20 -18 -15 -20 -20 -20 -20 -20 -20 -20 -20 -20 -20 -20 -20 -20 -20 -20 -20 -20 -20 -20
6 16 20 11 29 23 29 36 29 23 2 17 21 14 8 -12 -20 -20 -20 -20 -20 -20 -20 -20 4 10 26 -5 -20 -20 -20 -20 -20 -20 -20 -20 -20 -20 -20 -20 -20 -20 -20 -20 -20 -20 -20 -20 -20 -20 -20 -20 -20 -20
21 13 18 15 28 29 28 30 22 -10 -6 13 1 -14 -20 -19 -20 -20 -20 -20 -16 -12 -10 -18 -18 9 -20 -20 -20 -20 -20 -20 -20 -20 -20 -20 -20 -20 -20 -20 -20 -20 -20 -20 -20 -20 -20 -20 -20 -20 -20 -20 -20 -20
4 18 27 33 31 31 22 12 11 19 19 2 -20 -6 -20 -20 -17 -20 -19 -19 -10 6 -20 -20 -20 -17 -20 -20 -20 -20 -20 -20 -20 -20 -20 -20 -20 -20 -20 -20 -20 -20 -20 -20 -20 -20 -20 -20 -20 -20 -20 -20 -20 -20
-11 -10 22 34 28 29 29 12 9 -11 3 -20 -20 -20 -20 -20 -20 -20 -18 -16 -4 15 -20 -20 -20 -20 -20 -20 -20 -20 -20 -20 -20 -20 -20 -20 -20 -20 -20 -20 -20 -20 -20 -20 -20 -20 -20 -20 -20 -20 -20 -20 -20 -20
1 -3 -1 21 24 -17 -20 -20 -20 -20 -20 -20 -20 -20 -20 -20 -20 -20 -20 -18 -18 -20 -20 -20 -20 -20 -20 -20 -20 -20 -20 -20 -20 -20 -20 -20 -20 -20 -20 -20 -20 -20 -20 -20 -20 -20 -20 -20 -20 -20 -20 -20 -20 -20
-14 -20 -20 -20 -20 -20 -18 -20 -20 -20 -20 -20 -19 -20 -20 -20 -20 -20 -20 -20 -18 -20 -20 -20 -20 -20 -20 -20 -20 -20 -20 -20 -20 -20 -20 -20 -20 -20 -20 -20 -20 -20 -20 -20 -20 -20 -20 -20 -20 -20 -20 -20 -20 -20
30 28 8 -3 -20 -20 -20 -20 -20 -20 -20 -20 -20 -20 -20 -20 -20 -20 -20 -20 -20 -20 -20 -20 -20 -20 -20 -20 -20 -20 -20 -20 -20 -20 -20 -20 -20 -20 -20 -20 -20 -20 -20 -20 -20 -20 -20 -20 -20 -20 -20 -20 -20 -20
17 23 23 9 3 -11 -20 -20 -20 -20 -20 -20 -20 -20 -20 -20 -20 -20 -20 -20 -20 -20 -20 -20 -20 -20 -20 -20 -20 -20 -20 -20 -20 -20 -20 -20 -20 -20 -20 -20 -20 -20 -20 -20 -20 -20 -20 -20 -20 -20 -20 -20 -20 -20
1 6 5 3 -18 -20 -20 -20 -20 -20 -20 -20 -20 -20 -20 -20 -20 -20 -20 -20 -20 -20 -20 -20 -20 -20 -20 -20 -20 -20 -20 -20 -20 -20 -20 -20 -20 -20 -20 -20 -20 -20 -20 -20 -20 -20 -20 -20 -20 -20 -20 -20 -20 -20
-20 -9 6 -5 -4 -15 -19 -1 -20 -20 -20 -20 -20 -20 -20 -20 -20 -20 -20 -20 -20 -20 -20 -20 -20 -20 -20 -20 -20 -20 -20 -20 -20 -20 -20 -20 -20 -20 -20 -20 -20 -20 -20 -20 -20 -20 -20 -20 -20 -20 -20 -20 -20 -20
-20 -20 -20 -20 -20 -19 -20 -20 -20 -20 -20 -20 -20 -20 -20 -20 -20 -20 -20 -20 -20 -20 -20 -20 -20 -20 -20 -20 -20 -20 -20 -20 -20 -20 -20 -20 -20 -20 -20 -20 -20 -20 -20 -20 -20 -20 -20 -20 -20 -20 -20 -20 -20 -20
-20 -20 -20 -20 -20 -20 -20 -20 -20 -20 -20 -20 -20 -20 -20 -20 -20 -20 -20 -20 -20 -20 -20 -20 -20 -20 -20 -20 -20 -20 -20 -20 -20 -20 -20 -20 -20 -20 -20 -20 -20 -20 -20 -20 -20 -20 -20 -20 -20 -20 -20 -20 -20 -20
-20 -20 -20 -20 -20 -20 -20 -20 -20 -20 -20 -20 -20 -20 -20 -20 -20 -20 -20 -20 -20 -20 -20 -20 -20 -20 -20 -20 -20 -20 -20 -20 -20 -20 -20 -20 -20 -20 -20 -20 -20 -20 -20 -20 -20 -20 -20 -20 -20 -20 -20 -20 -20 -20
-20 -20 -20 -20 -20 -20 -20 -20 -20 -20 -20 -20 -20 -20 -20 -20 -20 -20 -20 -20 -20 -20 -20 -20 -20 -20 -20 -20 -20 -20 -20 -20 -20 -20 -20 -20 -20 -20 -20 -20 -20 -20 -20 -20 -20 -20 -20 -20 -20 -20 -20 -20 -20 -20
-20 -20 -20 -20 -20 -20 -20 -20 -20 -20 -20 -20 -20 -20 -20 -20 -20 -20 -20 -20 -20 -20 -20 -20 -20 -20 -20 -20 -20 -20 -20 -20 -20 -20 -20 -20 -20 -20 -20 -20 -20 -20 -20 -20 -20 -20 -20 -20 -20 -20 -20 -20 -20 -20
-20 -20 -20 -20 -20 -20 -20 -20 -20 -20 -20 -20 -20 -20 -20 -20 -20 -20 -20 -20 -20 -20 -20 -20 -20 -20 -20 -20 -20 -20 -20 -20 -20 -20 -20 -20 -20 -20 -20 -20 -20 -20 -20 -20 -20 -20 -20 -20 -20 -20 -20 -20 -20 -20
-20 -20 -20 -20 -20 -20 -20 -20 -20 -20 -20 -20 -20 -20 -20 -19 7 -8 -20 -20 -20 -20 -20 -20 -20 -20 -20 -20 -20 -20 -20 -20 -20 -20 -20 -20 -20 -20 -20 -20 -20 -20 -20 -20 -20 -20 -20 -20 -20 -20 -20 -20 -20 -20
-20 -20 -20 -20 -20 -20 -20 -20 -20 -20 -20 -20 -20 -20 -20 -11 -5 4 -12 -19 -20 -20 -20 -20 -20 -20 -20 -20 -20 -20 -20 -20 -20 -20 -20 -20 -20 -20 -20 -20 -20 -20 -20 -20 -20 -20 -20 -20 -20 -20 -20 -20 -20 -20
-20 -20 -20 -20 -20 -20 -20 -20 -20 -20 -20 -20 -20 -20 -20 -20 -20 -20 -19 -20 -20 -20 -20 -20 -20 -20 -20 -20 -20 -20 -20 -20 -20 -20 -20 -20 -20 -20 -20 -20 -20 -20 -20 -20 -20 -20 -20 -20 -20 -20 -20 -20 -20 -20
-20 -20 -20 -20 -20 -20 -20 -20 -20 -20 -20 -20 -20 -20 -20 -20 -20 -20 -20 -20 -20 -20 -20 -20 -20 -20 -20 -20 -20 -20 -20 -20 -20 -20 -20 -20 -20 -20 -20 -20 -20 -20 -20 -20 -20 -20 -20 -20 -20 -20 -20 -20 -20 -20

GFSWCAN_prec_radar_087.txt.gz
Reflectivity
8 -8 -19 -20 -9 -2 13 -20 -10 -20 -20 -20 -20 -20 -19 8 13 -14 4 -15 24 -11 -20 -20 -20 -20 -20 -20 -10 -20 -19 7 -12 -20 -15 -16 -20 -20 -20 -20 -20 -3 -12 -20 -20 -17 -20 -20 -20 -3 22 26 28 19
11 10 7 6 10 2 -2 2 -18 -20 -20 -20 -20 15 15 -17 17 -7 2 6 15 8 -20 -20 -20 -20 -20 -20 -20 -20 -20 -3 2 -6 -4 5 -20 -20 -20 -20 -4 5 2 -20 12 3 4 4 -1 4 29 31 26 25
-3 -3 -12 12 20 10 -18 -20 -20 -17 -20 -15 17 -14 13 -17 14 -11 -14 8 23 24 -20 -20 -20 -20 -20 -20 -20 -15 -20 -20 6 7 4 10 -5 3 5 -19 -20 -20 -20 -0 7 18 11 -1 -3 4 15 23 20 23
-20 -19 4 -4 20 7 -20 -20 -20 -20 -20 -20 -12 -20 13 14 12 -3 -20 -20 -19 -20 -20 -20 -20 -20 -20 -20 -20 -20 -20 -20 -6 -8 -18 -1 -15 23 9 -17 -20 -18 -20 -18 13 14 9 -19 2 6 14 17 18 21
-20 11 -20 17 16 -20 -20 -20 -20 -20 -4 -4 -16 10 26 28 9 -5 -20 -20 -20 -20 -20 -20 -20 -20 -20 -20 -20 -20 -20 -20 -20 -20 -16 -18 12 23 12 -20 -20 -13 -4 -4 -17 3 -6 6 12 11 15 15 13 9
11 -20 8 17 -2 -20 -20 -7 -20 2 -20 8 5 4 23 23 20 18 27 -13 -20 -20 5 -20 -20 -20 -20 -20 -20 -20 -20 -20 -20 -6 -20 -20 -4 23 -6 -4 -11 -15 9 7 6 6 5 14 13 15 16 16 13 13
-12 -12 15 12 -20 -20 -20 14 9 -20 -20 -14 -17 13 25 20 19 14 -20 -20 -16 -17 17 -20 -20 -20 -20 -20 -20 -20 -20 -20 -20 -14 -5 -20 -17 20 -13 7 -20 6 9 8 13 2 6 14 8 9 5 9 4 -6
18 12 16 -20 -20 -20 11 5 -20 -20 -20 -11 10 21 26 24 32 10 -20 -10 -19 3 -18 -20 -20 -20 -20 -20 -20 -20 -20 -20 -4 -15 -20 2 -20 -14 10 9 9 11 6 6 8 9 0 -12 -19 -20 -20 -20 -19 -20
14 16 -17 -20 -20 -20 10 -20 -20 -20 -20 9 18 25 28 21 25 18 -2 4 -0 10 -19 -20 -20 -20 -16 -18 -14 5 -20 -20 -20 8 -17 -9 -12 -20 -16 3 -13 -14 -14 -3 -6 -19 -20 -20 -20 -20 -20 -20 -20 -20
10 -20 -20 -20 -20 -20 -20 13 -7 -19 -20 18 31 33 18 14 20 25 30 20 27 23 26 -20 -20 -20 -20 25 -20 -20 -15 -20 -19 -15 -6 -20 -20 -20 -20 -20 -20 -20 -20 -20 -20 -20 -20 -20 -20 -20 -20 -20 -20 -20
-20 -20 -20 -20 -20 -20 2 -9 -0 19 20 35 28 11 12 24 17 32 2 -6 -10 -20 -20 -4 -20 -20 -20 -7 -19 -20 -15 -20 6 -20 -5 -20 -20 -20 -20 -20 -20 -20 -20 -20 -20 -20 -20 -20 -20 -20 -20 -20 -20 -20
-20 -18 -20 -20 -4 5 6 23 22 28 25 25 3 13 23 27 27 14 -10 -4 -15 -20 -20 -20 -20 -20 -1 -15 -20 -12 -12 -4 -11 -18 -20 -20 -20 -20 -20 -20 -20 -20 -20 -20 -20 -20 -20 -20 -20 -20 -20 -20 -20 -20
6 12 9 1 15 20 17 14 26 27 6 35 3 17 17 10 6 -11 -20 -20 -20 -20 -20 -20 -8 -20 -20 -4 -16 16 2 5 -20 -20 -20 -20 -20 -20 -20 -20 -20 -20 -20 -20 -20 -20 -20 -20 -20 -20 -20 -20 -20 -20
-0 15 14 13 11 -5 9 15 32 28 30 10 15 18 -20 -20 -20 -20 -20 -20 -20 -20 -20 -20 -20 -20 -20 -2 15 -20 -20 -20 -20 -20 -20 -20 -20 -20 -20 -20 -20 -20 -20 -20 -20 -20 -20 -20 -20 -20 -20 -20 -20 -20
32 22 -4 -18 -10 -2 -1 21 32 25 33 19 -20 -20 -20 -20 -20 -20 -20 -20 -18 -20 -10 -20 -20 -5 -20 -17 -20 -20 -20 -20 -20 -20 -20 -20 -20 -20 -20 -20 -20 -20 -20 -20 -20 -20 -20 -20 -20 -20 -20 -20 -20 -20
22 1 2 -20 -9 7 -2 33 32 27 23 7 -20 -20 -20 -20 -20 -20 -20 -20 -20 -20 -20 -20 7 7 5 -20 -20 -20 -20 -20 -20 -20 -20 -20 -20 -20 -20 -20 -20 -20 -20 -20 -20 -20 -20 -20 -20 -20 -20 -20 -20 -20
7 21 28 10 17 30 32 33 28 25 18 -0 -19 -20 -20 -20 -20 -20 -20 -20 -20 -10 -20 -20 -20 -20 -2 -20 -20 -20 -20 -20 -20 -20 -20 -20 -20 -20 -20 -20 -20 -20 -20 -20 -20 -20 -20 -20 -20 -20 -20 -20 -20 -20
15 34 33 24 18 24 31 35 29 17 -17 -20 -20 -20 -20 -20 -20 -20 -20 -8 -18 -20 -20 -20 -20 -20 -20 -20 -20 -20 -20 -20 -20 -20 -20 -20 -20 -20 -20 -20 -20 -20 -20 -20 -20 -20 -20 -20 -20 -20 -20 -20 -20 -20
15 31 30 33 26 24 24 16 -13 -20 -20 -20 -20 -20 -20 -20 -20 -20 -20 -11 -17 -20 -15 -20 -20 -20 -20 -20 -20 -20 -20 -20 -20 -20 -20 -20 -20 -20 -20 -20 -20 -20 -20 -20 -20 -20 -20 -20 -20 -20 -20 -20 -20 -20
19 25 26 2 9 -3 -6 11 12 -8 -20 -20 -20 -20 -20 -20 -20 -18 -19 -20 -20 -18 -20 -20 -20 -20 -20 -20 -20 -20 -20 -20 -20 -20 -20 -20 -20 -20 -20 -20 -20 -20 -20 -20 -20 -20 -20 -20 -20 -20 -20 -20 -20 -20
-18 10 14 -14 -20 -20 -20 -20 -20 -20 -20 -20 -20 -20 -20 -20 -20 -20 -19 -20 -20 -20 -20 -20 -20 -20 -20 -20 -20 -20 -20 -20 -20 -20 -20 -20 -20 -20 -20 -20 -20 -20 -20 -20 -20 -20 -20 -20 -20 -20 -20 -20 -20 -20
-16 -19 -20 10 18 -13 -20 -20 -20 -20 -20 -20 -20 -20 -20 -20 -20 -20 -20 -20 -20 -20 -20 -20 -20 -20 -20 -20 -20 -20 -20 -20 -20 -20 -20 -20 -20 -20 -20 -20 -20 -20 -20 -20 -20 -20 -20 -20 -20 -20 -20 -20 -20 -20
-9 -14 -20 -20 -20 -20 -20 -19 -20 -20 -20 -20 -20 -20 -20 -20 -20 -20 -20 -20 -20 -20 -20 -20 -20 -20 -20 -20 -20 -20 -20 -20 -20 -20 -20 -20 -20 -20 -20 -20 -20 -20 -20 -20 -20 -20 -20 -20 -20 -20 -20 -20 -20 -20
12 14 7 -20 -20 -20 -20 -20 -20 -20 -20 -20 -20 -20 -20 -20 -20 -20 -20 -20 -20 -20 -20 -20 -20 -20 -20 -20 -20 -20 -20 -20 -20 -20 -20 -20 -20 -20 -20 -20 -20 -20 -20 -20 -20 -20 -20 -20 -20 -20 -20 -20 -20 -20
-17 -1 -9 -20 -20 -20 -20 -20 -20 -20 -20 -20 -20 -20 -20 -20 -20 -20 -20 -20 -20 -20 -20 -20 -20 -20 -20 -20 -20 -20 -20 -20 -20 -20 -20 -20 -20 -20 -20 -20 -20 -20 -20 -20 -20 -20 -20 -20 -20 -20 -20 -20 -20 -20
-20 -13 9 -11 -20 -20 -20 -20 -20 -20 -20 -20 -20 -20 -20 -20 -20 -20 -20 -20 -20 -20 -20 -20 -20 -20 -20 -20 -20 -20 -20 -20 -20 -20 -20 -20 -20 -20 -20 -20 -20 -20 -20 -20 -20 -20 -20 -20 -20 -20 -20 -20 -20 -20
-20 -2 -5 -20 -20 -20 -20 -20 -20 -20 -20 -20 -20 -20 -20 -20 -20 -20 -20 -20 -20 -20 -20 -20 -20 -20 -20 -20 -20 -20 -20 -20 -20 -20 -20 -20 -20 -20 -20 -20 -20 -20 -20 -20 -20 -20 -20 -20 -20 -20 -20 -20 -20 -20
-20 -20 -20 -20 -20 -20 -20 -20 -20 -20 -20 -20 -20 -20 -20 -20 -20 -20 -20 -20 -20 -20 -20 -20 -20 -20 -20 -20 -20 -20 -20 -20 -20 -20 -20 -20 -20 -20 -20 -20 -20 -20 -20 -20 -20 -20 -20 -20 -20 -20 -20 -20 -20 -20
-20 -20 -20 -20 -20 -20 -20 -20 -20 -20 -20 -20 -20 -20 -20 -20 -20 -20 -20 -20 -20 -20 -20 -20 -20 -20 -20 -20 -20 -20 -20 -20 -20 -20 -20 -20 -20 -20 -20 -20 -20 -20 -20 -20 -20 -20 -20 -20 -20 -20 -20 -20 -20 -20
-20 -20 -20 -20 -20 -20 -20 -20 -20 -20 -20 -20 -20 -20 -20 -20 -20 -20 -20 -20 -20 -20 -20 -20 -20 -20 -20 -20 -20 -20 -20 -20 -20 -20 -20 -20 -20 -20 -20 -20 -20 -20 -20 -20 -20 -20 -20 -20 -20 -20 -20 -20 -20 -20
-20 -20 -20 -20 -20 -20 -20 -20 -20 -20 -20 -20 -20 -20 -20 -20 -20 -19 -20 -20 -20 -20 -20 -20 -20 -20 -20 -20 -20 -20 -20 -20 -20 -20 -20 -20 -20 -20 -20 -20 -20 -20 -20 -20 -20 -20 -20 -20 -20 -20 -20 -20 -20 -20
-20 -20 -20 -20 -20 -20 -20 -20 -20 -20 -20 -20 -20 -20 -20 -20 -20 -20 -20 -20 -20 -20 -20 -20 -20 -20 -20 -20 -20 -20 -20 -20 -20 -20 -20 -20 -20 -20 -20 -20 -20 -20 -20 -20 -20 -20 -20 -20 -20 -20 -20 -20 -20 -20
-20 -20 -20 -20 -20 -20 -20 -20 -20 -20 -20 -20 -20 -20 -20 -20 -20 -20 -19 -20 -20 -18 -20 -20 -20 -20 -20 -20 -20 -20 -20 -20 -20 -20 -20 -20 -20 -20 -20 -20 -20 -20 -20 -20 -20 -20 -20 -20 -20 -20 -20 -20 -20 -20

GFSWCAN_prec_radar_093.txt.gz
Reflectivity
13 1 8 -11 4 -20 -4 -20 1 13 1 -20 -15 -20 10 1 -20 15 16 -0 14 12 -20 -20 -3 -2 -20 -20 -6 -20 7 -8 -3 5 8 17 19 -14 19 -3 6 12 10 19 9 7 14 -20 -20 -13 3 10 7 -7
-3 -19 -20 13 -17 -3 -15 8 3 14 7 -20 -20 0 -20 -20 -20 -12 17 10 8 4 -17 -20 -20 -20 -20 -20 -20 -20 1 10 14 6 5 7 20 -9 1 25 -20 13 -1 8 -6 0 8 -1 4 1 4 3 6 2
7 -18 -15 6 -9 11 -20 8 -20 16 -19 -20 -20 -20 -20 -20 -20 -20 22 5 -3 2 -20 -19 -20 -20 -20 -20 -20 -20 4 7 5 -1 4 11 16 13 18 0 17 -17 -20 10 -13 6 -19 -4 3 2 1 0 4 3
12 -14 -20 -20 -20 -10 -20 -8 -14 -5 -20 -20 -20 -20 -20 -20 -20 -20 18 -11 3 -6 -1 2 -20 -20 -20 -20 -20 -20 -20 -20 -8 -20 5 13 18 7 12 7 -1 -2 -10 -4 -4 12 -11 -4 4 5 3 3 -4 7
6 -20 -20 -20 -7 -20 -20 -20 13 -6 -20 -20 -20 11 -20 -20 13 7 20 11 -20 11 8 2 -20 -20 -20 -20 -20 -20 -20 1 5 -4 2 15 28 20 6 -2 -1 3 4 6 5 2 -12 1 3 3 -11 -2 4 3
-8 -20 -20 -20 -20 -20 -20 12 -20 -20 -20 -12 -3 -20 -20 -20 15 21 29 11 -14 -19 12 13 18 -20 -20 -20 -20 -20 -20 5 4 -19 -1 -19 16 14 20 -10 -8 7 6 5 3 -9 -20 -3 -1 1 -10 -1 1 1
2 -4 -20 -20 -20 3 10 -17 -20 -20 -20 -18 -7 -20 -18 16 12 17 13 3 -11 -17 14 -9 21 -20 -19 1 -15 1 -5 7 3 8 11 13 3 5 11 9 4 6 16 9 8 2 -17 -7 -3 1 -2 1 2 -6
-15 -20 -20 -3 1 -3 13 -20 -20 -20 -20 -11 -20 -20 -20 29 30 10 2 -14 -4 9 6 3 9 -2 -20 -13 6 4 7 -20 -10 9 -1 7 -5 11 12 8 3 6 6 2 -5 -0 -5 -19 0 -1 -2 -17 -20 -20
-13 -17 -20 -14 7 16 14 -20 -20 5 -20 -20 -8 17 32 34 15 13 4 -14 9 12 14 -9 8 25 -20 -6 9 19 10 -6 10 8 8 5 10 3 12 0 3 -6 3 5 -6 -20 -20 -18 -20 -20 -20 -20 -20 -20
-20 -20 -19 5 11 15 -16 -20 -20 9 -19 9 18 34 25 27 6 12 22 20 9 7 10 4 -3 22 13 -10 15 18 8 7 2 7 10 10 -3 -19 3 -5 -20 -20 -20 -20 -20 -20 -20 -20 -20 -20 -20 -20 -20 -20
-20 -9 -10 10 -2 13 9 -20 -20 7 16 30 32 31 24 28 14 11 6 9 0 3 -4 -11 -8 4 17 10 13 -14 10 12 6 10 11 13 -1 -7 -20 -3 -20 -20 -20 -20 -20 -20 -20 -20 -20 -20 -20 -20 -20 -20
-20 -20 -20 16 12 -2 -20 -20 -15 14 19 4 25 26 28 29 15 12 8 -10 -6 3 -13 -10 -20 3 19 -17 18 -0 -8 8 13 6 11 12 -6 -20 -20 -20 -20 -20 -20 -20 -20 -20 -20 -20 -20 -20 -20 -20 -20 -20
-20 16 19 13 -17 -20 -20 -20 -20 21 24 29 25 4 29 16 16 4 3 -1 3 -2 4 -11 -4 3 6 -2 7 15 0 20 2 12 22 -3 -20 -20 -20 -20 -20 -20 -20 -20 -20 -20 -20 -20 -20 -20 -20 -20 -20 -20
1 20 14 -20 -18 -20 -20 -20 10 24 34 30 25 10 11 1 -0 -17 -20 -17 6 -1 -0 -20 9 12 11 5 12 6 19 4 10 6 8 -20 -20 -20 -20 -20 -20 -10 -19 -9 -6 -20 -20 -20 -20 -20 -20 -20 -20 -20
16 9 -9 -20 -19 -20 -20 -20 14 30 38 28 22 18 -20 -13 -16 -8 -9 -14 -20 -1 -13 -1 16 16 9 10 9 -2 -3 -1 -14 8 -12 -20 -20 -16 -5 -4 -8 -3 -12 -20 -20 -20 -20 -20 -20 -20 -20 -20 -20 -20
-20 -20 11 -13 -20 -9 8 19 33 32 29 17 -13 -15 -9 -11 -1 8 -5 -8 -14 -4 -4 10 -12 4 13 14 8 -19 -18 8 -0 -1 -9 -11 -15 -5 -4 -4 -20 -20 -20 -20 -20 -20 -20 -20 -20 -20 -20 -20 -20 -20
-11 12 3 -17 11 18 23 33 34 35 35 -18 -20 -5 1 -1 10 14 9 5 -8 2 10 20 -4 3 -0 -20 1 0 -7 -2 1 1 0 -3 -3 -2 -4 -20 -20 -20 -20 -20 -20 -20 -20 -20 -20 -20 -20 -19 -8 -20
8 -1 -20 -20 -12 32 39 38 29 13 -9 -17 -15 -9 -19 -20 3 -5 -9 -12 -4 -18 2 10 -20 -15 5 16 18 -12 -5 -1 -4 -8 -7 -3 -2 -20 -20 -20 -20 -20 -20 -20 -20 -20 -20 -20 -20 -7 -20 -19 -20 -20
19 19 24 15 23 31 26 20 26 -3 -0 -3 -20 -20 -10 -2 -17 -19 -6 -20 -20 -20 -7 -20 -7 -1 3 -20 -4 -3 -1 -3 1 -1 0 -1 -20 -20 -17 -18 -20 -20 -20 -16 -14 -18 -17 -20 -20 -20 -20 -20 -20 -20
16 22 33 19 10 15 1 10 10 -6 -2 -7 -20 -20 -0 2 -8 -3 -1 -20 -20 -20 10 -20 -11 -20 -19 -20 -20 -20 -5 -16 -19 -14 -0 0 -3 -8 -8 -20 -12 -4 -2 -3 -3 -20 -20 -20 -20 -20 -20 -20 -20 -14
22 35 36 30 33 27 -8 -9 -20 -20 -12 -18 -20 -6 -20 -14 -2 3 -6 -20 -8 6 11 -20 -5 -6 -20 -20 -20 -20 -20 -20 -20 -20 -20 -3 -19 -20 -15 -5 -4 -5 -2 -3 -1 -4 -20 -20 -20 -20 -20 -20 -20 -5
32 29 31 30 18 18 0 -20 -20 -20 -15 -2 -16 -20 -5 -2 -4 -7 -20 -9 -8 -19 -20 -20 -20 -20 -20 -20 -20 -20 -20 -20 -20 -20 -20 -20 -4 -5 -9 -5 -3 -4 -1 2 -2 -2 -3 -20 -20 -20 -20 -1 -3 -10
26 26 23 19 12 1 -2 -4 -20 -20 -4 -10 -20 -14 -2 -3 -17 -20 -18 -20 -20 -20 -20 -20 -20 -20 -20 -20 -20 -20 -20 -20 -20 -20 -20 -20 -12 0 -11 -11 -3 -0 0 -19 -20 -14 -12 -19 -20 -20 -14 -9 1 3
15 19 13 7 4 3 -15 -14 -20 -20 -20 -19 -6 -5 -15 -13 -20 -20 0 -20 -20 -20 -20 -20 -20 -20 -20 -20 -20 -20 -20 -20 -20 -6 -17 -12 -2 -3 -2 -19 -17 -20 -17 -20 -20 -20 -20 -2 -20 -20 -1 -2 -1 1
-19 -20 -20 -20 -9 -14 -5 -5 -2 -19 -4 -5 -20 -1 -2 -20 -1 -20 -20 -20 -7 -3 -7 -20 -20 -20 -20 -20 -19 -20 -20 -20 -20 -20 -9 -20 -20 -20 -20 -20 -20 -20 -20 -20 -7 -2 1 -1 -0 -3 -8 -5 -1 -4
0 -11 -20 -9 -7 -20 -9 -20 -20 -20 -20 -12 -15 -20 -20 -3 -20 -20 -20 -11 -2 3 0 -3 -11 -20 -20 -20 -18 -20 -20 -20 -20 -7 -20 -20 -20 -20 -20 -20 -20 -20 -20 -19 -2 -3 -9 -20 -20 -20 -20 -15 -20 -20
-20 -4 -20 -20 -20 -20 -3 -20 -20 -20 -20 -20 -13 -4 -13 -20 -20 -20 -6 -8 5 4 -6 -19 -16 -20 -20 -20 -20 -20 -20 -20 -20 -20 -20 -20 -20 -20 -17 -11 -20 -20 -20 -20 -20 -20 -20 -20 -20 -20 -20 -20 -5 -4
-19 -20 -18 -6 -20 -20 -20 -20 -20 -20 -6 -20 -13 -18 -20 -20 -20 -7 0 -19 12 11 4 -9 -14 -20 -20 -20 -17 -7 -20 -20 -20 -20 -20 -20 -20 -20 -20 -20 -20 -20 -20 -20 -20 -20 -20 -20 -20 -20 -20 -20 -20 -20
-14 -20 -20 -20 -20 -20 -20 -20 -18 -16 -20 -20 -11 -20 -7 -14 -1 4 2 4 -1 -14 -7 -18 -2 -18 -3 0 -1 -18 -20 -20 -20 -20 -20 -20 -20 -20 -20 -20 -20 -20 -20 -20 -20 -20 -20 -20 -20 -20 -20 -20 -20 -18
-20 -20 -20 -20 -20 -20 -2 -3 -1 -1 -20 -10 -20 -20 -4 0 1 -1 -0 1 7 8 -1 -1 -0 1 -0 -9 0 -8 -3 -20 -20 -20 -20 -20 -20 -20 -20 -20 -20 -20 -20 -20 -20 -20 -20 -20 -20 -20 -20 -20 -20 -11
-20 -20 -20 -20 -7 -0 -0 1 2 1 0 0 -9 -3 -2 2 2 -2 -1 -0 0 -3 -1 -1 -1 -0 -20 -20 -20 -20 -20 -20 -20 -20 -20 -20 -20 -18 -20 -20 -20 -20 -20 -20 -20 -20 -20 -20 -20 -20 -20 -20 -20 -20
-20 -20 -20 -20 -3 3 1 3 1 1 -0 -0 -0 -0 -3 3 -1 -2 -18 -2 3 4 -5 -3 -1 1 -14 -19 -20 -20 -20 -20 -20 -20 -20 -20 -20 -20 -20 -20 -20 -20 -20 -20 -20 -20 -20 -20 -20 -20 -20 -20 -20 -20
-20 -20 -20 -7 -1 -1 0 -0 -4 -1 -0 -0 -1 -1 -9 -1 -3 -2 -7 -20 6 2 3 -12 -16 -6 -20 -20 -20 -20 -20 -20 -20 -20 -20 -20 -20 -20 -20 -20 -20 -20 -20 -20 -20 -20 -20 -20 -20 -20 -20 -20 -20 -20

GFSWCAN_prec_radar_096.txt.gz
Reflectivity
14 19 15 -6 -8 -20 -4 6 6 11 -20 -20 -20 -20 -20 -20 -20 -6 -1 -8 -2 5 -20 -8 -14 -20 -20 -20 -8 -20 -7 -12 -18 -11 -8 -9 17 18 23 7 7 -7 21 -18 -7 12 -17 -20 -20 -13 10 8 7 -2
15 9 -17 -20 -7 9 -20 2 9 5 14 -20 -4 -19 -20 -20 -20 -20 18 -15 3 -8 -19 -20 -20 -20 -20 -20 -20 -20 2 9 5 4 0 0 7 3 32 16 -18 2 -11 8 -19 6 -10 -2 7 3 -11 -1 4 2
7 -20 -20 -20 -20 -20 9 13 -7 -20 13 -16 -20 -20 -20 -20 -20 -20 19 9 -4 -9 -20 -19 -7 -20 -20 -20 -20 -19 -0 -7 -0 -0 2 6 18 -4 11 5 13 -5 -20 0 -7 4 -20 1 6 -2 1 1 4 6
11 -20 -20 -20 -20 -13 -2 -5 -20 -9 9 12 -20 -20 -20 -20 -20 -20 9 -8 -0 -9 -4 21 -20 -20 -20 -20 -20 -20 -20 -20 -20 -13 -2 5 17 -10 11 8 -20 -12 -15 -17 2 -8 -20 -13 2 6 7 6 -1 1
-14 -2 -20 -20 -11 13 -20 -20 -20 16 11 -20 -20 -20 -20 -20 -14 -13 19 -0 5 5 6 -20 -20 -20 -20 -20 -20 -20 -20 -6 -15 1 6 11 17 4 0 4 -4 -3 -1 1 2 1 -20 -0 4 -11 -5 -0 2 -3
-8 9 -20 -20 -20 -20 -20 -20 -19 -20 -20 -20 -20 -20 -19 -20 -20 22 13 -19 10 -20 -13 -19 18 -20 -20 -20 -20 -0 -20 -20 5 -3 -5 4 10 -14 10 -12 -19 -11 4 -4 -6 -9 -20 -1 -20 -17 -3 -1 -0 -4
-15 -3 -20 -20 7 7 -12 14 -11 -20 -20 -20 1 -20 -20 -20 19 9 23 34 5 6 13 8 13 -11 -20 -20 -20 -15 -20 -20 7 -7 3 12 -9 -4 -3 4 -4 4 3 15 12 -11 4 4 -8 -20 -7 -19 -9 -20
9 2 -20 -20 -20 17 14 4 -20 -20 -20 -20 -13 -20 -19 18 -12 4 17 -14 -8 -15 12 -6 -15 19 -20 -2 12 -20 11 -8 -20 1 6 8 -10 0 14 10 4 -0 4 6 -9 -16 -19 -20 -20 -20 -20 -20 -20 -20
10 -17 -20 -20 -17 6 -20 -3 -20 -20 -20 -20 5 15 16 16 20 9 2 -20 -4 18 12 6 -4 31 -18 8 16 14 -11 -13 5 8 10 8 16 -4 16 10 6 3 3 -12 -19 -20 -20 -11 -18 -15 -20 -20 -20 -20
9 8 -20 -4 -19 11 7 -20 -20 -19 11 11 20 29 6 4 26 -9 29 17 13 13 -13 -12 -20 10 22 -3 12 22 16 5 8 -16 -7 6 -6 -18 4 0 7 -20 -14 -12 -20 -20 -20 -20 -20 -20 -20 -20 -20 -20
4 -3 -20 -2 -10 12 11 -18 -20 5 18 16 26 25 22 27 30 18 4 8 4 -4 -16 -20 -20 5 18 10 19 6 7 21 4 9 9 15 -19 -20 -20 -20 -20 -20 -20 -20 -20 -20 -20 -20 -20 -20 -20 -20 -20 -20
-20 -20 -20 -20 7 13 9 -20 -20 9 2 -11 16 25 26 26 28 8 5 6 -0 2 -11 -8 -14 -4 23 -5 -6 -3 -8 5 5 3 10 19 -5 -20 -19 -20 -20 -20 -20 -20 -20 -20 -20 -20 -20 -20 -20 -20 -20 -20
-10 16 9 -20 8 7 9 -20 -20 8 19 28 32 21 21 11 1 -12 -12 -3 2 -4 19 -14 0 3 -6 5 2 -12 -18 6 -5 13 2 -10 -20 -20 -20 -20 -20 -20 -20 -20 -20 -20 -20 -20 -20 -20 -20 -20 -20 -20
-20 -20 19 -16 15 14 -18 -20 -19 9 36 30 22 13 7 3 -5 -16 12 -18 -16 -18 1 -9 -3 12 12 -1 -20 14 11 -16 11 8 -5 -20 -20 -20 -20 -20 -20 -20 -20 -20 -20 -20 -20 -20 -20 -20 -20 -20 -20 -20
-20 6 16 14 12 -20 -20 -19 13 21 31 22 32 11 -20 -4 -9 -2 -10 -20 -14 -1 -13 7 17 18 2 -8 2 -19 11 -7 -1 5 -3 -20 -20 -20 -17 -20 -20 -20 -20 -20 -20 -20 -20 -20 -20 -20 -20 -20 -20 -20
16 20 12 14 -12 -20 -20 4 23 27 30 28 27 7 -14 -6 -2 7 -4 -20 -2 -7 -2 14 -10 17 13 14 20 -9 8 11 3 -2 -6 -20 -20 -20 -20 -20 -10 -10 -4 -4 -20 -20 -20 -20 -20 -20 -20 -20 -20 -20
12 5 -19 -16 -17 -20 -20 -19 24 28 16 25 -4 4 6 2 1 5 10 4 -20 10 2 14 -3 2 18 -6 -1 -20 2 -3 -4 -3 -4 -20 -20 -20 -20 -19 -18 -5 -5 -6 -20 -20 -20 -20 -20 -20 -20 -20 -20 -20
-9 -6 7 -20 8 5 -10 -5 32 23 -7 15 -16 -7 -8 -3 4 -17 -20 -15 2 -20 3 21 -11 12 13 20 21 -20 -16 -1 -7 -2 -20 -17 -20 -19 -4 -3 -2 -4 -5 -20 -20 -20 -20 -20 -20 -19 -20 -20 -20 -20
-14 6 -4 -18 -14 -14 5 12 29 18 -5 -19 -8 -19 -10 -5 -9 -9 -20 -20 -20 -20 -3 7 -20 -10 20 -14 -20 -13 0 -4 -3 -6 -12 -20 -6 -0 -1 -2 -2 -10 -20 -20 -20 -20 -20 -19 -11 -20 -20 -20 -20 -20
0 5 11 11 -12 -8 13 19 12 -11 -9 -20 -7 -13 3 -20 -20 -11 -16 -20 -20 -20 -15 1 -2 -20 -20 -20 -6 -20 -16 -19 -20 -2 -0 2 1 -2 -1 -16 -20 -20 -20 -20 -14 -13 -20 -20 -20 -20 -20 -20 -20 -20
5 -17 23 24 -14 34 27 -20 -20 -20 -20 -14 -0 -7 -4 -20 -8 -11 -17 -20 -20 -20 -15 -20 -20 -20 -20 -20 -20 -20 -20 -20 -20 -20 -20 3 1 -6 -3 -20 -20 -20 -9 -12 -1 -20 -20 -20 -20 -20 -20 -20 -7 -7
29 33 39 23 7 28 8 -20 -20 -20 -20 -10 -17 -7 -17 -15 -20 -4 -6 3 2 0 -20 -20 -20 -20 -20 -20 -20 -20 -20 -20 -7 -20 -18 -17 3 -1 1 -9 -7 3 4 3 -0 -1 -19 -20 -20 -20 -20 -6 -20 -20
30 28 31 30 20 14 -3 -20 -20 -20 -13 1 -10 -20 -8 -8 -20 -20 -20 -11 -12 -20 -20 -20 -20 -20 -20 -20 -20 -20 -20 -20 -20 -20 -20 -1 -5 5 -15 -17 3 -4 5 -18 -20 -20 -14 -20 -20 -20 -20 -20 -2 2
25 34 23 15 11 12 3 1 -20 -20 -20 -5 -5 -20 -20 -20 -20 -9 -11 -20 -20 -20 -20 -20 -20 -20 -20 -20 -20 -20 -20 -20 -20 -17 3 -15 -11 -10 -14 -4 1 -15 -16 -20 -20 -20 -20 -11 -20 -20 -8 -6 -18 -2
22 18 11 4 -7 -4 -19 -20 -0 -19 -1 -20 -12 -9 -6 -20 -7 -20 -20 -12 -20 -19 -20 -20 -20 -20 -20 -3 -20 -20 -20 -20 -20 -20 -8 -11 -4 -2 -20 -20 -20 -20 -20 -20 -20 -8 -2 -18 -20 -20 -20 -20 -20 -20
20 12 -4 -3 -1 -20 -9 -11 -20 -10 -20 -16 -8 -20 -20 -3 -15 -15 -11 1 -20 0 -5 3 2 -2 0 -20 -20 -20 -20 -17 -20 -12 -20 -20 -20 -6 -20 -20 -20 -20 -20 -20 -11 -20 -20 -20 -20 -20 -20 -20 -20 -20
-14 -13 -20 -20 -20 -20 -20 -20 -20 -14 -15 -12 -16 -4 -2 -13 -7 -20 -20 -16 6 -19 -20 -20 -1 1 -20 -20 -20 -20 -20 -20 -11 -20 -20 -20 -20 -20 -20 -20 -20 -20 -20 -20 -20 -20 -20 -20 -20 -20 -20 -20 -12 -13
-20 -4 -12 -18 -20 -20 -7 -3 -7 -6 -20 -20 -6 -9 -19 -20 -20 -6 -18 -20 12 -7 8 -14 -12 -10 -20 -20 -20 -20 -20 -20 -20 -20 -20 -20 -20 -20 -20 -20 -20 -20 -20 -20 -20 -20 -20 -20 -20 -20 -20 -20 -20 -20
-13 -14 -20 -20 -20 -20 -20 -20 -20 -20 -20 -20 -1 -20 -20 -18 -0 3 2 4 11 -2 -7 -11 4 -7 -7 -20 -20 -18 -19 -20 -20 -20 -20 -20 -20 -8 -20 -20 -20 -20 -20 -20 -20 -20 -20 -20 -20 -20 -20 -20 -20 -20
-20 -20 -20 -20 -20 -20 -13 -19 -14 -20 -20 -20 -20 -20 -5 -2 -2 -8 -3 -1 4 5 -1 -16 -4 -20 -6 -12 5 3 -4 -20 -20 -20 -20 -20 -20 -20 -20 -20 -20 -20 -20 -20 -20 -20 -20 -20 -20 -18 -14 -19 -20 -20
-16 -7 -15 -20 -16 -1 -1 -4 -7 0 -2 -3 1 -16 -11 0 -0 -15 -2 3 16 4 -4 -4 4 2 -0 -16 -7 -15 -13 -20 -20 -20 -20 -20 -20 -11 -20 -20 -20 -20 -20 -20 -20 -20 -20 -20 -20 -20 -20 -20 -20 -20
-2 -6 -20 -20 -5 1 -2 7 6 5 -0 -1 -1 -5 -2 5 -2 1 -20 -20 7 4 7 6 5 9 2 -4 -19 -19 -20 -20 -20 -20 -20 -20 -20 -20 -20 -20 -20 -20 -20 -20 -20 -20 -20 -20 -20 -20 -20 -20 -20 -20
-1 -2 -6 -5 -2 -1 -1 2 1 0 2 3 1 1 2 1 -12 -4 -19 -7 10 0 7 -0 -4 -20 -20 -20 -20 -7 -20 -20 -20 -20 -20 -20 -20 -20 -20 -20 -20 -20 -20 -20 -20 -20 -20 -20 -20 -20 -20 -20 -20 -20

GFSWCAN_prec_radar_099.txt.gz
Reflectivity
31 28 28 30 14 5 -20 -6 -1 -16 -20 -20 -20 -20 -20 -20 -20 -20 -20 -20 -18 -20 -20 -20 -20 -20 -20 -20 -20 -20 -18 -20 -20 -20 -18 -14 11 22 25 -20 -20 -20 -0 -9 -20 -20 -20 -20 -20 -18 12 3 0 -11
27 15 20 19 -19 -20 -20 1 7 6 -20 -20 -20 -20 -20 -20 -20 -20 -19 -20 -20 -20 -20 -20 -20 -20 -20 -20 -20 -20 6 -20 -20 -20 -20 -20 19 4 20 1 6 -14 5 -19 -5 -6 3 -18 1 -2 -18 -20 -2 -2
21 16 12 3 -20 -20 -20 -20 10 8 -20 -20 -5 -20 -20 -20 -20 -20 -5 -18 -20 -20 -20 -20 -20 -20 -20 -20 -20 -20 -1 -20 -20 -20 -19 -20 12 -20 -16 -20 -20 -20 -20 -20 -20 -8 -20 1 -2 -2 -20 -20 0 -3
18 13 -4 -6 -20 -20 -20 -20 -20 -20 -1 -20 -20 -20 -20 -20 -20 -20 -20 -20 -20 -19 -20 -20 -20 -20 -20 -20 -20 -20 -20 -20 -20 -20 -15 -20 -6 -20 -14 -20 -20 -14 -20 -20 -3 -12 -20 -13 2 -6 5 -14 -18 -11
15 -11 -20 -20 -20 -20 -2 16 -20 -20 -20 6 -20 -20 -20 -20 -20 -20 -20 -20 -20 10 -18 -20 -20 -20 -20 -20 -20 -20 -20 -20 -20 -20 -20 -2 -20 -18 -12 -8 -20 -6 -20 -20 -20 -13 -20 1 -2 -8 -20 -4 3 -6
8 -19 -9 -20 -20 -17 -8 -20 -20 -19 -20 -20 -20 -20 -20 -20 -20 -20 -20 -20 -20 12 -4 -20 -20 -20 -20 -20 -20 -20 -20 -20 -20 -20 -20 -20 6 -20 -20 -20 -19 -3 -20 -17 -20 -20 -20 -19 -18 -20 -11 3 -4 -4
6 -4 -13 -12 -20 -20 -19 -20 -4 -20 -20 -20 -16 6 -20 -20 -20 1 13 19 -13 3 -13 -15 -20 -14 -20 -20 -20 -20 -20 -20 -20 -20 -20 -20 -20 -20 -20 -20 -20 -2 8 8 -20 -20 -6 -20 -18 -20 -20 -19 -12 -8
-12 8 -20 -3 -8 -14 -20 -20 -13 -20 -20 -16 2 -20 -20 -20 -20 -4 -6 -20 3 -14 -20 -9 -20 -16 -20 -20 -20 -20 -20 -20 -20 -20 -20 -20 -20 -20 -17 -19 -20 -20 -20 -19 -17 -20 -20 -20 -20 -20 -20 -20 -20 -20
2 8 -20 -13 -17 -9 12 -14 -20 -20 -20 10 -20 7 -20 -20 -13 -12 -8 -11 -20 -4 -20 -13 -13 15 -13 -20 -20 -20 -20 -20 -20 -20 -20 -20 12 -20 4 -8 -15 0 -12 -15 -3 -20 -20 -7 -20 -20 -20 -20 -20 -20
15 10 -20 -20 -20 -10 14 -20 -20 -20 -20 -9 13 -19 -20 -20 -10 -16 6 -8 -8 -20 13 -19 -20 -20 11 -3 -20 -20 -20 -20 -11 -20 -20 -20 -20 -19 12 4 -1 -15 -17 -20 -20 -20 -2 -20 -20 -20 -20 -20 -20 -20
3 7 -5 -20 -14 14 3 -20 -20 -20 -15 12 -5 -11 14 19 24 11 -19 -11 -20 -2 -13 -20 -20 -20 -20 -11 -20 -18 -20 4 -20 -11 -8 4 -20 -20 4 5 -20 -20 -20 -20 -20 -20 -20 -20 -20 -20 -20 -20 -20 -20
-6 -20 -20 -18 -10 15 13 -20 -12 -20 -20 -20 2 18 22 27 24 -17 -20 -20 -1 -20 -20 -20 -20 -20 -10 -1 -3 -18 -20 -20 -19 -20 -11 -8 -20 -20 -20 -20 -20 -20 -20 -20 -20 -20 -20 -20 -20 -20 -20 -20 -20 -20
-8 -20 -20 -20 -7 13 13 -20 -20 3 4 22 23 23 6 -14 -4 -9 -20 -12 -20 -20 -20 -20 -20 -4 -20 -20 -20 -10 -20 -20 -13 -13 -20 -20 -20 -20 -20 -20 -20 -20 -20 -20 -20 -20 -20 -20 -20 -20 -20 -20 -20 -20
-20 -18 -17 -20 10 14 -14 -20 8 5 10 20 13 -6 -9 -11 -20 -20 -20 -20 -20 -20 -20 -20 -20 -20 -20 -20 -20 -19 -20 10 -3 -20 -7 -20 -20 -20 -20 -20 -20 -20 -20 -20 -20 -20 -20 -20 -20 -20 -20 -20 -20 -20
10 16 13 -18 -6 14 18 -20 -20 -12 23 17 10 -9 -20 -20 -20 -20 -20 -20 -20 -20 -20 -20 -20 -20 -16 -20 -20 -16 -3 -16 -20 -20 -20 -20 -20 -20 -20 -20 -20 -20 -20 -20 -20 -20 -20 -20 -20 -20 -20 -20 -20 -20
-20 17 17 15 19 16 2 1 -12 2 18 6 3 15 -2 -20 -20 -20 -20 -20 -20 -20 -20 -20 -20 -9 -20 -15 1 -19 -12 -20 -20 -20 -20 -20 -20 -20 -20 -20 -20 -20 -20 -20 -20 -20 -20 -20 -20 -20 -20 -20 -20 -20
-6 -19 8 17 18 -20 -20 -20 -9 -5 -6 6 -8 -20 3 -20 -20 -20 -20 -20 -20 -20 -20 -9 -20 -20 -5 -2 -14 8 -18 -20 -20 -20 -20 -20 -20 -20 -20 -20 -20 -20 -20 -20 -20 -20 -20 -20 -20 -20 -20 -20 -20 -20
-20 -20 9 17 -12 -12 -20 -8 7 8 -20 -17 -17 -20 -20 -20 -20 -20 -20 -20 -11 -16 -17 -9 -20 7 -20 -10 -10 -20 -20 -20 -20 -20 -20 -20 -20 -20 -20 -20 -20 -20 -20 -20 -20 -20 -20 -20 -20 -20 -20 -20 -20 -20
-13 -20 19 -6 -20 -20 -20 -20 -4 10 -11 -20 -20 -20 -20 -20 -20 -20 -20 -16 -20 -20 -20 -20 -20 -20 -20 -5 -6 -20 -20 -20 -20 -19 -20 -20 -20 -20 -20 -20 -20 -20 -20 -20 -20 -20 -20 -20 -20 -20 -20 -20 -20 -20
16 -10 -14 -20 -20 -20 2 -3 -12 7 -20 -20 -20 -20 -20 -20 -20 -20 -20 -20 -20 -20 -20 -15 -20 -20 -20 -20 -20 -20 -20 -20 -20 -20 -19 -20 -20 -20 -20 -20 -20 -20 -20 -20 -20 -20 -20 -20 -20 -20 -20 -20 -20 -20
19 19 20 -20 19 13 18 -15 -13 -20 -20 -14 -20 -20 -20 -20 -7 4 -20 -20 -20 -20 -20 -20 -20 -20 -20 -20 -20 -20 -20 -20 -20 -20 -20 -20 -20 -20 -20 -20 -20 -20 -20 -20 -20 -20 -20 -20 -20 -20 -20 -20 -20 -20
20 6 -11 19 -18 -20 -5 8 5 -20 -20 -20 -20 -20 -20 -20 -19 -5 -20 -20 -20 -20 -20 -20 -20 -20 -20 -20 -20 -20 -20 -20 -20 -20 -20 -20 -3 -10 -20 -20 -20 -20 -20 -20 -20 -20 -20 -20 -20 -20 -20 -20 -20 -20
-8 -20 19 -20 -11 -14 -20 31 3 -20 -20 -12 -8 -12 -12 -4 -20 -20 -19 -20 -20 -20 -20 -20 -20 -20 -20 -20 -20 -20 -20 -20 -20 -20 -20 -20 -20 -20 -2 -20 -20 -9 -14 -20 -20 -20 -20 -20 -20 -20 -20 -20 -20 -20
23 24 18 -18 -20 -20 -20 -10 -19 -20 -20 -2 -16 -17 -19 -18 -20 -20 -20 -20 -20 -20 -20 -20 -20 -20 -20 -20 -20 -20 -20 -20 -20 -20 -20 -20 -8 -20 -20 0 -20 -20 -20 -20 -20 -20 -20 -20 -20 -20 -20 -20 -20 -20
23 20 15 4 -19 -20 -20 -20 -20 -20 -20 -20 -19 -20 -20 -20 -20 -20 -20 -20 -20 -20 -20 -20 -20 -20 -20 -20 -20 -20 -20 -20 -20 -20 -17 -20 -20 -20 -20 -20 -20 -20 -20 -20 -20 -20 -20 -20 -20 -20 -20 -20 -20 -20
21 2 -2 -11 -17 -20 -20 -20 -20 -20 -20 -20 -11 -20 -20 -20 -20 -20 -20 -19 -20 -20 -20 -20 -20 -20 -20 -20 -20 -20 -20 -20 -20 -20 -20 -20 -20 -20 -20 -20 -20 -20 -20 -20 -20 -20 -20 -20 -20 -20 -20 -20 -20 -20
-18 5 -20 -20 -20 -20 -15 -19 -20 -20 -20 -20 -20 -20 -12 -20 -20 -20 -20 -20 -17 -20 -20 -20 -19 -20 -20 -20 -20 -20 -20 -20 -20 -20 -18 -20 -20 -20 -20 -20 -20 -20 -20 -20 -20 -20 -20 -20 -20 -20 -20 -20 -20 -20
-20 -20 -20 -20 -20 -20 -20 -20 -20 -19 -20 -20 -20 -18 -20 -20 -20 -19 -20 -20 -17 -20 -20 -20 -1 -2 -20 -20 -20 -20 -20 -20 -20 -20 -20 -20 -20 -20 -20 -20 -20 -20 -20 -20 -20 -20 -20 -20 -20 -20 -20 -20 -20 -20
-20 -20 -20 -20 -20 -20 -20 -20 -20 -20 -20 -20 -20 -20 -20 -20 -20 -20 -20 -12 -9 -20 -18 -13 3 -20 -20 -20 -20 -20 -20 -20 -20 -20 -20 -20 -20 -20 -20 -20 -20 -20 -20 -20 -20 -20 -20 -20 -20 -20 -20 -20 -20 -20
-20 -5 7 11 4 -13 -20 -20 -20 -20 -20 -20 -20 -20 -20 -20 -20 -20 -20 -20 -14 -19 -19 -20 -20 -20 -20 -20 -16 -6 -20 -20 -20 -20 -20 -20 -20 -20 -20 -20 -20 -20 -20 -20 -20 -20 -20 -20 -20 -20 -20 -20 -20 -20
-20 -19 -20 -20 -20 -20 -20 -20 -20 -20 -20 -20 -20 -20 -20 -20 -20 -20 -20 -20 8 -19 -20 -18 -19 -20 -20 -20 -20 -20 -20 -20 -20 -20 -20 -20 -20 -20 -20 -20 -20 -20 -20 -20 -20 -20 -20 -20 -20 -20 -20 -20 -20 -20
-15 -19 -20 -20 -19 -5 -20 -20 -20 -20 -20 -20 -17 -20 -20 -20 -20 -20 -20 -8 2 -20 -20 -20 -20 -15 -20 -20 -20 -20 -20 -20 -20 -20 -20 -20 -20 -20 -20 -20 -20 -20 -20 -20 -20 -20 -20 -20 -20 -20 -20 -20 -20 -20
-20 -20 -20 -20 -20 -20 -20 -18 -17 -17 -1 -8 -20 -20 -20 -20 -20 -20 -20 -19 -20 -4 -3 -13 -20 -20 -20 -20 -20 -20 -20 -20 -20 -20 -20 -20 -20 -20 -20 -20 -20 -20 -20 -20 -20 -20 -20 -20 -20 -20 -20 -20 -20 -20

GFSWCAN_prec_radar_102.txt.gz
Reflectivity
13 -13 -17 -18 -16 -16 -13 -10 -20 -20 -20 -20 -20 -20 -20 -20 -20 -20 -20 -20 -20 -20 -20 -20 -20 -20 -20 -20 -20 -20 -20 -20 -20 -20 -20 -20 -1 23 -7 -14 -12 -20 -11 -20 -20 -20 -20 -20 -20 -20 -6 -3 -20 -20
28 26 17 -1 -11 -8 -20 -20 -20 5 -16 -20 -20 -20 -20 -20 -20 -20 -20 -20 -20 -20 -20 -20 -20 -20 -20 -20 -20 -20 -20 -20 -20 -20 -20 -20 -20 -9 -19 -20 -20 -16 3 -18 -7 -16 -2 -18 -1 -16 -20 -20 -3 -20
28 29 28 26 5 -10 -0 -20 -20 -13 -20 -20 -20 -20 -20 -20 -20 -20 -20 -20 -20 -20 -20 -20 -20 -20 -20 -20 -20 -20 -20 -20 -20 -20 -20 -20 10 -20 -2 -20 -20 -20 -20 -20 -20 -15 -10 2 -7 -20 -20 -11 -20 -20
17 16 9 7 -11 -20 -20 -20 -20 -17 -20 -20 -20 -20 -20 -20 -20 -20 -20 -20 -20 -20 -20 -20 -20 -20 -20 -20 -20 -20 -20 -20 -20 -20 -20 -20 -20 -19 -15 -20 -20 -20 -20 -20 -1 -4 -20 -5 -7 -3 -7 -20 -14 -15
14 -13 -1 -18 -9 -20 -20 -11 -12 -20 -20 -20 -20 -20 -20 -20 -20 -20 -20 -20 -20 -20 -20 -20 -20 -20 -20 -20 -20 -20 -20 -20 -20 -20 -20 -20 -14 -15 -20 -20 -20 -10 -20 -20 -20 -20 -20 -8 -14 -20 -14 1 -4 -20
7 -20 -20 -19 -20 -20 -20 -20 -20 10 -20 -20 -20 -20 -20 -20 -20 -20 -20 -20 -20 -20 -20 -20 -20 -20 -20 -20 -20 -20 -20 -20 -20 -20 -20 -20 -20 -20 -20 -20 -20 -19 -20 -20 -20 -20 -20 -20 -20 -20 -20 -20 -20 -20
-7 -20 -20 -20 -20 -20 -12 2 -9 -4 -20 -20 -20 -20 -20 -20 -20 -18 -5 1 -16 -20 -19 -20 -20 -20 -20 -20 -20 -20 -20 -20 -20 -20 -20 -20 -20 -20 -20 -20 -20 8 -20 -20 -20 -20 -18 -20 -5 -20 -20 -20 -11 -20
-20 -17 -20 -20 -15 1 -20 -20 -12 -20 -20 -20 -20 -20 -20 -20 -20 -20 -20 -16 -8 -20 -20 -20 -20 -20 -20 -20 -20 -20 -20 -20 -20 -20 -20 -20 -20 -20 -20 -20 -19 -20 -20 -10 -20 -20 -20 -20 -19 -20 -20 -20 -20 -20
-3 -9 -20 -20 -20 12 -18 -20 7 -20 -20 -17 -4 -20 -20 -20 -20 -20 -20 -20 -20 -17 -16 -20 -20 -20 -20 -20 -20 -20 -20 -20 -20 -20 -20 -20 -18 -20 -20 -20 -20 -20 -20 -20 -20 -20 -20 -0 -20 -20 -20 -20 -20 -20
-12 -20 -20 -20 -19 3 -18 -20 -20 -20 -20 18 -20 -20 -20 -20 -4 -18 -20 -20 -20 6 -14 -19 -20 -20 -19 -20 -20 -20 -20 -20 -17 -20 -20 -20 -20 -20 -20 -20 -20 -20 -20 2 -20 -20 -20 -12 -20 -20 -20 -20 -20 -20
4 -20 -20 -20 -10 11 -19 -20 -20 -12 10 -20 -17 -13 6 -2 1 -20 -20 -20 -20 -20 -18 -20 -20 -20 -20 -20 -20 -20 -20 -20 -20 -5 -17 -18 -20 -20 -15 -20 -20 -15 -20 -20 -20 -20 -8 -20 -20 -20 -20 -20 -20 -20
-20 -20 -20 -20 -20 12 7 -20 -15 -20 -20 -20 8 17 11 21 1 -20 -20 -20 -18 -20 -20 -20 -20 -20 -20 -20 -20 -20 -20 -14 -20 -5 -8 -16 -20 -20 -20 -20 -1 -6 -20 -20 -20 -20 -20 -20 -20 -20 -20 -20 -20 -20
-19 -20 -20 -20 3 11 -20 -20 -20 -13 -20 -5 20 -11 -5 -16 -19 -20 -20 -20 -20 -20 -20 -20 -20 -20 -20 -20 -20 -20 -20 -20 -19 -20 -20 -20 -20 -20 -20 -20 -20 -20 -20 -20 -20 -20 -20 -20 -20 -20 -20 -20 -20 -20
2 -20 -20 -20 15 14 -20 17 -18 -14 -20 -17 -18 -20 -20 -20 -20 -20 -20 -20 -20 -20 -20 -20 -20 -20 -20 -20 -20 -20 -20 -17 -20 -20 -20 -20 -20 -20 -20 -20 -20 -20 -20 -20 -20 -20 -20 -20 -20 -20 -20 -20 -20 -20
-20 -20 -20 -8 11 16 -19 -20 -20 -20 -8 -2 -5 -20 -20 -20 -20 -20 -20 -20 -20 -20 -20 -20 -20 -20 -20 -20 -18 -20 -17 -14 -20 -20 -20 -20 -20 -20 -20 -20 -20 -20 -20 -20 -20 -20 -20 -20 -20 -20 -20 -20 -20 -20
5 11 -20 -1 16 16 -8 -20 -20 -20 -20 8 -14 -16 -20 -19 -0 -20 -20 -20 -20 -20 -20 -20 -20 -20 -20 -20 -20 -20 -20 -20 -20 -20 -20 -20 -20 -20 -20 -20 -20 -20 -20 -20 -20 -20 -20 -20 -20 -20 -20 -20 -20 -20
-20 -18 -20 15 20 -8 -20 -20 -20 -20 -20 -18 -1 -20 -20 -20 -19 -20 -7 -4 -20 -20 -20 -20 -20 -20 -20 -11 -20 -20 -20 -20 -20 -20 -20 -20 -20 -20 -20 -20 -20 -20 -20 -20 -20 -20 -20 -20 -20 -20 -20 -20 -20 -20
-20 -15 11 16 6 -18 -20 -20 -20 -9 -20 -20 -20 -20 -16 -20 -20 -20 -20 -19 -20 -20 -20 -20 -20 -20 -20 -16 -19 -20 -20 -20 -20 -20 -20 -20 -20 -20 -20 -20 -20 -20 -20 -20 -20 -20 -20 -20 -20 -20 -20 -20 -20 -20
-20 -18 13 0 -20 -20 -20 -20 -20 -20 -20 -18 -13 -20 -7 -14 -20 -20 -20 7 -20 -20 -20 -20 -20 -20 -20 1 7 -20 -20 -20 -20 -20 -20 -20 -20 -20 -20 -20 -20 -20 -20 -20 -20 -20 -20 -20 -20 -20 -20 -20 -20 -20
-20 -20 -20 -20 -20 -20 -8 -4 -20 -9 -20 -20 -20 -20 -20 -20 -20 -20 -20 -14 -1 -20 -20 -20 -20 -20 -20 -20 -20 -20 -20 -20 -20 -20 -20 -20 -20 -20 -20 -20 -20 -20 -20 -20 -20 -20 -20 -20 -20 -20 -20 -20 -20 -20
5 2 17 -20 -20 -12 19 -14 -20 -20 -20 -20 -20 -20 -20 -20 -20 -20 -20 -20 -19 -20 -20 -20 -20 -20 -20 -20 -20 -20 -20 -20 -20 -20 -20 -20 -20 -20 -20 -20 -20 -20 -20 -20 -20 -20 -20 -20 -20 -20 -20 -20 -20 -20
23 18 13 3 -20 -20 -8 25 11 -20 -20 -20 -18 -20 -20 -20 -20 -19 -20 -20 -20 -20 -20 -20 -20 -20 -20 -20 -20 -20 -20 -20 -20 -20 -20 -20 -20 -20 -20 -20 -20 -20 -20 -20 -20 -20 -20 -20 -20 -20 -20 -20 -20 -20
0 -12 -20 -20 -9 -20 -20 16 -18 -20 -20 -15 -20 -20 -20 -20 -20 -20 -20 -20 -20 -20 -20 -20 -20 -20 -20 -20 -20 -20 -20 -20 -20 -20 -20 -20 -20 -20 -20 -20 -20 -20 -20 -20 -20 -20 -20 -20 -20 -20 -20 -20 -20 -20
-6 -20 -20 -20 -20 -20 -20 1 -19 -5 -20 -20 -20 -20 -20 -20 -20 -20 -20 -20 -20 -20 -20 -20 -20 -20 -20 -20 -20 -20 -20 -20 -20 -20 -20 -20 -20 -20 -20 -20 -20 -20 -20 -20 -20 -20 -20 -20 -20 -20 -20 -20 -20 -20
-20 -20 16 11 -20 -20 -20 -20 -20 -20 -20 -20 -20 -20 -20 -20 -20 -20 -20 -20 -20 -20 -20 -20 -20 -20 -20 -20 -20 -20 -20 -20 -20 -20 -20 -20 -20 -20 -20 -20 -20 -20 -20 -20 -20 -20 -20 -20 -20 -20 -20 -20 -20 -20
21 11 -20 -17 -20 -20 -20 -20 -20 -19 -20 -20 -20 -20 -20 -20 -20 -20 -20 -20 -20 -20 -20 -20 -20 -20 -20 -20 -20 -20 -20 -20 -20 -20 -20 -20 -20 -20 -20 -20 -20 -20 -20 -20 -20 -20 -20 -20 -20 -20 -20 -20 -20 -20
6 10 -20 -20 -20 -20 -20 -20 -20 -20 -20 -20 -20 -20 -20 -20 -20 -20 -20 -20 -20 -20 -20 -20 -20 -20 -20 -20 -20 -20 -20 -20 -20 -20 -20 -20 -20 -20 -20 -20 -20 -20 -20 -20 -20 -20 -20 -20 -20 -20 -20 -20 -20 -20
-20 -17 -19 -20 -20 -20 -20 -20 -20 -20 -20 -20 -20 -20 -20 -20 -20 -20 -20 -20 -15 -19 -20 -18 -18 -20 -20 -20 -20 -20 -20 -20 -20 -20 -20 -20 -20 -20 -20 -20 -20 -20 -20 -20 -20 -20 -20 -20 -20 -20 -20 -20 -20 -20
-20 -20 -20 -20 -20 -20 -20 -20 -20 -20 -20 -20 -20 -20 -20 -20 -20 -20 -20 -20 -16 -20 -20 -20 -2 -16 -20 -20 -18 -20 -20 -20 -20 -20 -20 -20 -20 -20 -20 -20 -20 -20 -20 -20 -20 -20 -20 -20 -20 -20 -20 -20 -20 -20
-20 -20 -20 -20 -20 -20 -20 -20 -20 -20 -20 -20 -20 -20 -20 -20 -20 -20 -20 -19 -19 -20 -20 -20 -20 -20 -20 -20 -14 -14 -20 -20 -20 -20 -20 -20 -20 -20 -20 -20 -20 -20 -20 -20 -20 -20 -20 -20 -20 -20 -20 -20 -20 -20
-17 -20 -20 -20 -20 -18 8 12 -4 -20 -20 -20 -20 -20 -20 -20 -20 -20 -20 -20 -20 -20 -20 -17 -15 -17 -20 -20 -20 -20 -20 -20 -20 -20 -20 -20 -20 -20 -20 -20 -20 -20 -20 -20 -20 -20 -20 -20 -20 -20 -20 -20 -20 -20
-4 -2 -19 -13 -11 3 2 -16 -19 -20 -20 -20 -20 -20 -20 -20 -20 -20 -20 -20 -19 -20 -20 -20 -20 -20 -20 -20 -20 -20 -20 -20 -20 -20 -20 -20 -20 -20 -20 -20 -20 -20 -20 -20 -20 -20 -20 -20 -20 -20 -20 -20 -20 -20
-20 -20 -20 -20 -20 -20 -20 -20 -20 -20 -20 -20 -20 -20 -20 -20 -20 -20 -20 -20 -20 -20 -20 -20 -20 -20 -20 -20 -20 -20 -20 -20 -20 -20 -20 -20 -20 -20 -20 -20 -20 -20 -20 -20 -20 -20 -20 -20 -20 -20 -20 -20 -20 -20

GFSWCAN_prec_radar_105.txt.gz
Reflectivity
19 18 18 -17 -20 -20 14 -2 -18 -20 -20 -20 -20 -20 -20 -20 -20 -20 -20 -20 -20 -20 -20 -20 -20 -20 -20 -20 -20 -20 -20 -20 -20 -20 -20 -20 -20 -15 -18 -12 -5 -20 -1 -18 -20 -20 -20 -20 1 -20 -20 -11 -20 -20
14 18 -16 -19 -2 -16 -17 -20 -20 -20 -20 -20 -20 -20 -20 -20 -20 -20 -20 -20 -20 -20 -20 -20 -20 -20 -20 -20 -20 -20 -20 -20 -20 -20 -20 -20 -20 -20 -20 -20 -20 -17 -19 -20 -4 -20 -20 -2 -3 -17 -20 -20 -20 -20
12 13 -20 -20 -5 -11 -19 -20 -20 -20 -20 -20 -20 -20 -20 -20 -20 -20 -20 -20 -20 -20 -20 -20 -20 -20 -20 -20 -20 -20 -20 -20 -20 -20 -20 -20 -19 -20 -6 -20 -20 -20 -20 -20 -20 0 -0 -17 -20 -20 -20 -20 -20 -20
16 0 4 -16 -19 -20 -20 -20 -20 -20 -20 -20 -20 -20 -20 -20 -20 -20 -20 -20 -20 -20 -20 -20 -20 -20 -20 -20 -20 -20 -20 -20 -20 -20 -20 -20 -20 -16 -20 -20 -20 -20 -20 -18 -12 -4 -20 -20 -16 -20 -20 -20 -20 -20
31 28 4 3 -2 -9 -19 -20 -20 -20 -20 -20 -20 -20 -20 -20 -20 -20 -20 -20 -20 -20 -20 -20 -20 -20 -20 -20 -20 -20 -20 -20 -20 -20 -20 -7 -20 7 -20 -20 -20 -16 -20 -20 -20 -20 -20 -20 -20 -20 -20 -20 -20 -20
9 13 8 -16 -20 -15 -20 11 -20 -20 -20 -20 -20 -20 -20 -20 -20 -20 -20 -20 -20 -20 -20 -20 -20 -20 -20 -20 -20 -20 -20 -20 -20 -20 -20 -20 -19 -20 -20 -20 -5 -20 -20 -20 -20 -20 -20 -20 -20 -20 -20 -20 -20 -20
-20 -20 -2 -20 -20 -20 -20 -17 -20 -20 -20 -20 -20 -20 -20 -20 -20 -20 -20 -20 -20 -20 -20 -20 -20 -20 -20 -20 -20 -20 -20 -20 -20 -20 -20 -20 -20 -20 -20 -20 -19 -20 -20 -20 -20 -20 -20 -20 -20 -20 -20 -20 -20 -20
-20 -20 -20 -18 -20 -10 -5 -7 -10 1 -20 -20 -20 -20 -20 -20 -20 -20 -20 -15 -20 -20 -20 -20 -20 -20 -20 -20 -20 -20 -20 -20 -20 -20 -20 -20 -20 -20 -20 -20 -20 -20 -20 -20 -20 -20 -20 -20 -20 -20 -20 -20 -20 -20
-20 -20 -20 4 -15 -20 6 12 -12 -20 -20 -20 -6 -20 -20 -20 -20 -20 -20 -20 -20 -20 -20 -20 -20 -20 -20 -20 -20 -20 -20 -20 -20 -20 -20 -20 -20 -20 -20 -20 -20 -20 -20 -20 -20 -20 -20 -20 -20 -20 -20 -20 -20 -20
-20 -20 -20 -20 10 -9 -20 -20 -20 -20 17 -20 -20 -20 -20 -20 -20 -20 -20 -20 -20 -20 -17 -20 -20 -20 -20 -20 -20 -20 -20 -20 -20 -20 -20 -20 -20 -20 -20 -20 -20 -20 -20 -20 -20 2 -12 -20 -20 -20 -20 -20 -20 -20
-4 -6 4 -20 -11 15 7 7 8 6 -20 -20 -18 4 2 7 -20 -20 -20 -20 -20 -20 -20 -20 -20 -20 -20 -20 -20 -20 -20 -20 -20 -8 -20 -20 -20 -20 -20 -20 -20 -13 -20 -20 -20 -20 -20 -20 -20 -20 -20 -20 -20 -20
-20 -20 -20 5 -6 10 11 -20 -20 -20 -20 -16 8 3 -2 -8 -19 -20 -20 -20 -20 -20 -20 -20 -20 -20 -20 -20 -20 -20 -20 -20 -20 -4 -20 -16 -20 -20 -20 -20 -16 -20 -20 -20 -20 -20 -20 -12 -20 -20 -20 -20 -20 -20
-20 -20 -20 -19 11 3 -20 -20 -20 -20 -17 -2 -10 -16 -3 -20 -20 -20 -20 -20 -20 -20 -20 -20 -20 -20 -20 -20 -20 -20 -20 -20 -20 -20 -3 -20 -20 -20 -20 -20 -20 -20 -20 -20 -20 -20 -20 -20 -20 -20 -20 -20 -20 -20
-20 -20 -20 -16 9 16 -18 -20 -20 -20 -14 -4 -20 -20 -20 -20 -20 -20 -20 -20 -20 -20 -20 -20 -20 -20 -20 -20 -20 -20 -20 -10 -20 -20 -20 -20 -20 -20 -20 -20 -20 -20 -20 -20 -20 -20 -20 -20 -20 -20 -20 -20 -20 -20
-20 -20 -8 18 17 -15 -18 -20 -20 -20 -20 -20 -1 -20 -20 -20 -15 -20 -20 -20 -20 -20 -20 -20 -20 -20 -20 -20 -20 -20 -12 -2 -20 -20 -20 -20 -20 -20 -20 -20 -20 -20 -20 -20 -20 -20 -20 -20 -20 -20 -20 -20 -20 -20
0 -13 -20 14 13 -11 -20 -20 -20 -20 -20 -12 -20 -20 -20 -20 -16 -20 -17 -20 -20 -20 -20 -20 -20 -20 -20 -20 -20 -20 -20 -20 -20 -20 -20 -20 -20 -20 -20 -20 -20 -20 -20 -20 -20 -20 -20 -20 -20 -20 -20 -20 -20 -20
-20 -20 8 12 9 -20 -20 -20 -20 -20 -20 -20 -19 -20 -10 -20 -20 2 9 7 -15 -20 -20 -20 -20 -20 -20 -20 -20 -20 -20 -20 -20 -20 -20 -20 -20 -20 -20 -20 -20 -20 -20 -20 -20 -20 -20 -20 -20 -20 -20 -20 -20 -20
-20 -20 -11 27 -3 -20 -20 -20 -20 -16 -20 -20 -20 -20 -9 -19 -15 -20 8 11 -18 -20 -20 -20 -20 -20 -20 -20 -20 -20 -20 -20 -20 -20 -20 -20 -20 -20 -20 -20 -20 -20 -20 -20 -20 -20 -20 -20 -20 -20 -20 -20 -20 -20
-20 -20 -0 -20 -20 -20 -20 -20 -20 -20 -20 -18 -17 -20 -5 0 -9 -20 3 7 -17 -20 -20 -20 -20 -20 -20 -20 -20 -20 -20 -20 -20 -20 -20 -20 -20 -20 -20 -20 -20 -20 -20 -20 -20 -20 -20 -20 -20 -20 -20 -20 -20 -20
13 -20 -20 -20 -20 -20 -20 -20 -20 -20 -20 -20 -20 -11 -4 -20 -20 -6 -14 -9 -10 -20 -20 -20 -20 -20 -20 -20 -20 -20 -20 -20 -20 -20 -20 -20 -20 -20 -20 -20 -20 -20 -20 -20 -20 -20 -20 -20 -20 -20 -20 -20 -20 -20
-0 22 21 -2 -20 -20 -20 -20 -20 -20 -20 -20 -20 -20 -20 -20 -20 -16 3 -20 -20 -20 -20 -20 -20 -20 -20 -20 -20 -20 -20 -20 -20 -20 -20 -20 -20 -20 -20 -20 -20 -20 -20 -20 -20 -20 -20 -20 -20 -20 -20 -20 -20 -20
27 27 7 -20 -20 -20 -20 -16 -15 -20 -20 -20 -20 -20 -20 -20 -20 -20 -20 -20 -20 -20 -20 -20 -20 -20 -20 -20 -20 -20 -20 -20 -20 -20 -20 -20 -20 -20 -20 -20 -20 -20 -20 -20 -20 -20 -20 -20 -20 -20 -20 -20 -20 -20
-15 -20 -20 -20 -20 -20 -20 3 -14 -20 -20 -7 -20 -20 -20 -20 -20 -20 -20 -20 -20 -20 -20 -20 -20 -20 -20 -20 -20 -20 -20 -20 -20 -20 -20 -20 -20 -20 -20 -20 -20 -20 -20 -20 -20 -20 -20 -20 -20 -20 -20 -20 -20 -20
-20 -20 -20 -20 -20 -20 -20 -10 -16 -20 -20 -20 -20 -20 -20 -20 -20 -20 -20 -20 -20 -20 -20 -20 -20 -20 -20 -20 -20 -20 -20 -20 -20 -20 -20 -20 -20 -20 -20 -20 -20 -20 -20 -20 -20 -20 -20 -20 -20 -20 -20 -20 -20 -20
-20 -20 -20 -20 -20 -20 -20 -20 -18 -20 -20 -20 -20 -20 -20 -20 -20 -20 -20 -20 -20 -20 -20 -20 -20 -20 -20 -20 -20 -20 -20 -20 -20 -20 -20 -20 -20 -20 -20 -20 -20 -20 -20 -20 -20 -20 -20 -20 -20 -20 -20 -20 -20 -20
-20 -20 -20 -20 -20 -20 -20 -20 -20 -20 -20 -20 -20 -20 -20 -20 -20 -20 -20 -20 -20 -20 -20 -20 -20 -20 -20 -20 -20 -20 -20 -20 -20 -20 -20 -20 -20 -20 -20 -20 -20 -20 -20 -20 -20 -20 -20 -20 -20 -20 -20 -20 -20 -20
9 1 -15 -20 -20 -20 -20 -20 -20 -20 -20 -13 -20 -20 -20 -20 -20 -20 -20 -20 -20 -20 -20 -20 -20 -20 -20 -20 -20 -20 -20 -20 -20 -20 -20 -20 -20 -20 -20 -20 -20 -20 -20 -20 -20 -20 -20 -20 -20 -20 -20 -20 -20 -20
-20 -20 -20 8 -4 -20 -20 -20 -20 -20 -20 -20 -20 -20 -20 -20 -20 -20 -20 -20 -20 -20 -20 -20 -20 -20 -20 -20 -20 -20 -20 -20 -20 -20 -20 -20 -19 -20 -20 -20 -20 -20 -20 -20 -20 -20 -20 -20 -20 -20 -20 -20 -20 -20
-20 -20 -20 -20 -20 -11 -20 -20 -20 -20 -20 -20 -20 -20 -20 -20 -20 -20 -20 -20 -20 -20 -20 -20 -20 -20 -20 -20 -20 -20 -20 -20 -20 -20 -20 -20 -20 -20 -20 -20 -20 -20 -20 -20 -20 -20 -20 -20 -20 -20 -20 -20 -20 -20
-20 -20 -20 -20 -20 -20 -20 -20 -20 -20 -20 -20 -20 -20 -20 -20 -20 -20 -20 -20 -20 -20 -20 -20 -20 -20 -20 -20 -20 -20 -20 -20 -20 -20 -20 -20 -20 -20 -20 -20 -20 -20 -20 -20 -20 -20 -20 -20 -20 -20 -20 -20 -20 -20
-20 -20 -20 -20 -20 -20 -20 -20 -20 -20 -20 -20 -20 -20 -20 -20 -20 -20 -20 -20 -20 -20 -20 -20 -20 -19 -20 -20 -20 -20 -20 -20 -20 -20 -20 -20 -20 -20 -20 -20 -20 -20 -20 -20 -20 -20 -20 -20 -20 -20 -20 -20 -20 -20
-20 -20 -20 -20 -20 -20 -20 -20 -9 -15 -20 -20 -20 -20 -20 -20 -20 -20 -20 -20 -20 -20 -20 -20 -20 -20 -18 -11 -20 -20 -20 -20 -20 -20 -20 -20 -20 -20 -20 -20 -20 -20 -20 -20 -20 -20 -20 -20 -20 -20 -20 -20 -20 -20
-20 -20 -20 -17 -20 -20 -13 -17 -20 -20 -20 -20 -20 -20 -20 -20 -20 -20 -20 -20 -20 -20 -20 -20 -19 -17 -20 -20 -20 -20 -20 -20 -20 -20 -20 -20 -20 -20 -20 -20 -20 -20 -20 -20 -20 -20 -20 -20 -20 -20 -20 -20 -20 -20